[[{"header":{"parameterUnit":"m.s-1","parameterCategory":1,"la1":31.0,"la2":29.5877,"lo1":-88.7671,"lo2":-86.6584,"dy":0.0162,"dx":0.0185,"nx":115,"ny":88,"refTime":"2023-06-16T00:00:00:Z","depth":0,"parameterNumber":2,"parameterNumberName":"U-component_of_WINDS"},"data":[0.0,0.0,0.0,0.0,0.0,0.0,0.0,0.0,0.0,0.0,0.0,0.0,0.0,0.0,0.0,0.0,0.0,0.0,0.0,0.0,0.0,0.0,0.0,0.0,0.0,0.0,0.0,0.0,0.0,0.0,0.0,0.0,0.0,0.0,0.0,0.0,0.0,0.0,0.0,0.0,0.0,0.0,0.0,0.0,0.0,0.0,0.0,0.0,0.0,0.0,0.0,0.0,0.0,0.0,0.0,0.0,0.0,0.0,0.0,0.0,0.0,0.0,0.0,0.0,0.0,0.0,0.0,0.0,0.0,0.0,0.0,0.0,0.0,0.0,0.0,0.0,0.0,0.0,0.0,0.0,0.0,0.0,0.0,0.0,0.0,0.0,0.0,0.0,0.0,0.0,0.0,0.0,0.0,0.0,0.0,0.0,0.0,0.0,0.0,0.0,0.0,0.0,0.0,0.0,0.0,0.0,0.0,0.0,0.0,0.0,0.0,0.0,0.0,0.0,0.0,0.0,0.0,0.0,0.0,0.0,0.0,0.0,0.0,0.0,0.0,0.0,0.0,0.0,0.0,0.0,0.0,0.0,0.0,0.0,0.0,0.0,0.0,0.0,0.0,0.0,0.0,0.0,0.0,0.0,0.0,0.0,0.0,0.0,0.0,0.0,0.0,0.0,0.0,0.0,0.0,0.0,0.0,0.0,0.0,0.0,0.0,0.0,0.0,0.0,0.0,0.0,0.0,0.0,0.0,0.0,0.0,0.0,0.0,0.0,0.0,0.0,0.0,0.0,0.0,0.0,0.0,0.0,0.0,0.0,0.0,0.0,0.0,0.0,0.0,0.0,0.0,0.0,0.0,0.0,0.0,0.0,0.0,0.0,0.0,0.0,0.0,0.0,0.0,0.0,0.0,0.0,0.0,0.0,0.0,0.0,0.0,0.0,0.0,0.0,0.0,0.0,0.0,0.0,0.0,0.0,0.0,0.0,0.0,0.0,0.0,0.0,0.0,0.0,0.0,0.0,0.0,0.0,0.0,0.0,0.0,0.0,0.0,0.0,0.0,0.0,0.0,0.0,0.0,0.0,0.0,0.0,0.0,0.0,0.0,0.0,0.0,0.0,0.0,0.0,0.0,0.0,0.0,0.0,0.0,0.0,0.0,0.0,0.0,0.0,0.0,0.0,0.0,0.0,0.0,0.0,0.0,0.0,0.0,0.0,0.0,0.0,0.0,0.0,0.0,0.0,0.0,0.0,0.0,0.0,0.0,0.0,0.0,0.0,0.0,0.0,0.0,0.0,0.0,0.0,0.0,0.0,0.0,0.0,0.0,0.0,0.0,0.0,0.0,0.0,0.0,0.0,0.0,0.0,0.0,0.0,0.0,0.0,0.0,0.0,0.0,0.0,0.0,0.0,0.0,0.0,0.0,0.0,0.0,0.0,0.0,0.0,0.0,0.0,0.0,0.0,0.0,0.0,0.0,0.0,0.0,0.0,0.0,0.0,0.0,0.0,0.0,0.0,0.0,0.0,0.0,0.0,0.0,0.0,0.0,0.0,0.0,0.0,0.0,0.0,0.0,0.0,0.0,0.0,0.0,0.0,0.0,0.0,0.0,0.0,0.0,0.0,0.0,0.0,0.0,0.0,0.0,0.0,0.0,0.0,0.0,0.0,0.0,0.0,0.0,0.0,0.0,0.0,0.0,0.0,0.0,0.0,0.0,0.0,0.0,0.0,0.0,0.0,0.0,0.0,0.0,0.0,0.0,0.0,0.0,0.0,0.0,0.0,0.0,0.0,0.0,0.0,0.0,0.0,0.0,0.0,0.0,0.0,0.0,0.0,0.0,0.0,0.0,0.0,0.0,0.0,0.0,0.0,0.0,0.0,0.0,0.0,0.0,0.0,0.0,0.0,0.0,0.0,0.0,0.0,0.0,0.0,0.0,0.0,0.0,0.0,0.0,0.0,0.0,0.0,0.0,0.0,0.0,0.0,0.0,0.0,0.0,0.0,0.0,0.0,0.0,0.0,0.0,0.0,0.0,0.0,0.0,0.0,0.0,0.0,0.0,0.0,0.0,0.0,0.0,0.0,0.0,0.0,0.0,0.0,0.0,0.0,0.0,0.0,0.0,0.0,0.0,0.0,0.0,0.0,0.0,0.0,0.0,0.0,0.0,0.0,0.0,0.0,0.0,0.0,0.0,0.0,0.0,0.0,0.0,0.0,0.0,0.0,0.0,0.0,0.0,0.0,0.0,0.0,0.0,0.0,0.0,0.0,0.0,0.0,0.0,0.0,0.0,0.0,0.0,0.0,0.0,0.0,0.0,0.0,0.0,0.0,0.0,0.0,0.0,0.0,0.0,0.0,0.0,0.0,0.0,0.0,0.0,0.0,0.0,0.0,0.0,0.0,0.0,0.0,0.0,0.0,0.0,0.0,0.0,0.0,0.0,0.0,0.0,0.0,0.0,0.0,0.0,0.0,0.0,0.0,0.0,0.0,0.0,0.0,0.0,0.0,0.0,0.0,0.0,0.0,0.0,0.0,0.0,0.0,0.0,0.0,0.0,0.0,0.0,0.0,0.0,0.0,0.0,0.0,0.0,0.0,0.0,0.0,0.0,0.0,0.0,0.0,0.0,0.0,0.0,0.0,0.0,0.0,0.0,0.0,0.0,0.0,0.0,0.0,0.0,0.0,0.0,0.0,0.0,0.0,0.0,0.0,0.0,0.0,0.0,0.0,0.0,0.0,0.0,0.0,0.0,0.0,0.0,0.0,0.0,0.0,0.0,0.0,0.0,0.0,0.0,0.0,0.0,0.0,0.0,0.0,0.0,0.0,0.0,0.0,0.0,0.0,0.0,0.0,0.0,0.0,0.0,0.0,0.0,0.0,0.0,0.0,0.0,0.0,0.0,0.0,0.0,0.0,0.0,0.0,0.0,0.0,0.0,0.0,0.0,0.0,0.0,0.0,0.0,0.0,0.0,0.0,0.0,0.0,0.0,0.0,0.0,0.0,0.0,0.0,0.0,0.0,0.0,0.0,0.0,0.0,0.0,0.0,0.0,0.0,0.0,0.0,0.0,0.0,0.0,0.0,0.0,0.0,0.0,0.0,0.0,0.0,0.0,0.0,0.0,0.0,0.0,0.0,0.0,0.0,0.0,0.0,0.0,0.0,0.0,0.0,0.0,0.0,0.0,0.0,0.0,0.0,0.0,0.0,0.0,0.0,0.0,0.0,0.0,0.0,0.0,0.0,0.0,0.0,0.0,0.0,0.0,0.0,0.0,0.0,0.0,0.0,0.0,0.0,0.0,0.0,0.0,0.0,0.0,0.0,0.0,0.0,0.0,0.0,0.0,0.0,0.0,0.0,0.0,0.0,0.0,0.0,0.0,0.0,0.0,0.0,0.0,0.0,0.0,0.0,0.0,0.0,0.0,0.0,0.0,0.0,0.0,0.0,0.0,0.0,0.0,0.0,0.0,0.0,0.0,0.0,0.0,0.0,0.0,0.0,0.0,0.0,0.0,0.0,0.0,0.0,0.0,0.0,0.0,0.0,0.0,0.0,0.0,0.0,0.0,0.0,0.0,0.0,0.0,0.0,0.0,0.0,0.0,0.0,0.0,0.0,0.0,0.0,0.0,0.0,0.0,0.0,0.0,0.0,0.0,0.0,0.0,0.0,0.0,0.0,0.0,0.0,0.0,0.0,0.0,0.0,0.0,0.0,0.0,0.0,0.0,0.0,0.0,0.0,0.0,0.0,0.0,0.0,0.0,0.0,0.0,0.0,0.0,0.0,0.0,0.0,0.0,0.0,0.0,0.0,0.0,0.0,0.0,0.0,0.0,0.0,0.0,0.0,0.0,0.0,0.0,0.0,0.0,0.0,0.0,0.0,0.0,0.0,0.0,0.0,0.0,0.0,0.0,0.0,0.0,0.0,0.0,0.0,0.0,0.0,0.0,0.0,0.0,0.0,0.0,0.0,0.0,0.0,0.0,0.0,0.0,0.0,0.0,0.0,0.0,0.0,0.0,0.0,0.0,0.0,0.0,0.0,0.0,0.0,0.0,0.0,0.0,0.0,0.0,0.0,0.0,0.0,0.0,0.0,0.0,0.0,0.0,0.0,0.0,0.0,0.0,0.0,0.0,0.0,0.0,0.0,0.0,0.0,0.0,0.0,0.0,0.0,0.0,0.0,0.0,0.0,0.0,0.0,0.0,0.0,0.0,0.0,0.0,0.0,0.0,0.0,0.0,0.0,0.0,0.0,0.0,0.0,0.0,0.0,0.0,0.0,1.1595,0.0,0.0,0.0,0.0,0.0,0.0,0.0,0.0,0.0,0.0,0.0,0.0,0.0,0.0,0.0,0.0,0.0,0.0,0.0,0.0,0.0,0.0,0.0,0.0,0.0,0.0,0.0,0.0,0.0,0.0,0.0,0.0,0.0,0.0,0.0,0.0,0.0,0.0,0.0,0.0,0.0,0.0,0.0,0.0,0.0,0.0,0.0,0.0,0.0,0.0,0.0,0.0,0.0,0.0,0.0,0.0,0.0,0.0,0.0,0.0,0.0,0.0,0.0,0.0,0.0,0.0,0.0,0.0,0.0,0.0,0.0,0.0,0.0,0.0,0.0,0.0,0.0,0.0,0.0,0.0,0.0,0.0,0.0,0.0,0.0,0.0,0.0,0.0,0.0,0.0,0.0,0.0,0.0,0.0,0.0,0.0,0.0,0.0,0.0,0.0,0.0,0.0,0.0,0.0,0.0,0.0,0.0,0.0,0.0,0.0,1.0639,1.0672,1.0672,1.0802,1.096,0.0,0.0,0.0,0.0,0.0,0.0,0.0,0.0,0.0,0.0,0.0,0.0,0.0,0.0,0.0,0.0,0.0,0.0,0.0,0.0,0.0,0.0,0.0,0.0,0.0,0.0,0.0,0.0,0.0,0.0,0.0,0.0,0.0,0.0,0.0,0.0,0.0,0.0,0.0,0.0,0.0,0.0,0.0,0.0,0.0,0.0,0.0,0.0,0.0,0.0,0.0,0.0,0.0,0.0,0.0,0.0,0.0,0.0,0.0,0.0,0.0,0.0,0.0,0.0,0.0,0.0,0.0,0.0,0.0,0.0,0.0,0.0,0.0,0.0,0.0,0.0,0.0,0.0,0.0,0.0,0.0,0.0,0.0,0.0,0.0,0.0,0.0,0.0,0.0,0.0,0.0,0.0,0.0,0.0,0.0,0.0,0.0,0.0,0.0,0.0,0.0,0.0,0.0,0.0,0.0,0.0,0.0,0.0,0.0,0.0,0.0,0.0,0.9827,0.9872,1.0156,0.0,0.0,0.0,0.0,0.0,0.0,0.0,0.0,0.0,0.0,0.0,0.0,0.0,0.0,0.0,0.0,0.0,0.0,0.0,0.0,0.0,0.0,0.0,0.0,0.0,0.0,0.0,0.0,0.0,0.0,0.0,0.0,0.0,0.0,0.0,0.0,0.0,0.0,0.0,0.0,0.0,0.0,0.0,0.0,0.0,0.0,0.0,0.0,0.0,0.0,0.0,0.0,0.0,0.0,0.0,0.0,0.0,0.0,0.0,0.0,0.0,0.0,0.0,0.0,0.0,0.0,0.0,0.0,0.0,0.0,0.0,0.0,0.0,0.0,0.0,0.0,0.0,0.0,0.0,0.0,0.0,0.0,0.0,0.0,0.0,0.0,0.0,0.0,0.0,0.0,0.0,0.0,0.0,0.0,0.0,0.0,0.0,0.0,0.0,0.0,0.0,0.0,0.0,0.0,0.0,0.0,0.0,0.0,0.0,0.0,0.7456,0.7485,0.726,0.0,0.7044,0.0,0.0,0.0,0.0,0.0,0.0,0.0,0.0,0.0,0.0,0.0,0.0,0.0,0.0,0.0,0.0,0.0,0.0,0.0,0.0,0.0,0.0,0.0,0.0,0.0,0.0,0.0,0.0,0.0,0.0,0.0,0.0,0.0,0.0,0.0,0.0,0.0,0.0,0.0,0.0,0.0,0.0,0.0,0.0,0.0,0.0,0.0,0.0,0.0,0.0,0.0,0.0,0.0,0.0,0.0,0.0,0.0,0.0,0.0,0.0,0.0,0.0,0.0,0.0,0.0,0.0,0.0,0.0,0.0,0.0,0.0,0.0,0.0,0.0,0.0,0.0,0.0,0.0,0.0,0.0,0.0,0.0,0.0,0.0,0.0,0.0,0.0,0.0,0.0,0.0,0.0,0.0,0.0,0.0,0.0,0.0,0.0,0.0,0.0,0.0,0.0,0.0,0.0,0.0,0.0,0.0,0.0,0.0,0.0,0.0,0.6702,0.6935,0.6709,0.6558,0.0,0.0,0.0,0.0,0.0,0.0,0.0,0.0,0.0,0.0,0.0,0.0,0.0,0.0,0.0,0.0,0.0,0.0,0.0,0.0,0.0,0.0,0.0,0.0,0.0,0.0,0.0,0.0,0.0,0.0,0.0,0.0,0.0,0.0,0.0,0.0,0.0,0.0,0.0,0.0,0.0,0.0,0.0,0.0,0.0,0.0,0.0,0.0,0.0,0.0,0.0,0.0,0.0,0.0,0.0,0.0,0.0,0.0,0.0,0.0,0.0,0.0,0.0,0.0,0.0,0.0,0.0,0.0,0.0,0.0,0.0,0.0,0.0,0.0,0.0,0.0,0.0,0.0,0.0,0.0,0.0,0.0,0.0,0.0,0.0,0.0,0.0,0.0,0.0,0.0,0.0,0.0,0.0,0.0,0.0,0.0,0.0,0.0,0.0,0.0,0.0,0.0,0.0,0.0,0.0,0.0,0.0,0.0,0.0,0.0,0.6495,0.6172,0.5971,0.5581,0.5274,0.5159,0.0,0.0,0.0,0.0,0.0,0.0,0.0,0.0,0.0,0.0,0.0,0.0,0.0,0.0,0.0,0.0,0.0,0.0,0.0,0.0,0.0,0.0,0.0,0.0,0.0,0.0,0.0,0.0,0.0,0.0,0.0,0.0,0.0,0.0,0.0,0.0,0.0,0.0,0.0,0.0,0.0,0.0,0.0,0.0,0.0,0.0,0.0,0.0,0.0,0.0,0.0,0.0,0.0,0.0,0.0,0.0,0.0,0.0,0.0,0.0,0.0,0.0,0.0,0.0,0.0,0.0,0.0,0.0,0.0,0.0,0.0,0.0,0.0,0.0,0.0,0.0,0.0,0.0,0.0,0.0,0.0,0.0,0.0,0.0,0.0,0.0,0.0,0.0,0.0,0.0,0.0,0.0,0.0,0.0,0.0,0.0,0.0,0.0,0.0,0.0,0.0,0.0,0.0,0.0,0.0,0.0,0.0,0.0,0.6611,0.6386,0.5639,0.4344,0.3206,0.2408,0.0,0.0,0.0,0.0,0.0,0.0,0.0,0.0,0.0,0.0,0.0,0.0,0.0,0.0,0.0,0.0,0.0,0.0,0.0,0.0,0.0,0.0,0.0,0.0,0.0,0.0,0.0,0.0,0.0,0.0,0.0,0.0,0.0,0.0,0.0,0.0,0.0,0.0,0.0,0.0,0.0,0.0,0.0,0.0,0.0,0.0,0.0,0.0,0.0,0.0,0.0,0.0,0.0,0.0,0.0,0.0,0.0,0.0,0.0,0.0,0.0,0.0,0.0,0.0,0.0,0.0,0.0,0.0,0.0,0.0,0.0,0.0,0.0,0.0,0.0,0.0,0.0,0.0,0.0,0.0,0.0,0.0,0.0,0.0,0.0,0.0,0.0,0.0,0.0,0.0,0.0,0.0,0.0,0.0,0.0,0.0,0.0,0.0,0.0,0.0,0.0,0.0,0.0,0.0,0.0,0.0,0.0,0.0,0.0,0.5039,0.4702,0.3926,0.2708,0.2258,0.192,0.0,0.0,0.0,0.0,0.0,0.0,0.0,0.0,0.0,0.0,0.0,0.0,0.0,0.0,0.0,0.0,0.0,0.0,0.0,0.0,0.0,0.0,0.0,0.0,0.0,0.0,0.0,0.0,0.0,0.0,0.0,0.0,0.0,0.0,0.0,0.0,0.0,0.0,0.0,0.0,0.0,0.0,0.0,0.0,0.0,0.0,0.0,0.0,0.0,0.0,0.0,0.0,0.0,0.0,0.0,0.0,0.0,0.0,0.0,0.0,0.0,0.0,0.0,0.0,0.0,0.0,0.0,0.0,0.0,0.0,0.0,0.0,0.0,0.0,0.0,0.0,0.0,0.0,0.0,0.0,0.0,0.0,0.0,0.0,0.0,0.0,0.0,0.0,0.0,0.0,0.0,0.0,0.0,0.0,0.0,0.0,0.0,0.0,0.0,0.0,0.0,0.0,0.0,0.0,0.0,0.0,0.0,0.0,0.0,0.3357,0.0,0.1454,0.1232,0.0784,0.056,0.0,0.0,0.0,0.0,0.0,0.0,0.0,0.0,0.0,0.0,0.0,0.0,0.0,0.0,0.0,0.0,0.0,0.0,0.0,0.0,0.0,0.0,0.0,0.0,0.0,0.0,0.0,0.0,0.0,0.0,0.0,0.0,0.0,0.0,0.0,0.0,0.0,0.0,0.0,0.0,0.0,0.0,0.0,0.0,0.0,0.0,0.0,0.0,0.0,0.0,0.0,0.0,0.0,0.0,0.0,0.0,0.0,0.0,0.0,0.0,0.0,0.0,0.0,0.0,0.0,0.0,0.0,0.0,0.0,0.0,0.0,0.0,0.0,0.0,0.0,0.0,0.0,0.0,0.0,0.0,0.0,0.0,0.0,0.0,0.0,0.0,0.0,0.0,0.0,0.0,0.0,0.0,0.0,0.0,0.0,0.0,0.0,0.0,0.0,0.0,0.0,0.0,0.0,0.0,0.0,0.0,0.0,0.0,0.2014,0.1679,-0.1119,-0.1681,-0.0112,-0.1346,-0.2019,0.0,0.0,0.0,0.0,0.0,0.0,0.0,0.0,0.0,0.0,0.0,0.0,0.0,0.0,0.0,0.0,0.0,0.0,0.0,0.0,0.0,0.0,0.0,0.0,0.0,0.0,0.0,0.0,0.0,0.0,0.0,0.0,0.0,0.0,0.0,0.0,0.0,0.0,0.0,0.0,0.0,0.0,0.0,0.0,0.0,0.0,0.0,0.0,0.0,0.0,0.0,0.0,0.0,0.0,0.0,0.0,0.0,0.0,0.0,0.0,0.0,0.0,0.0,0.0,0.0,0.0,0.0,0.0,0.0,0.0,0.0,0.0,0.0,0.0,0.0,0.0,0.0,0.0,0.0,0.0,0.0,0.0,0.0,0.0,0.0,0.0,0.0,0.0,0.0,0.0,0.0,0.0,0.0,0.0,0.0,0.0,0.0,0.0,0.0,0.0,0.0,0.0,0.0,0.0,0.0,0.0,0.0,0.0,0.0,-0.0672,-0.213,-0.2467,-0.157,-0.2132,-0.2468,0.0,0.0,0.0,0.0,0.0,0.0,0.0,0.0,0.0,0.0,0.0,0.0,0.0,0.0,0.0,0.0,0.0,0.0,0.0,0.0,0.0,0.0,0.0,0.0,0.0,0.0,0.0,0.0,0.0,0.0,0.0,0.0,0.0,0.0,0.0,0.0,0.0,0.0,0.0,0.0,0.0,0.0,0.0,0.0,0.0,0.0,0.0,0.0,0.0,0.0,0.0,0.0,0.0,0.0,0.0,0.0,0.0,0.0,0.0,0.0,0.0,0.0,0.0,0.0,0.0,0.0,0.0,0.0,0.0,0.0,0.0,0.0,0.0,0.0,0.0,0.0,0.0,0.0,0.0,0.0,0.0,0.0,0.0,0.0,0.0,0.0,0.0,0.0,0.0,0.0,0.0,0.0,0.0,0.0,0.0,0.0,0.0,0.0,0.0,0.0,0.0,0.0,0.0,0.0,0.0,0.0,0.0,0.0,0.0,-0.2132,-0.2805,-0.2917,-0.2356,-0.2692,-0.2805,-0.2693,0.0,0.0,0.0,0.0,0.0,0.0,0.0,0.0,0.0,0.0,0.0,0.0,0.0,0.0,0.0,0.0,0.0,0.0,0.0,0.0,0.0,0.0,0.0,0.0,0.0,0.0,0.0,0.0,0.0,0.0,0.0,0.0,0.0,0.0,0.0,0.0,0.0,0.0,0.0,0.0,0.0,0.0,0.0,0.0,0.0,0.0,0.0,0.0,0.0,0.0,0.0,0.0,0.0,0.0,0.0,0.0,0.0,0.0,0.0,0.0,0.0,0.0,0.0,0.0,0.0,0.0,0.0,0.0,0.0,0.0,0.0,0.0,0.0,0.0,0.0,0.0,0.0,0.0,0.0,0.0,0.0,0.0,0.0,0.0,0.0,0.0,0.0,0.0,0.0,0.0,0.0,0.0,0.0,0.0,0.0,0.0,0.0,0.0,0.0,0.0,0.0,0.0,0.0,0.0,0.0,0.0,0.0,0.0,-0.2806,-0.3365,-0.3365,-0.2806,-0.3027,-0.3027,0.0,0.0,0.0,0.0,0.0,0.0,0.0,0.0,0.0,0.0,0.0,0.0,0.0,0.0,0.0,0.0,0.0,0.0,0.0,0.0,0.0,0.0,0.0,0.0,0.0,0.0,0.0,0.0,0.0,0.0,0.0,0.0,0.0,0.0,0.0,0.0,0.0,0.0,0.0,0.0,0.0,0.0,0.0,0.0,0.0,0.0,0.0,0.0,0.0,0.0,0.0,0.0,0.0,0.0,0.0,0.0,0.0,0.0,0.0,0.0,0.0,0.0,0.0,0.0,0.0,0.0,0.0,0.0,0.0,0.0,0.0,0.0,0.0,0.0,0.0,0.0,0.0,0.0,0.0,0.0,0.0,0.0,0.0,0.0,0.0,0.0,0.0,0.0,0.0,0.0,0.0,0.0,0.0,0.0,0.0,0.0,0.0,0.0,0.0,0.0,0.0,0.0,0.0,0.0,0.0,0.0,0.0,0.0,0.0,-0.4035,-0.3699,-0.3362,-0.3027,-0.325,-0.3475,0.0,0.0,0.0,0.0,0.0,0.0,0.0,0.0,0.0,0.0,0.0,0.0,0.0,0.0,0.0,0.0,0.0,0.0,0.0,0.0,0.0,0.0,0.0,0.0,0.0,0.0,0.0,0.0,0.0,0.0,0.0,0.0,0.0,0.0,0.0,0.0,0.0,0.0,0.0,0.0,0.0,0.0,0.0,0.0,0.0,0.0,0.0,0.0,0.0,0.0,0.0,0.0,0.0,0.0,0.0,0.0,0.0,0.0,0.0,0.0,0.0,0.0,0.0,0.0,0.0,0.0,0.0,0.0,0.0,0.0,0.0,0.0,0.0,0.0,0.0,0.0,0.0,0.0,0.0,0.0,0.0,0.0,0.0,0.0,0.0,0.0,0.0,0.0,0.0,0.0,0.0,0.0,0.0,0.0,0.0,0.0,0.0,0.0,0.0,0.0,0.0,0.0,0.0,0.0,0.0,0.0,0.0,0.0,-0.3695,-0.448,-0.4592,-0.4482,-0.403,-0.381,-0.3587,0.0,0.0,0.0,0.0,0.0,0.0,0.0,0.0,0.0,0.0,0.0,0.0,0.0,0.0,0.0,0.0,0.0,0.0,0.0,0.0,0.0,0.0,0.0,0.0,0.0,0.0,0.0,0.0,0.0,0.0,0.0,0.0,0.0,0.0,0.0,0.0,0.0,0.0,0.0,0.0,0.0,0.0,0.0,0.0,0.0,0.0,0.0,0.0,0.0,0.0,0.0,0.0,0.0,0.0,0.0,0.0,0.0,0.0,0.0,0.0,0.0,0.0,0.0,0.0,0.0,0.0,0.0,0.0,0.0,0.0,0.0,0.0,0.0,0.0,0.0,0.0,0.0,0.0,0.0,0.0,0.0,0.0,0.0,0.0,0.0,0.0,0.0,0.0,0.0,0.0,0.0,0.0,0.0,0.0,0.0,0.0,0.0,0.0,0.0,0.0,0.0,0.0,0.0,0.0,0.0,0.0,0.0,0.0,-0.4029,-0.4704,-0.5485,-0.5822,-0.5483,-0.4369,-0.3811,0.0,0.0,0.0,0.0,0.0,0.0,0.0,0.0,0.0,0.0,0.0,0.0,0.0,0.0,0.0,0.0,0.0,0.0,0.0,0.0,0.0,0.0,0.0,0.0,0.0,0.0,0.0,0.0,0.0,0.0,0.0,0.0,0.0,0.0,0.0,0.0,0.0,0.0,0.0,0.0,0.0,0.0,0.0,0.0,0.0,0.0,0.0,0.0,0.0,0.0,0.0,0.0,0.0,0.0,0.0,0.0,0.0,0.0,0.0,0.0,0.0,0.0,0.0,0.0,0.0,0.0,0.0,0.0,0.0,0.0,0.0,0.0,0.0,0.0,0.0,0.0,0.0,0.0,0.0,0.0,0.0,0.0,0.0,0.0,0.0,0.0,0.0,0.0,0.0,0.0,0.0,0.0,0.0,0.0,0.0,0.0,0.0,0.0,0.0,0.0,0.0,0.0,0.0,0.0,0.0,0.0,0.0,0.0,-0.5258,-0.5926,-0.5708,-0.5706,-0.6151,-0.5371,-0.5037,0.0,0.0,0.0,0.0,0.0,0.0,0.0,0.0,0.0,0.0,0.0,0.0,0.0,0.0,0.0,0.0,0.0,0.0,0.0,0.0,0.0,0.0,0.0,0.0,0.0,0.0,0.0,0.0,0.0,0.0,0.0,0.0,0.0,0.0,0.0,0.0,0.0,0.0,0.0,0.0,0.0,0.0,0.0,0.0,0.0,0.0,0.0,0.0,-0.6723,0.0,0.0,0.0,0.0,0.0,0.0,0.0,0.0,0.0,0.0,0.0,0.0,0.0,0.0,0.0,0.0,0.0,0.0,0.0,0.0,0.0,0.0,0.0,0.0,0.0,0.0,0.0,0.0,0.0,0.0,0.0,0.0,0.0,0.0,0.0,0.0,0.0,0.0,0.0,0.0,0.0,0.0,0.0,0.0,0.0,0.0,0.0,0.0,0.0,0.0,0.0,0.0,0.0,0.0,0.0,0.0,0.0,0.0,0.0,-0.5926,-0.6262,-0.6262,-0.6374,-0.671,-0.6374,-0.5929,0.0,0.0,0.0,0.0,0.0,0.0,0.0,0.0,0.0,0.0,0.0,0.0,0.0,0.0,0.0,0.0,0.0,0.0,0.0,0.0,0.0,0.0,0.0,0.0,0.0,0.0,0.0,0.0,0.0,0.0,0.0,0.0,0.0,0.0,0.0,0.0,0.0,0.0,0.0,0.0,0.0,0.0,0.0,0.0,0.0,0.0,0.0,0.0,0.0,0.0,0.0,0.0,0.0,0.0,0.0,0.0,0.0,0.0,0.0,0.0,0.0,0.0,0.0,0.0,0.0,0.0,0.0,0.0,0.0,0.0,0.0,0.0,0.0,0.0,0.0,0.0,0.0,0.0,0.0,0.0,0.0,0.0,0.0,0.0,0.0,0.0,0.0,0.0,0.0,0.0,0.0,0.0,0.0,0.0,0.0,0.0,0.0,0.0,0.0,0.0,0.0,0.0,0.0,0.0,0.0,0.0,0.0,-0.5926,-0.6262,-0.6485,-0.6932,-0.7268,-0.7154,-0.7268,-0.6818,-0.5929,0.0,0.0,0.0,0.0,0.0,0.0,0.0,0.0,0.0,0.0,0.0,0.0,0.0,0.0,0.0,0.0,0.0,0.0,0.0,0.0,0.0,0.0,0.0,0.0,0.0,0.0,0.0,0.0,0.0,0.0,0.0,0.0,0.0,0.0,0.0,0.0,0.0,0.0,-0.6751,-0.6058,0.0,0.0,0.0,0.0,0.0,0.0,0.0,0.0,-0.8276,0.0,0.0,0.0,0.0,0.0,0.0,0.0,0.0,0.0,0.0,0.0,0.0,0.0,0.0,0.0,0.0,0.0,0.0,0.0,0.0,0.0,0.0,0.0,0.0,0.0,0.0,0.0,0.0,0.0,0.0,0.0,0.0,0.0,0.0,0.0,0.0,0.0,0.0,0.0,0.0,0.0,0.0,0.0,0.0,0.0,0.0,0.0,0.0,0.0,0.0,0.0,0.0,0.0,0.0,0.0,0.0,-0.6151,-0.671,-0.7041,-0.7043,-0.7382,-0.7382,-0.7265,-0.7382,-0.7712,-0.7928,0.0,0.0,0.0,0.0,0.0,0.0,0.0,0.0,0.0,0.0,0.0,0.0,0.0,0.0,0.0,0.0,0.0,0.0,0.0,0.0,0.0,0.0,0.0,0.0,0.0,0.0,0.0,0.0,0.0,0.0,0.0,0.0,0.0,0.0,0.0,0.0,0.0,0.0,0.0,-0.8094,-0.7973,0.0,0.0,0.0,0.0,0.0,0.0,0.0,0.0,-1.0339,0.0,0.0,0.0,0.0,0.0,0.0,0.0,0.0,0.0,0.0,0.0,0.0,0.0,0.0,0.0,0.0,0.0,0.0,0.0,0.0,0.0,0.0,0.0,0.0,0.0,0.0,0.0,0.0,0.0,0.0,0.0,0.0,0.0,0.0,0.0,0.0,0.0,0.0,0.0,0.0,0.0,0.0,0.0,0.0,0.0,0.0,0.0,0.0,0.0,0.0,0.0,0.0,0.0,0.0,0.0,-0.7601,-0.749,-0.7493,-0.7496,-0.7715,-0.7712,-0.7598,-0.7712,-0.8266,0.0,0.0,0.0,0.0,0.0,0.0,0.0,0.0,0.0,0.0,0.0,0.0,0.0,0.0,0.0,0.0,0.0,0.0,0.0,0.0,0.0,0.0,0.0,0.0,0.0,0.0,0.0,0.0,0.0,0.0,0.0,0.0,0.0,0.0,0.0,0.0,0.0,0.0,0.0,0.0,-0.8183,-0.9071,-1.0059,0.0,0.0,0.0,0.0,0.0,0.0,-1.1755,-1.2223,0.0,0.0,0.0,0.0,0.0,0.0,0.0,0.0,0.0,0.0,0.0,0.0,0.0,0.0,0.0,0.0,0.0,0.0,0.0,0.0,0.0,0.0,0.0,0.0,0.0,0.0,0.0,0.0,0.0,0.0,0.0,0.0,0.0,0.0,0.0,0.0,0.0,0.0,0.0,0.0,0.0,0.0,0.0,0.0,0.0,0.0,0.0,0.0,0.0,0.0,0.0,0.0,0.0,0.0,0.0,-0.8823,-0.8051,-0.7718,-0.7943,-0.8048,-0.8045,-0.8045,-0.8045,-0.8592,0.0,0.0,0.0,0.0,0.0,0.0,0.0,0.0,0.0,0.0,0.0,0.0,0.0,0.0,0.0,0.0,0.0,0.0,0.0,0.0,0.0,0.0,0.0,0.0,0.0,0.0,0.0,0.0,0.0,0.0,0.0,0.0,0.0,0.0,0.0,0.0,0.0,0.0,0.0,0.0,0.0,-0.979,-1.0651,-1.0983,0.0,0.0,0.0,0.0,-1.3325,-1.3655,0.0,0.0,0.0,0.0,0.0,0.0,0.0,0.0,0.0,0.0,0.0,0.0,0.0,0.0,0.0,0.0,0.0,0.0,0.0,0.0,0.0,0.0,0.0,0.0,0.0,0.0,0.0,0.0,0.0,0.0,0.0,0.0,0.0,0.0,0.0,0.0,0.0,0.0,0.0,0.0,0.0,0.0,0.0,0.0,0.0,0.0,0.0,0.0,0.0,0.0,0.0,0.0,0.0,0.0,0.0,0.0,-0.8813,-0.8263,-0.8048,-0.8276,-0.8377,-0.8263,-0.8045,-0.8266,-0.8816,0.0,0.0,0.0,0.0,0.0,0.0,0.0,0.0,0.0,0.0,0.0,0.0,0.0,0.0,0.0,0.0,0.0,0.0,0.0,0.0,0.0,0.0,0.0,0.0,0.0,0.0,0.0,0.0,0.0,0.0,0.0,0.0,0.0,0.0,0.0,0.0,0.0,0.0,0.0,0.0,0.0,-1.1914,-0.9525,-1.1333,-1.3748,0.0,0.0,-1.3335,-1.3632,-1.4768,0.0,0.0,0.0,0.0,0.0,0.0,0.0,0.0,0.0,0.0,0.0,0.0,0.0,0.0,0.0,0.0,0.0,0.0,0.0,0.0,0.0,0.0,0.0,0.0,0.0,0.0,0.0,0.0,0.0,0.0,0.0,0.0,0.0,0.0,0.0,0.0,0.0,0.0,0.0,0.0,0.0,0.0,0.0,0.0,0.0,0.0,0.0,0.0,0.0,0.0,0.0,0.0,0.0,0.0,0.0,-0.9144,-0.9471,-0.8706,-0.838,-0.8605,-0.8716,-0.8716,-0.8494,-0.8602,-0.9147,0.0,0.0,0.0,0.0,0.0,0.0,0.0,0.0,0.0,0.0,0.0,0.0,0.0,0.0,0.0,0.0,0.0,0.0,0.0,0.0,0.0,0.0,0.0,0.0,0.0,0.0,0.0,0.0,0.0,0.0,0.0,0.0,0.0,0.0,0.0,0.0,0.0,0.0,0.0,0.0,0.0,0.0,-1.1949,-1.3209,0.0,0.0,0.0,-1.5796,-1.6132,0.0,0.0,0.0,0.0,0.0,0.0,0.0,0.0,0.0,0.0,0.0,0.0,0.0,0.0,0.0,0.0,0.0,0.0,0.0,0.0,0.0,0.0,0.0,0.0,0.0,0.0,0.0,0.0,0.0,0.0,0.0,0.0,0.0,0.0,0.0,0.0,0.0,0.0,0.0,0.0,0.0,0.0,0.0,0.0,0.0,0.0,0.0,0.0,0.0,0.0,0.0,0.0,0.0,0.0,0.0,0.0,0.0,-1.0672,-0.9908,-0.9699,-1.004,-0.9596,-0.9372,-0.9372,-0.9047,0.0,0.0,0.0,0.0,0.0,0.0,0.0,0.0,0.0,0.0,0.0,0.0,0.0,0.0,0.0,0.0,0.0,0.0,0.0,0.0,0.0,0.0,0.0,0.0,0.0,0.0,0.0,-0.7721,0.0,0.0,0.0,0.0,0.0,0.0,0.0,0.0,0.0,0.0,0.0,0.0,0.0,0.0,-1.455,-1.4955,-1.547,-1.6077,0.0,0.0,-1.8381,-1.8687,-1.8885,-1.9138,0.0,0.0,0.0,0.0,0.0,0.0,0.0,0.0,0.0,0.0,0.0,0.0,0.0,0.0,0.0,0.0,0.0,0.0,0.0,0.0,0.0,0.0,0.0,0.0,0.0,0.0,0.0,0.0,0.0,0.0,0.0,0.0,0.0,0.0,0.0,0.0,0.0,0.0,0.0,0.0,0.0,0.0,0.0,0.0,0.0,0.0,0.0,0.0,0.0,0.0,0.0,0.0,0.0,0.0,-1.2729,-1.2267,-1.2186,-1.2436,-1.3242,-1.1568,-1.0566,-1.0566,-0.9478,-0.894,0.0,0.0,0.0,0.0,0.0,0.0,0.0,0.0,0.0,0.0,0.0,0.0,0.0,0.0,0.0,0.0,0.0,0.0,0.0,0.0,0.0,0.0,0.0,0.0,0.0,0.0,0.0,0.0,0.0,0.0,0.0,0.0,0.0,0.0,0.0,0.0,0.0,0.0,0.0,0.0,0.0,-1.7364,-1.7364,-1.7589,-1.7888,0.0,-1.9238,-2.0172,-2.047,-2.0528,-2.0652,-2.0972,0.0,0.0,0.0,0.0,0.0,0.0,0.0,0.0,0.0,0.0,0.0,0.0,0.0,0.0,0.0,0.0,0.0,0.0,0.0,0.0,0.0,0.0,0.0,0.0,0.0,0.0,0.0,0.0,0.0,0.0,0.0,0.0,0.0,0.0,0.0,0.0,0.0,0.0,0.0,0.0,0.0,0.0,0.0,0.0,0.0,0.0,0.0,0.0,0.0,0.0,0.0,0.0,0.0,-1.3171,-1.294,-1.263,-1.2536,-1.2876,-1.2096,-1.1437,-1.0672,-1.0241,-0.9699,0.0,0.0,0.0,0.0,0.0,0.0,0.0,0.0,0.0,0.0,0.0,0.0,0.0,0.0,0.0,0.0,0.0,0.0,0.0,0.0,0.0,0.0,0.0,0.0,0.0,0.0,0.0,0.0,-1.0761,-1.0692,-1.0692,0.0,0.0,0.0,0.0,0.0,0.0,0.0,0.0,0.0,0.0,-1.7869,-1.799,-1.8759,0.0,0.0,-2.099,-2.1744,-2.208,-2.2077,-2.2255,-2.2484,-2.2402,0.0,0.0,0.0,0.0,0.0,0.0,0.0,0.0,0.0,0.0,0.0,0.0,0.0,0.0,0.0,0.0,0.0,0.0,0.0,0.0,0.0,0.0,0.0,0.0,0.0,0.0,0.0,0.0,0.0,0.0,0.0,0.0,0.0,0.0,0.0,0.0,0.0,0.0,0.0,0.0,0.0,0.0,0.0,0.0,0.0,0.0,0.0,0.0,0.0,0.0,0.0,0.0,-1.4051,-1.4051,-1.329,-1.3073,-1.3393,-1.2413,-1.1651,-1.1219,-1.0566,-0.9805,0.0,0.0,0.0,0.0,0.0,0.0,0.0,0.0,0.0,0.0,0.0,0.0,0.0,0.0,0.0,0.0,0.0,0.0,0.0,0.0,0.0,0.0,0.0,0.0,0.0,0.0,0.0,0.0,-1.1209,-1.1436,-1.1669,0.0,0.0,0.0,0.0,0.0,0.0,0.0,0.0,0.0,0.0,-1.872,-1.8836,-2.0055,-2.1137,-2.1635,-2.2638,-2.3365,-2.3678,-2.3792,-2.3855,-2.4061,0.0,0.0,0.0,0.0,0.0,0.0,0.0,0.0,0.0,0.0,0.0,0.0,0.0,0.0,0.0,0.0,0.0,0.0,0.0,0.0,0.0,0.0,0.0,0.0,0.0,0.0,0.0,-0.6942,0.0,0.0,-0.728,0.0,0.0,0.0,0.0,0.0,0.0,0.0,0.0,0.0,0.0,0.0,0.0,0.0,0.0,0.0,0.0,0.0,0.0,0.0,0.0,0.0,0.0,-1.5779,-1.5779,-1.4702,-1.4702,-1.5672,-1.2521,-1.1324,-1.2195,-1.0135,-0.8937,-0.8937,0.0,0.0,0.0,0.0,0.0,0.0,0.0,0.0,0.0,0.0,0.0,0.0,0.0,0.0,0.0,0.0,0.0,0.0,0.0,0.0,0.0,0.0,0.0,0.0,0.0,0.0,-1.1228,-1.2068,-1.2976,0.0,0.0,0.0,0.0,0.0,0.0,0.0,0.0,0.0,-1.8417,-1.9559,-2.0208,-2.0208,-2.1462,-2.2654,-2.2966,-2.4251,-2.527,-2.5489,-2.5498,-2.5516,0.0,0.0,0.0,0.0,0.0,0.0,0.0,0.0,0.0,0.0,0.0,0.0,0.0,0.0,0.0,0.0,0.0,0.0,0.0,0.0,0.0,0.0,0.0,0.0,0.0,0.0,0.0,-0.8414,-0.771,0.0,0.0,0.0,0.0,0.0,0.0,0.0,0.0,0.0,0.0,0.0,-0.8141,-0.8019,0.0,0.0,0.0,0.0,0.0,0.0,0.0,0.0,0.0,0.0,0.0,0.0,-1.5885,-1.5891,-1.5565,-1.5458,-1.5885,-1.4051,-1.2852,-1.2417,-1.0895,-0.9699,-0.8937,0.0,0.0,0.0,0.0,0.0,0.0,0.0,0.0,0.0,0.0,0.0,0.0,0.0,0.0,0.0,0.0,0.0,0.0,0.0,0.0,0.0,0.0,0.0,0.0,0.0,-1.1423,0.0,0.0,0.0,0.0,0.0,0.0,0.0,0.0,0.0,0.0,-1.7985,-1.8384,-1.8477,-1.9839,-2.0833,-2.0825,-2.2978,-2.4556,0.0,0.0,0.0,0.0,0.0,0.0,0.0,0.0,0.0,0.0,0.0,0.0,0.0,-2.283,-2.1851,-2.1851,-2.2078,-2.2418,-2.241,0.0,0.0,0.0,0.0,0.0,0.0,0.0,0.0,0.0,0.0,0.0,0.0,0.0,0.0,-1.0179,-0.8491,-0.9948,0.0,0.0,0.0,0.0,0.0,0.0,0.0,0.0,-1.016,-0.9672,-0.9202,-0.8724,-0.8778,0.0,-0.9236,-0.9496,0.0,0.0,0.0,0.0,0.0,0.0,0.0,0.0,-1.5885,-1.5891,-1.5458,-1.5458,-1.5785,-1.4374,-1.3181,-1.2413,-1.0895,-0.9699,-0.8937,-0.8937,-0.9482,0.0,0.0,0.0,0.0,0.0,0.0,0.0,0.0,0.0,0.0,0.0,0.0,0.0,0.0,0.0,0.0,0.0,0.0,0.0,0.0,0.0,0.0,0.0,-1.1533,0.0,0.0,0.0,0.0,0.0,0.0,0.0,0.0,0.0,-1.8377,-1.8947,-1.9431,-1.9535,-2.136,-2.2696,-2.2696,0.0,0.0,0.0,0.0,0.0,0.0,0.0,-2.7745,-2.797,-2.7862,-2.7647,-2.753,-2.6744,-2.6209,-2.6528,0.0,0.0,-2.4286,-2.3866,-2.3656,-2.3656,-2.4024,-2.4187,-2.3842,-2.3658,-2.3958,0.0,0.0,0.0,0.0,0.0,0.0,0.0,0.0,-1.3209,-1.1654,0.0,-1.1654,0.0,0.0,0.0,0.0,-1.2791,-1.2786,0.0,0.0,-1.1426,-1.076,-1.0635,-0.9566,-0.9039,-0.9155,-1.0632,-1.122,-1.0936,-1.0544,0.0,0.0,0.0,0.0,0.0,0.0,-1.5885,-1.5885,-1.4922,-1.4815,-1.5779,-1.3722,-1.2417,-1.2309,-1.0139,-0.8937,-0.8937,-0.8937,-0.9482,-1.0676,-1.1219,0.0,0.0,0.0,0.0,0.0,0.0,0.0,0.0,0.0,0.0,0.0,0.0,0.0,0.0,0.0,0.0,0.0,0.0,0.0,0.0,-1.1897,0.0,0.0,0.0,0.0,0.0,0.0,0.0,0.0,0.0,-1.9271,-1.8925,-2.0236,-2.1219,-2.1533,0.0,0.0,0.0,0.0,-2.753,-2.7853,-2.796,-2.796,-2.8291,-2.8301,-2.8301,-2.8291,0.0,0.0,-2.796,-2.7853,-2.7599,-2.6849,-2.7032,-2.7247,-2.6686,-2.562,-2.4898,-2.4889,-2.5119,-2.5305,-2.5186,-2.4539,-2.4103,-1.6318,0.0,0.0,0.0,0.0,-1.6681,-1.5702,-1.4878,-1.4826,-1.396,-1.2451,-1.3498,0.0,0.0,0.0,0.0,0.0,0.0,-1.45,-1.4018,-1.3594,-1.3209,-1.2729,-1.2299,-1.2091,-1.2087,-1.2528,-1.247,-1.2279,-1.2108,-1.2564,-1.3624,0.0,0.0,0.0,0.0,-1.5885,-1.5885,-1.5565,-1.5565,-1.5885,-1.4482,-1.2856,-1.1219,-1.0566,-0.9809,-0.8937,-0.8937,-0.9482,-1.0676,-1.0891,0.0,0.0,0.0,0.0,0.0,0.0,0.0,0.0,0.0,0.0,0.0,0.0,0.0,0.0,0.0,0.0,0.0,0.0,0.0,-1.1776,-1.2603,-1.2826,0.0,0.0,0.0,0.0,0.0,0.0,0.0,0.0,0.0,-1.9577,-2.0914,-2.1722,0.0,0.0,-2.5945,-2.5936,-2.7178,-2.8077,-2.8184,-2.8184,0.0,-2.8291,-2.8301,-2.8301,-2.8301,-2.8301,-2.8291,-2.8184,-2.8077,-2.7853,-2.7755,-2.7539,-2.7507,-2.7706,-2.7148,-2.6673,-2.6654,-2.6763,-2.6754,-2.6754,-2.6418,-2.6318,-1.7812,-1.7437,-1.7516,-1.7545,-1.7469,-1.7646,-1.7244,-1.6408,-1.6408,-1.5902,-1.5258,-1.5548,-1.6431,-1.7415,-1.6672,0.0,0.0,0.0,-1.6183,-1.5698,-1.5224,-1.4862,-1.449,-1.3764,-1.3471,-1.3579,-1.3922,-1.3749,-1.3079,-1.3994,-1.4399,-1.4418,0.0,-1.5458,-1.5885,-1.5885,-1.5885,-1.5885,-1.5885,-1.5885,-1.5885,-1.5171,-1.3759,-1.1437,-1.0891,-1.0131,-0.8937,-0.8937,-0.9265,-0.9911,-1.0524,-1.0751,0.0,0.0,0.0,0.0,0.0,0.0,0.0,0.0,0.0,0.0,0.0,-1.2482,-1.2711,0.0,0.0,0.0,-1.2005,-1.1897,-1.201,-1.2603,0.0,0.0,0.0,0.0,0.0,0.0,0.0,-1.9931,-2.004,-2.0155,-2.004,-2.1402,-2.2515,-2.2597,-2.516,-2.6943,-2.6943,0.0,-2.8301,-2.8301,-2.8301,-2.8301,-2.8301,-2.8301,-2.8301,-2.8301,-2.8301,-2.8301,-2.8291,-2.8184,-2.8087,-2.8223,-2.7999,-2.7958,-2.8682,-2.8416,-2.7886,-2.7787,-2.7787,-2.7834,-2.7996,-2.8034,-2.8143,-1.8462,-1.8668,-1.8646,-1.8279,-1.7578,-1.7843,-1.7726,-1.7485,-1.7485,-1.7485,-1.7485,-1.7485,-1.7485,-1.7485,-1.7485,0.0,-1.7485,-1.7485,-1.7485,-1.7485,-1.629,-1.5811,-1.5693,-1.45,-1.4023,-1.4023,-1.5219,-1.5092,-1.3931,-1.6028,-1.6255,-1.4768,-1.4527,-1.4832,-1.5891,-1.5885,-1.5885,-1.5885,-1.5885,-1.5885,-1.5891,-1.5869,-1.478,-1.2635,-1.1437,-1.0237,-0.9158,-0.8947,-0.8957,-0.896,-1.0096,-1.0599,-1.0196,0.0,0.0,0.0,0.0,0.0,0.0,0.0,0.0,0.0,0.0,0.0,0.0,0.0,0.0,-1.2234,-1.201,0.0,-1.2118,-1.2126,0.0,0.0,0.0,-1.7491,-2.0843,-2.0722,-2.0385,-2.0601,0.0,0.0,-2.0385,-2.1957,-2.3416,-2.4283,-2.6518,-2.8184,-2.8291,-2.8291,-2.8301,-2.8301,-2.8301,-2.8301,-2.8301,-2.8301,-2.8301,-2.8301,-2.8301,-2.8301,-2.8301,-2.8301,-2.8291,-2.8242,-2.834,-2.8623,-2.9471,-2.9143,-2.8765,-2.8382,-2.8464,-2.867,-2.8968,-2.9055,-2.9045,-2.0861,-2.0575,-2.1068,-2.0012,-1.8175,-1.7837,-1.7602,-1.7485,-1.7485,-1.7485,-1.7485,-1.7485,-1.7485,-1.7485,-1.7485,-1.7485,-1.7485,-1.7485,-1.7485,-1.7485,-1.7244,-1.7003,-1.7009,-1.6767,-1.6644,-1.6644,-1.6885,-1.6879,-1.6535,-1.6863,-1.681,-1.6263,-1.5881,-1.5868,-1.5897,-1.5885,-1.5885,-1.5885,-1.5885,-1.5885,-1.5885,-1.591,-1.516,-1.3835,-1.2635,-1.1437,-1.0351,-0.9485,-0.91,-0.9106,-0.9474,-0.9507,-0.9065,-1.1102,0.0,0.0,0.0,0.0,0.0,0.0,0.0,0.0,0.0,-1.3329,-1.3449,0.0,-1.2719,0.0,-1.213,-1.1889,-1.2238,-1.3075,0.0,0.0,-1.597,-1.8803,-2.035,-2.0578,-2.0608,-2.0385,-2.0608,-2.0716,-2.0608,-2.2725,-2.4394,-2.4608,-2.5954,-2.7295,-2.8077,-2.8301,-2.8301,-2.8301,-2.8301,-2.8301,-2.8301,-2.8301,-2.8301,-2.8301,-2.8301,-2.8301,-2.8301,-2.8301,-2.8252,-2.8269,-2.8612,-2.8945,-2.9486,-2.9545,-2.9541,-2.9682,-2.9536,-2.9332,-2.9449,-2.9244,-2.9244,-2.2,-2.2222,-2.203,-2.0938,-1.9223,-1.8635,-1.8175,-1.8064,-1.7713,-1.7485,-1.7485,-1.7485,-1.7485,-1.7485,-1.7485,-1.7485,-1.7485,-1.7485,-1.7485,-1.7485,-1.7485,-1.7485,-1.7485,-1.7485,-1.7485,-1.7485,-1.7485,-1.7529,-1.7524,-1.7389,-1.7135,-1.6875,-1.6718,-1.6453,-1.6072,-1.5946,-1.5885,-1.5885,-1.5885,-1.5885,-1.5885,-1.5885,-1.5351,-1.4277,-1.3073,-1.191,-1.0794,-0.9778,-0.9522,-1.0041,-1.0203,-1.0094,-0.9703,-1.0955,-1.104,0.0,0.0,0.0,0.0,0.0,0.0,0.0,0.0,0.0,0.0,0.0,-1.3084,-1.3084,-1.2608,-1.2367,-1.2599,-1.3665,-1.4113,-1.3584,-1.658,-1.916,-2.0589,-2.0701,-2.0723,-2.0737,-2.0852,-2.096,-2.096,-2.2191,-2.3511,-2.4505,-2.5287,-2.6291,-2.796,-2.8301,-2.8301,-2.8301,-2.8301,-2.8301,-2.8301,-2.8301,-2.8301,-2.831,-2.8447,-2.8574,-2.8574,-2.873,-2.8787,-2.8435,-2.8781,-2.9476,-3.0049,-2.9996,-2.999,-3.0342,-3.0322,-3.0176,-3.0156,-3.0042,-2.9938,-2.2971,-2.3803,-2.255,-2.1502,-2.0702,-1.9781,-1.91,-1.8648,-1.7837,-1.7485,-1.7485,-1.7485,-1.7485,-1.7485,-1.7485,-1.7485,-1.7485,-1.7485,-1.7485,-1.7485,-1.7485,-1.7485,-1.7485,-1.7485,-1.7485,-1.7485,-1.7485,-1.7485,-1.7485,-1.7485,-1.737,-1.7147,-1.7105,-1.6851,-1.6392,-1.6085,-1.5928,-1.5885,-1.5885,-1.5885,-1.5885,-1.5885,-1.5476,-1.4429,-1.3113,-1.2004,-1.1193,-0.9876,-0.9838,-1.1009,-1.1184,-1.1161,-1.0806,-1.0816,-1.0532,0.0,-0.9697,0.0,0.0,0.0,0.0,0.0,0.0,0.0,0.0,-1.3688,-1.3688,-1.3569,-1.3084,-1.284,-1.3204,-1.3904,-1.4862,-1.5855,-1.7361,-1.9023,-2.0931,-2.0931,-2.0845,-2.1203,-2.1211,-2.1211,-2.1203,-2.1318,-2.2312,-2.4283,-2.4948,-2.5954,-2.7736,-2.8301,-2.8301,-2.8301,-2.8301,-2.8301,-2.831,-2.835,-2.8398,-2.8418,-2.873,-2.8994,-2.9014,-2.9297,-2.939,-2.8745,-2.9186,-2.9937,-3.0799,-3.0581,-3.042,-3.0781,-3.083,-3.083,-3.082,-3.081,-3.0762,-2.5263,-2.5945,-2.4761,-2.3375,-2.194,-2.068,-1.9223,-1.7719,-1.7602,-1.7485,-1.7485,-1.7485,-1.7485,-1.7485,-1.7485,-1.7485,-1.7485,-1.7485,-1.7485,-1.7485,-1.7485,-1.7485,-1.7485,-1.7485,-1.7485,-1.7485,-1.7485,-1.7485,-1.7485,-1.7485,-1.7455,-1.7406,-1.7195,-1.7038,-1.6917,0.0,0.0,0.0,-1.5885,-1.5885,-1.5885,-1.5885,-1.5887,-1.589,-1.3673,0.0,-1.2516,-1.0608,-0.9652,-0.9919,-1.0056,0.0,0.0,0.0,0.0,0.0,0.0,0.0,0.0,0.0,0.0,0.0,-1.3688,-1.3688,-1.3688,-1.3444,-1.3329,-1.3324,-1.2964,-1.284,-1.32,-1.332,-1.4759,-1.7657,-1.7843,-1.8512,-2.078,-2.1103,-2.1089,-2.1203,-2.1211,-2.1211,-2.1203,-2.1979,-2.3079,-2.4394,-2.5516,-2.6735,-2.8077,-2.831,-2.8301,-2.8301,-2.833,-2.831,-2.8301,-2.8584,-2.8809,-2.8857,-2.917,-2.9424,-2.9453,-2.9521,-2.9575,-2.9382,-2.9773,-3.0225,-3.0809,-3.0771,-3.0762,-3.0869,-3.0898,-3.0898,-3.0898,-3.0645,-3.0138,-2.5885,-2.6427,-2.5255,-2.4231,0.0,-2.1638,-2.0141,-1.8874,-1.8415,-1.8409,-1.8874,-1.8881,-1.8648,-1.8175,-1.7664,-1.7436,-1.7485,-1.7485,-1.7485,-1.7485,-1.7485,-1.7485,-1.7485,-1.7485,-1.7485,-1.7485,-1.7485,-1.7485,-1.7485,-1.7485,-1.7485,-1.7485,-1.7352,-1.7219,-1.708,-1.6555,-1.6151,-1.5891,-1.5885,-1.5885,-1.5891,-1.6018,-1.6151,-1.618,-1.4065,0.0,0.0,0.0,0.0,0.0,0.0,0.0,0.0,-1.0371,0.0,-0.8726,-0.9323,-1.029,-1.139,-1.1511,-1.2118,-1.3569,-1.3688,-1.3688,-1.3688,-1.3569,-1.3444,-1.3449,-1.3324,-1.3324,-1.3444,-1.4033,-1.5348,-1.7738,-1.8175,-1.9087,-2.0852,-2.1211,-2.1211,-2.1211,-2.1211,-2.1211,-2.1211,-2.1653,-2.2539,-2.364,-2.4468,-2.5705,-2.735,-2.8095,-2.835,-2.8555,-2.8603,-2.8682,-2.8887,-2.9072,-2.9238,-2.9297,-2.96,-2.9844,-2.9873,-3.0068,-3.0273,-3.0209,-3.0392,-3.0635,-3.082,-3.0898,-3.0898,-3.0898,-3.0898,-3.0732,-3.0386,-3.0418,-3.0265,-2.5522,-2.6015,-2.4804,-2.3946,-2.3368,-2.1782,-2.0831,-2.0277,-1.9461,0.0,0.0,-2.0162,-1.9693,-1.8874,-1.7861,-1.7523,-1.7485,-1.7485,-1.7485,-1.7485,-1.7485,-1.7485,-1.7485,-1.7485,-1.7485,-1.7485,-1.7485,-1.7485,-1.7485,-1.7485,-1.7485,-1.7485,-1.7485,-1.7358,-1.708,-1.6652,-1.6272,-1.597,-1.591,-1.5885,-1.5891,-1.6103,-1.6235,-1.6284,-1.4127,-1.3084,-1.318,-1.0882,-0.9958,-1.0661,-1.0928,-1.059,-0.987,-0.9858,-0.9326,-0.7991,-0.7872,-0.8723,-1.0668,-1.0793,-1.1631,-1.3564,-1.3688,-1.3688,-1.3688,-1.3688,-1.3707,-1.374,-1.375,-1.3759,-1.3792,-1.4986,-1.617,-1.7463,-1.8647,-1.9966,-2.1155,-2.1379,-2.1415,-2.1386,-2.1415,-2.1386,-2.1408,-2.1415,-2.1825,-2.2871,-2.355,-2.4409,-2.6542,-2.8015,-2.8701,-2.8836,-2.9023,-2.905,-2.923,-2.9517,-2.9556,-2.936,-2.9802,-3.0303,-3.0371,-3.0509,-3.049,-3.0198,-3.0265,-2.9922,-2.996,-2.978,-3.0163,-3.0239,-3.0258,-2.9987,-2.9386,-2.9629,-2.9563,-2.4459,-2.4378,-2.2733,-2.1556,-2.0558,-1.9632,-1.9693,-2.027,-2.0155,-2.0155,-2.027,-1.972,-1.9249,-1.8874,-1.7935,-1.7473,-1.7485,-1.7485,-1.7485,-1.7485,-1.7485,-1.7485,-1.7485,-1.7485,-1.7485,-1.7485,-1.7485,-1.7485,-1.7485,-1.7485,-1.7485,-1.7485,-1.7485,-1.7358,-1.7105,-1.7014,-1.673,-1.6235,-1.6006,-1.5885,-1.5891,-1.5928,-1.6054,-1.6162,-1.3881,-1.2758,-1.296,-1.0824,-0.9486,-0.9361,-0.9496,-0.9326,-0.8705,-0.8717,-0.8485,-0.7994,-0.7872,-0.8723,-1.0664,-1.0793,-1.1635,-1.3444,-1.3688,-1.3688,-1.3688,-1.3688,-1.3764,-1.3944,-1.3962,-1.4038,-1.4313,-1.5427,-1.6747,-1.7979,-1.9337,-2.0688,-2.1889,-2.2008,-2.2001,-2.1993,-2.2045,-2.2023,-2.1986,-2.2001,-2.2445,-2.3395,-2.3771,-2.4553,-2.6229,-2.823,-2.9162,-2.9283,-2.9332,-2.9036,-2.8398,-2.9193,-2.9384,-2.8598,-2.965,-3.0383,-3.0374,-2.9747,-2.9194,-2.8728,-2.8095,-2.7341,-2.6756,-2.6742,-2.7412,-2.8023,-2.7976,-2.767,-2.7613,-2.7587,-2.7194,-2.283,-2.243,-2.1692,-2.063,-1.9644,-1.9645,-1.9924,-2.027,-2.027,-2.0608,-2.0967,-2.1227,-2.0396,-1.8874,-1.7892,-1.743,-1.7485,-1.7485,-1.7485,-1.7485,-1.7485,-1.7485,-1.7485,-1.7485,-1.7485,-1.7485,-1.7485,-1.7485,-1.7485,-1.7485,-1.7485,-1.7485,-1.7485,-1.7418,-1.7298,-1.646,-1.5926,-1.5693,-1.5979,-1.5713,-1.5041,-1.5178,-1.5027,-1.4473,-1.2878,-1.2117,-1.2321,-1.0397,-0.9207,-0.8885,-0.8778,-0.8581,-0.8032,-0.8085,-0.8119,-0.7872,-0.7872,-0.8723,-1.0664,-1.1752,-1.2768,-1.3733,-1.3863,-1.391,-1.4019,-1.3925,-1.3948,-1.4151,-1.4175,-1.4208,-1.4298,-1.5535,-1.6881,-1.8105,-1.9466,-2.0825,-2.1937,-2.2184,-2.2184,-2.2184,-2.2184,-2.2184,-2.2184,-2.2184,-2.2296,-2.2997,-2.3588,-2.4452,-2.4811,-2.6675,-2.819,-2.815,-2.8077,-2.7803,-2.739,-2.793,-2.8165,-2.7591,-2.8217,-2.8701,-2.8847,-2.8349,-2.7999,-2.7635,-2.7153,-2.6852,-2.6352,-2.6534,-2.6783,-2.7,-2.6964,-2.6894,-2.6416,-2.5851,-2.5219,-2.1466,-2.113,-2.0565,-1.9855,-1.9021,-1.9666,-1.9924,-1.9924,-1.9809,-2.0141,-2.1081,-2.1992,-2.1039,-1.8881,-1.7867,-1.756,-1.7557,-1.7569,-1.7605,-1.766,-1.7666,-1.7666,-1.7666,-1.7666,-1.763,-1.7575,-1.7569,-1.7539,-1.7491,-1.7485,-1.7485,-1.7479,-1.7238,-1.7126,-1.7003,-1.5514,-1.4691,-1.4856,-1.5305,-1.4988,-1.4014,-1.4223,-1.3823,-1.2946,-1.1938,-1.1391,-1.1272,-0.9871,-0.8995,-0.8546,-0.8418,-0.8204,-0.775,-0.7823,-0.7872,-0.7872,-0.7872,-0.872,-1.0668,-1.2599,-1.3783,-1.3996,-1.4014,-1.4114,-1.4336,-1.4241,-1.4213,-1.4355,-1.4388,-1.4402,-1.4585,-1.5705,-1.6924,-1.7913,-1.953,-2.0815,-2.1783,-2.2147,-2.2389,-2.2389,-2.2389,-2.2403,-2.2396,-2.2396,-2.2418,-2.2697,-2.3551,-2.3848,-2.3473,-2.496,-2.6056,-2.6405,-2.65,-2.6542,-2.6729,-2.6875,-2.6909,-2.6734,-2.6907,-2.7227,-2.7304,-2.7289,-2.691,-2.6577,-2.6372,-2.6041,-2.6024,-2.5798,-2.5724,-2.5825,-2.575,-2.5658,-2.4974,-2.4266,-2.3933,-2.0923,-2.0773,-1.9133,-1.8077,-1.7818,-1.8642,-1.8991,-1.8874,-1.8181,-1.8298,-1.9236,-2.0171,-1.9925,-1.8881,-1.7935,-1.7605,-1.7823,-1.7835,-1.7968,-1.8179,-1.8221,-1.8215,-1.8191,-1.8203,-1.8082,-1.7865,-1.7841,-1.772,-1.7509,-1.7485,-1.7485,-1.7361,-1.6408,-1.5811,-1.5564,-1.4237,-1.3423,-1.3484,-1.3189,-1.3063,-1.2989,-1.3013,-1.2918,-1.2461,-1.1347,-1.0555,-1.0251,-0.9186,-0.8543,-0.8181,-0.83,-0.8238,-0.7978,-0.7867,-0.7872,-0.7872,-0.7872,-0.8723,-1.0664,-1.2599,-1.3788,-1.3986,-1.4033,-1.4199,-1.4558,-1.4586,-1.4577,-1.46,-1.46,-1.4671,-1.4846,-1.6131,-1.6995,-1.7229,-1.941,-2.1128,-2.1339,-2.2263,-2.3025,-2.3018,-2.2952,-2.3025,-2.2952,-2.2945,-2.2974,-2.2923,-2.32,-2.3375,-2.3157,-2.3435,-2.3837,-2.4047,-2.5253,-2.6106,-2.5684,-2.6294,-2.6313,-2.5818,-2.6264,-2.6736,-2.6943,-2.6334,-2.5673,-2.5288,-2.4583,-2.3963,-2.3608,-2.3041,-2.325,-2.4054,-2.3863,-2.3419,-2.3215,-2.3079,-2.3154,-1.9243,-1.9263,-1.82,-1.7602,-1.7602,-1.7941,-1.8064,-1.8064,-1.7719,-1.7719,-1.8071,-1.8459,-1.8453,-1.8077,-1.8015,-1.7912,-1.7883,-1.8052,-1.8179,-1.8294,-1.83,-1.83,-1.83,-1.83,-1.8227,-1.8131,-1.8118,-1.798,-1.7607,-1.6837,-1.6402,-1.6284,-1.5095,-1.4381,-1.4138,-1.2817,-1.2183,-1.2358,-1.1272,-1.064,-1.0806,-1.1415,-1.1362,-1.0439,-0.9933,-0.9513,-0.9397,-0.8738,-0.8409,-0.8291,-0.8218,-0.7997,-0.7872,-0.7872,-0.7872,-0.7994,-0.8967,-0.9937,-1.0793,-1.2712,-1.3967,-1.417,-1.4307,-1.4506,-1.4775,-1.4813,-1.4808,-1.4808,-1.4808,-1.4851,-1.5047,-1.6213,-1.698,-1.7361,-1.9407,-2.1076,-2.1076,-2.2223,-2.3106,-2.3106,-2.3106,-2.3106,-2.3106,-2.3106,-2.3106,-2.3106,-2.3106,-2.3106,-2.3106,-2.3106,-2.2981,-2.2973,-2.3953,-2.4332,-2.41,-2.4517,-2.4671,-2.4447,-2.4502,-2.5075,-2.5024,-2.4885,-2.4211,-2.4057,-2.3658,-2.3137,-2.3052,-2.2815,-2.2732,-2.3113,-2.2983,-2.2819,-2.2639,-2.2599,-2.268,-1.7972,-1.7855,-1.7602,-1.7485,-1.7485,-1.7485,-1.7485,-1.7485,-1.7485,-1.7485,-1.7491,-1.7433,-1.7581,-1.7618,-1.8062,-1.8209,-1.8112,-1.8306,-1.8444,-1.8499,-1.8505,-1.8505,-1.8505,-1.8505,-1.8469,-1.8408,-1.8396,-1.8129,-1.7369,-1.627,-1.5547,-1.5059,-1.3688,-1.2942,-1.2577,-1.1257,-1.066,-1.0906,-0.97,-0.9092,-0.9319,-0.983,-0.9772,-0.8951,-0.8799,-0.8732,-0.861,-0.8366,-0.8244,-0.8244,-0.7994,-0.7872,-0.7872,-0.7872,-0.7872,-0.7991,-0.9454,-1.0565,-1.0849,-1.2563,-1.3867,-1.4374,-1.4553,-1.4714,-1.4889,-1.4936,-1.4936,-1.4926,-1.4936,-1.4926,-1.5062,-1.5829,-1.6338,-1.6597,-1.8646,-2.0049,-2.0436,-2.1713,-2.2731,-2.2981,-2.3106,-2.3106,-2.3106,-2.3106,-2.3106,-2.3106,-2.3106,-2.3106,-2.3106,-2.3106,-2.2981,-2.2598,-2.2849,-2.2988,-2.3003,-2.337,-2.3337,-2.3249,-2.3393,-2.3386,-2.2993,-2.3245,-2.3315,-2.349,-2.3409,-2.3317,-2.2922,-2.2832,-2.2766,-2.2732,-2.2679,-2.2572,-2.2338,-2.2305,-2.2171,-1.7843,-1.7602,-1.7485,-1.7485,-1.7485,-1.7485,-1.7485,-1.7485,-1.7485,-1.7485,-1.7533,-1.7476,-1.7589,-1.7877,-1.819,-1.8429,-1.8595,-1.865,-1.8788,-1.8976,-1.9006,-1.903,-1.9042,-1.9042,-1.8903,-1.868,-1.8662,-1.7894,-1.6387,-1.6027,-1.5292,-1.3934,-1.231,-1.1378,-1.1137,-0.9576,-0.8857,-0.9223,-0.8857,-0.8735,-0.9105,-0.8848,-0.8596,-0.8474,-0.8366,-0.8244,-0.7994,-0.7994,-0.7872,-0.7994,-0.7872,-0.7872,-0.7872,-0.7872,-0.7872,-0.7994,-0.8851,-0.9883,-1.0979,-1.2147,-1.3181,-1.4275,-1.4633,-1.4723,-1.4907,-1.4936,-1.4936,-1.4936,-1.4936,-1.4936,-1.4936,-1.5062,-1.5187,-1.5187,-1.6338,-1.7876,-1.9036,-2.0563,-2.1713,-2.2731,-2.3106,-2.3106,-2.3106,-2.3106,-2.3106,-2.3106,-2.3106,-2.3106,-2.2981,-2.3106,-2.2856,-2.2613,-2.2606,-2.2606,-2.2613,-2.2875,-2.3116,-2.3021,-2.2807,-2.2734,-2.2772,-2.2821,-2.2841,-2.2972,-2.3082,-2.3105,-2.2909,-2.2786,-2.2645,-2.2505,-2.2278,-2.2118,-2.2031,-2.2011,-2.1877,-1.7608,-1.7485,-1.7485,-1.7485,-1.7485,-1.7485,-1.7485,-1.7485,-1.7485,-1.7581,-1.7726,-1.7571,-1.7804,-1.839,-1.8667,-1.8771,-1.8692,-1.8855,-1.8988,-1.9072,-1.9072,-1.9072,-1.9072,-1.9072,-1.9036,-1.8951,-1.8927,-1.8151,-1.637,-1.4514,-1.3234,-1.2504,-1.0968,-1.0043,-0.9592,-0.8851,-0.8369,-0.8366,-0.8244,-0.8241,-0.8372,-0.8241,-0.8119,-0.8119,-0.8119,-0.7997,-0.7872,-0.7872,-0.7872,-0.7872,-0.7872,-0.7872,-0.7872,-0.7872,-0.7872,-0.8,-0.8802,-0.9858,-1.1039,-1.2231,-1.3304,-1.4482,-1.4756,-1.4846,-1.4912,-1.4936,-1.4936,-1.4936,-1.4936,-1.4936,-1.4936,-1.4936,-1.4936,-1.5062,-1.6084,-1.749,-1.8902,-2.0182,-2.158,-2.2731,-2.3106,-2.3106,-2.3106,-2.3106,-2.3106,-2.3106,-2.3106,-2.2981,-2.2863,-2.2738,-2.2606,-2.2111,-2.2111,-2.2237,-2.1985,-2.2434,-2.273,-2.2587,-2.2455,-2.2319,-2.2469,-2.2311,-2.2288,-2.2322,-2.2688,-2.2617,-2.2385,-2.2352,-2.2265,-2.2205,-2.1971,-2.1804,-2.1737,-2.1717,-2.1563,-1.7485,-1.7485,-1.7485,-1.7485,-1.7485,-1.7485,-1.7485,-1.7485,-1.7485,-1.763,-1.7853,-1.7823,-1.8129,-1.8656,-1.8915,-1.8957,-1.8825,-1.8994,-1.9072,-1.9072,-1.9072,-1.9072,-1.9072,-1.9072,-1.8816,-1.8413,-1.7899,-1.6899,-1.5327,-1.3212,-1.1925,-1.1321,-1.0019,-0.9202,-0.8871,-0.849,-0.8242,-0.7989,-0.7865,-0.7989,-0.7989,-0.7986,-0.7989,-0.7989,-0.7989,-0.7945,-0.7877,-0.7872,-0.7872,-0.7872,-0.7872,-0.7872,-0.7872,-0.791,-0.7929,-0.8063,-0.9038,-1.0131,-1.1191,-1.2418,-1.3487,-1.4594,-1.4846,-1.4936,-1.4936,-1.4936,-1.4936,-1.4936,-1.4936,-1.4936,-1.4936,-1.4936,-1.4936,-1.4931,-1.5699,-1.685,-1.8139,-1.9164,-2.0563,-2.1964,-2.2856,-2.2981,-2.3106,-2.3106,-2.3106,-2.3106,-2.3106,-2.2988,-2.2738,-2.2613,-2.2362,-2.1734,-2.1866,-2.1734,-2.1607,-2.185,-2.218,-2.2029,-2.2098,-2.2046,-2.1901,-2.1757,-2.1784,-2.1824,-2.1864,-2.1897,-2.1904,-2.1884,-2.1864,-2.185,-2.1683,-2.149,-2.1443,-2.141,-2.1316,-1.7485,-1.7485,-1.7485,-1.7485,-1.7485,-1.7485,-1.7485,-1.7485,-1.7497,-1.7672,-1.7937,-1.8173,-1.845,-1.8716,-1.8945,-1.9054,-1.9048,-1.906,-1.9072,-1.9072,-1.9072,-1.9072,-1.9072,-1.8944,-1.8156,-1.698,-1.5554,-1.4254,-1.3177,-1.2366,-1.1375,-1.0191,-0.9304,-0.8854,-0.873,-0.8455,-0.8214,-0.8074,-0.8068,-0.8082,-0.8361,-0.8206,-0.8201,-0.8209,-0.8206,-0.8108,-0.7902,-0.7894,-0.7905,-0.7899,-0.7896,-0.788,-0.7918,-0.7997,-0.8057,-0.8198,-0.9178,-1.0324,-1.1467,-1.2544,-1.3565,-1.4595,-1.4926,-1.4936,-1.4936,-1.4936,-1.4936,-1.4936,-1.4936,-1.4936,-1.4936,-1.4936,-1.4936,-1.4936,-1.5057,-1.5704,-1.6721,-1.7103,-1.8133,-2.069,-2.209,-2.2981,-2.3106,-2.3106,-2.3106,-2.3106,-2.2981,-2.2863,-2.2487,-2.2487,-2.2237,-2.1734,-2.1614,-2.1488,-2.1229,-2.1109,-2.1369,-2.1515,-2.1556,-2.1538,-2.1464,-2.1349,-2.1443,-2.1496,-2.1543,-2.1583,-2.165,-2.163,-2.1563,-2.151,-2.1329,-2.1249,-2.1243,-2.1236,-2.1196,-1.7485,-1.7485,-1.7485,-1.7485,-1.7485,-1.7485,-1.7485,-1.7503,-1.766,-1.7901,-1.8173,-1.8303,-1.8566,-1.8915,-1.9048,-1.9072,-1.9072,-1.9072,-1.9072,-1.9072,-1.9072,-1.9072,-1.8938,-1.8022,-1.6856,-1.5554,-1.4124,-1.321,-1.2672,-1.1709,-1.073,-0.998,-0.9543,-0.9086,-0.8756,-0.8364,-0.8236,-0.8364,-0.8236,-0.8364,-0.8367,-0.8367,-0.8239,-0.8233,-0.8233,-0.8193,-0.8127,-0.8122,-0.8122,-0.8117,-0.8122,-0.8122,-0.8127,-0.8155,-0.8179,-0.8193,-0.8548,-0.9654,-1.1383,-1.2007,-1.3143,-1.4394,-1.4936,-1.4936,-1.4936,-1.4936,-1.4936,-1.4936,-1.4936,-1.4936,-1.4936,-1.4936,-1.4931,-1.4936,-1.4936,-1.5443,-1.6592,-1.7485,-1.8768,-2.0309,-2.1195,-2.1706,-2.2598,-2.2856,-2.2856,-2.2731,-2.2731,-2.2613,-2.2111,-2.1985,-2.1734,-2.1362,-2.1235,-2.1235,-2.1102,-2.1102,-2.1229,-2.1355,-2.1355,-2.1355,-2.1229,-2.1116,-2.1189,-2.1229,-2.1269,-2.1316,-2.1376,-2.1376,-2.1329,-2.1276,-2.1196,-2.1142,-2.1116,-2.1102,-2.1102,-1.7485,-1.7485,-1.7485,-1.7485,-1.7485,-1.7485,-1.7485,-1.7521,-1.7762,-1.8034,-1.83,-1.8292,-1.856,-1.903,-1.9072,-1.9072,-1.9072,-1.9072,-1.8816,-1.8547,-1.8944,-1.881,-1.8156,-1.6328,-1.5163,-1.4263,-1.282,-1.2029,-1.1901,-1.1108,-1.0277,-0.9936,-0.9527,-0.9098,-0.8626,-0.8497,-0.8367,-0.8499,-0.8502,-0.8499,-0.8499,-0.8499,-0.8499,-0.8367,-0.8367,-0.8367,-0.8364,-0.8364,-0.8323,-0.8255,-0.8233,-0.8233,-0.8236,-0.8272,-0.8301,-0.8326,-0.8926,-0.9917,-1.1489,-1.2227,-1.3083,-1.4534,-1.4936,-1.4936,-1.4936,-1.4936,-1.4936,-1.4936,-1.4936,-1.48,-1.467,-1.467,-1.467,-1.4534,-1.48,-1.5183,-1.6073,-1.684,-1.7742,-1.864,-1.9273,-2.029,-2.1321,-2.1839,-2.2215,-2.223,-2.2355,-2.223,-2.1734,-2.1607,-2.1362,-2.1235,-2.1102,-2.1102,-2.1102,-2.1102,-2.1102,-2.1102,-2.1102,-2.1102,-2.1102,-2.1102,-2.1142,-2.1149,-2.1176,-2.1182,-2.1236,-2.1209,-2.1162,-2.1109,-2.1156,-2.1109,-2.1109,-2.1102,-2.1102,-1.7485,-1.7485,-1.7485,-1.7485,-1.7485,-1.7485,-1.7509,-1.7557,-1.7799,-1.8082,-1.8342,-1.8357,-1.8578,-1.9036,-1.9072,-1.9072,-1.9072,-1.881,-1.8156,-1.7636,-1.7899,-1.777,-1.6328,-1.425,-1.3346,-1.2968,-1.1644,-1.085,-1.0982,-1.0455,-1.0057,-0.9779,-0.9368,-0.8978,-0.8681,-0.8576,-0.856,-0.8552,-0.8565,-0.8562,-0.8562,-0.8571,-0.8571,-0.8565,-0.8562,-0.8557,-0.8552,-0.8546,-0.8467,-0.8293,-0.8285,-0.8291,-0.8285,-0.8367,-0.8426,-0.8432,-0.945,-1.0412,-1.1618,-1.2409,-1.3477,-1.467,-1.4936,-1.4936,-1.4936,-1.4936,-1.4936,-1.4936,-1.48,-1.467,-1.4534,-1.4403,-1.4272,-1.401,-1.4403,-1.466,-1.4259,-1.5163,-1.5939,-1.6322,-1.7087,-1.8367,-1.9782,-2.0043,-2.0816,-2.1461,-2.1846,-2.1853,-2.1607,-2.1488,-2.1362,-2.1229,-2.1102,-2.1102,-2.1102,-2.1102,-2.1102,-2.1102,-2.1109,-2.1122,-2.1116,-2.1116,-2.1102,-2.1102,-2.1189,-2.1162,-2.1189,-2.1256,-2.1296,-2.1363,-2.1323,-2.1182,-2.1209,-2.1303,-2.1316,-1.7433,-1.7485,-1.7485,-1.7485,-1.7485,-1.7485,-1.7599,-1.7793,-1.8064,-1.833,-1.8589,-1.8849,-1.8988,-1.9072,-1.9072,-1.9072,-1.881,-1.8028,-1.7496,-1.6974,-1.6203,-1.5294,-1.4119,-1.3206,-1.2297,-1.1512,-1.0982,-1.0721,-1.0717,-1.0323,-1.006,-0.9664,-0.9256,-0.8984,-0.8587,-0.8587,-0.8587,-0.8587,-0.8587,-0.8587,-0.8587,-0.8587,-0.8587,-0.8587,-0.8587,-0.8587,-0.8587,-0.8587,-0.8571,-0.8508,-0.8494,-0.8497,-0.8486,-0.8519,-0.8532,-0.8673,-0.8958,-0.9911,-1.1365,-1.2157,-1.3083,-1.467,-1.4931,-1.4936,-1.4936,-1.4936,-1.4936,-1.4805,-1.467,-1.4534,-1.4403,-1.4141,-1.401,-1.4006,-1.401,-1.387,-1.346,-1.3731,-1.4403,-1.5303,-1.5804,-1.67,-1.7988,-1.9018,-1.9916,-2.0309,-2.0956,-2.1607,-2.1362,-2.1235,-2.1229,-2.1229,-2.1102,-2.1102,-2.1102,-2.1102,-2.1102,-2.1102,-2.1122,-2.1156,-2.1149,-2.1142,-2.1122,-2.1102,-2.1383,-2.1443,-2.153,-2.1617,-2.1643,-2.1623,-2.165,-2.161,-2.1704,-2.1784,-2.175,-1.6889,-1.593,-1.593,-1.6166,-1.6661,-1.6759,-1.7249,-1.7931,-1.8294,-1.8535,-1.8722,-1.8957,-1.9072,-1.9072,-1.9072,-1.8682,-1.8156,-1.7372,-1.6328,-1.5028,-1.3731,-1.3079,-1.2684,-1.2293,-1.1508,-1.085,-1.0721,-1.0721,-1.0721,-1.0323,-1.006,-0.9661,-0.9256,-0.8984,-0.8587,-0.8587,-0.8587,-0.8587,-0.8587,-0.8587,-0.8587,-0.8587,-0.8587,-0.8587,-0.8587,-0.8587,-0.8587,-0.8587,-0.8587,-0.8584,-0.8584,-0.8587,-0.8587,-0.8587,-0.8587,-0.8587,-0.8984,-1.0044,-1.1494,-1.2157,-1.3214,-1.4534,-1.48,-1.48,-1.4805,-1.467,-1.4539,-1.467,-1.4403,-1.4141,-1.3884,-1.3621,-1.349,-1.3358,-1.349,-1.3214,-1.2795,-1.3087,-1.349,-1.4137,-1.4394,-1.4903,-1.6198,-1.7345,-1.825,-1.9158,-1.9928,-2.0583,-2.0976,-2.0976,-2.1102,-2.1102,-2.1109,-2.1116,-2.1136,-2.1142,-2.1323,-2.1323,-2.1443,-2.1416,-2.1423,-2.1396,-2.1363,-2.143,-2.1617,-2.1757,-2.183,-2.1877,-2.1857,-2.1877,-2.1977,-2.2011,-2.2031,-2.1839,-2.1826,-1.5595,-1.3794,-1.3412,-1.4004,-1.5235,-1.5691,-1.6293,-1.7398,-1.7807,-1.8052,-1.8145,-1.8459,-1.8285,-1.8682,-1.8162,-1.7893,-1.6721,-1.6328,-1.4768,-1.3075,-1.1769,-1.1505,-1.2165,-1.1376,-1.085,-1.0721,-1.0721,-1.0721,-1.0588,-1.0323,-1.006,-0.9661,-0.9253,-0.8853,-0.872,-0.8587,-0.8587,-0.8587,-0.8587,-0.8587,-0.8587,-0.8587,-0.8587,-0.8587,-0.8587,-0.8587,-0.8587,-0.8587,-0.8587,-0.8587,-0.8587,-0.8587,-0.8587,-0.8587,-0.8587,-0.8853,-0.9516,-1.0575,-1.1762,-1.2684,-1.3613,-1.4534,-1.4534,-1.4539,-1.4539,-1.4272,-1.4141,-1.4272,-1.401,-1.3752,-1.3363,-1.2968,-1.2968,-1.2968,-1.2832,-1.2828,-1.2824,-1.2828,-1.2836,-1.2836,-1.2836,-1.3486,-1.4263,-1.5033,-1.5809,-1.7485,-1.8646,-1.9807,-2.0462,-2.0849,-2.0976,-2.1102,-2.1116,-2.1136,-2.1162,-2.1189,-2.1443,-2.163,-2.185,-2.1924,-2.1957,-2.1917,-2.168,-2.1693,-2.1917,-2.1997,-2.2196,-2.2217,-2.2124,-2.2178,-2.2311,-2.2225,-2.2144,-2.1603,-2.1514,-1.2706,-1.4431,-1.1774,-1.1515,-1.3039,-1.398,-1.4676,-1.5107,-1.5363,-1.5716,-1.5724,-1.5799,-1.5949,-1.5949,-1.6078,-1.5559,-1.5163,-1.425,-1.2684,-1.1372,-1.0982,-1.085,-1.1111,-1.0853,-1.0721,-1.0721,-1.0721,-1.0721,-1.0588,-1.0193,-0.9794,-0.9661,-0.912,-0.8717,-0.8587,-0.8587,-0.8587,-0.8587,-0.8587,-0.8587,-0.8587,-0.8587,-0.8587,-0.8587,-0.8587,-0.8587,-0.8587,-0.8587,-0.8587,-0.8587,-0.8587,-0.8587,-0.8587,-0.8587,-0.8587,-0.8851,-0.9646,-1.0704,-1.1758,-1.2816,-1.3608,-1.4403,-1.4403,-1.4272,-1.4137,-1.401,-1.3875,-1.4006,-1.3752,-1.3363,-1.2968,-1.2836,-1.2836,-1.2836,-1.2836,-1.2836,-1.2836,-1.2836,-1.2836,-1.2836,-1.2836,-1.2968,-1.3358,-1.4259,-1.5168,-1.6073,-1.7232,-1.878,-1.9686,-2.0335,-2.0628,-2.0648,-2.1203,-2.1263,-2.1321,-2.1387,-2.147,-2.1687,-2.1899,-2.2432,-2.2458,-2.2392,-2.2138,-2.2065,-2.2032,-2.2271,-2.2458,-2.268,-2.2639,-2.2645,-2.2619,-2.241,-2.21,-2.1609,-2.0904,-1.0887,-1.2247,-1.0485,-1.0386,-1.1461,-1.2645,-1.3604,-1.4309,-1.4643,-1.4794,-1.4889,-1.4907,-1.4907,-1.4907,-1.4907,-1.4646,-1.3731,-1.2425,-1.1508,-1.085,-1.0721,-1.0721,-1.0721,-1.0721,-1.0721,-1.0721,-1.0721,-1.0721,-1.0588,-1.006,-0.9664,-0.9661,-0.8989,-0.872,-0.8587,-0.8587,-0.8587,-0.8587,-0.8587,-0.8587,-0.8587,-0.8587,-0.8587,-0.8587,-0.8587,-0.8587,-0.8587,-0.8587,-0.8587,-0.8587,-0.8587,-0.8587,-0.8587,-0.8587,-0.8587,-0.8853,-1.0174,-1.1101,-1.189,-1.2947,-1.4006,-1.4272,-1.4146,-1.401,-1.3748,-1.3617,-1.349,-1.349,-1.3363,-1.2972,-1.2836,-1.2836,-1.2836,-1.2836,-1.2836,-1.2836,-1.2836,-1.2836,-1.2836,-1.2836,-1.2836,-1.2836,-1.3227,-1.3744,-1.4394,-1.5168,-1.5554,-1.6974,-1.8267,-1.8932,-1.9811,-2.0246,-2.0932,-2.1314,-2.1573,-2.1496,-2.1415,-2.1468,-2.1507,-2.2206,-2.2828,-2.2715,-2.2583,-2.2596,-2.2649,-2.2709,-2.2868,-2.308,-2.3006,-2.2853,-2.2649,-2.2421,-2.1865,-2.0958,-2.0245,-0.9819,-0.9822,-0.9846,-0.9903,-1.0376,-1.158,-1.2771,-1.3696,-1.4164,-1.3844,-1.4254,-1.4254,-1.3862,-1.4124,-1.3993,-1.3473,-1.2425,-1.1508,-1.0717,-1.0717,-1.0721,-1.0721,-1.0721,-1.0721,-1.0721,-1.0721,-1.0721,-1.0721,-1.0588,-1.006,-0.9664,-0.9528,-0.8989,-0.8587,-0.8587,-0.8587,-0.8587,-0.8587,-0.8587,-0.8587,-0.8587,-0.8587,-0.8587,-0.8587,-0.8587,-0.8587,-0.8587,-0.8587,-0.8587,-0.8587,-0.8587,-0.8587,-0.8587,-0.8587,-0.8587,-0.872,-1.0439,-1.1365,-1.1894,-1.3083,-1.4272,-1.4277,-1.3761,-1.3498,-1.349,-1.3227,-1.3099,-1.3104,-1.2972,-1.2836,-1.2836,-1.2836,-1.2836,-1.2836,-1.2836,-1.2836,-1.2836,-1.2836,-1.2836,-1.2836,-1.2836,-1.2836,-1.2836,-1.3095,-1.3744,-1.4268,-1.466,-1.5192,-1.6504,-1.7978,-1.9018,-1.9683,-2.0409,-2.0141,-2.0238,-2.0343,-2.0385,-2.0655,-2.0814,-2.1319,-2.2173,-2.172,-2.1651,-2.2999,-2.3225,-2.3186,-2.2972,-2.2825,-2.2695,-2.2757,-2.2038,-2.1163,-2.0543,-2.0145,-1.9401,-0.9819,-0.9832,-0.9961,-1.0149,-1.0333,-1.0714,-1.1106,-1.1153,-1.1571,-1.1372,-1.1505,-1.1505,-1.1637,-1.1508,-1.1508,-1.1244,-1.1111,-1.085,-1.0721,-1.0721,-1.0721,-1.0721,-1.0721,-1.0721,-1.0721,-1.0721,-1.0721,-1.0721,-1.0469,-1.006,-0.971,-0.9543,-0.9012,-0.8611,-0.8617,-0.859,-0.8606,-0.8606,-0.8595,-0.8587,-0.8587,-0.8587,-0.8587,-0.8587,-0.8587,-0.8587,-0.8587,-0.8587,-0.8587,-0.8587,-0.8587,-0.8587,-0.8587,-0.8587,-0.8587,-0.8851,-1.017,-1.1097,-1.1494,-1.2816,-1.3617,-1.363,-1.3371,-1.3235,-1.3099,-1.2836,-1.2836,-1.2836,-1.2836,-1.2836,-1.2836,-1.2836,-1.2836,-1.2836,-1.2836,-1.2836,-1.2836,-1.2836,-1.2836,-1.2836,-1.2836,-1.284,-1.284,-1.2865,-1.329,-1.3839,-1.4262,-1.4577,-1.529,-1.7176,-1.897,-1.9508,-1.9905,-1.9253,-1.8608,-1.8694,-1.8883,-1.9262,-1.9386,-1.9487,-1.9986,-1.9853,-2.0382,-2.1839,-2.2872,-2.3099,-2.2782,-2.2348,-2.1852,-2.1402,-2.0568,-1.9586,-1.8992,-1.8546,-1.819,-0.9819,-0.9839,-0.9985,-1.0228,-1.0461,-1.0531,-1.0538,-1.0612,-1.0687,-1.0721,-1.0721,-1.0721,-1.0721,-1.0721,-1.0721,-1.0721,-1.0721,-1.0721,-1.0721,-1.0721,-1.0721,-1.0721,-1.0721,-1.0721,-1.0721,-1.0721,-1.0591,-1.0505,-1.044,-1.0115,-0.9844,-0.9461,-0.905,-0.8777,-0.8758,-0.8717,-0.8687,-0.8674,-0.8625,-0.859,-0.8587,-0.8587,-0.8587,-0.8587,-0.8587,-0.8587,-0.8587,-0.8587,-0.8587,-0.8587,-0.8587,-0.8587,-0.8454,-0.8187,-0.8051,-0.8315,-0.9374,-1.0296,-1.0697,-1.1886,-1.2688,-1.3367,-1.3235,-1.2972,-1.2836,-1.2836,-1.2836,-1.2836,-1.2836,-1.2836,-1.2836,-1.2836,-1.2836,-1.2836,-1.2836,-1.2836,-1.2836,-1.2836,-1.2848,-1.2856,-1.2865,-1.2869,-1.2856,-1.2893,-1.2954,-1.3265,-1.3712,-1.4061,-1.4423,-1.6072,-1.8128,-1.8311,-1.8586,-1.8424,-1.7574,-1.7281,-1.7424,-1.7819,-1.7907,-1.8,-1.8359,-1.8433,-1.9282,-2.052,-2.142,-2.1491,-2.1438,-2.052,-2.0249,-2.0093,-1.9382,-1.8545,-1.774,-1.7083,-1.6714,-0.9839,-0.9757,-1.0032,-1.0311,-1.06,-1.061,-1.0605,-1.0704,-1.0717,-1.0721,-1.0721,-1.0721,-1.0721,-1.0721,-1.0721,-1.0721,-1.0721,-1.0721,-1.0721,-1.0721,-1.0721,-1.0721,-1.0721,-1.0721,-1.0721,-1.0727,-1.0381,-1.0293,-1.0383,-1.006,-0.9731,-0.9466,-0.9079,-0.8951,-0.8913,-0.884,-0.881,-0.8742,-0.8685,-0.8622,-0.8592,-0.8587,-0.8587,-0.8587,-0.8587,-0.8587,-0.8587,-0.8587,-0.8587,-0.8587,-0.8587,-0.8587,-0.8454,-0.7917,-0.7514,-0.7512,-0.8176,-0.9102,-1.0031,-1.0829,-1.1897,-1.2968,-1.2972,-1.2836,-1.2836,-1.2836,-1.2836,-1.2836,-1.2836,-1.2836,-1.2836,-1.2836,-1.2836,-1.2836,-1.2836,-1.284,-1.2852,-1.2873,-1.2921,-1.2925,-1.2913,-1.2938,-1.297,-1.3055,-1.3141,-1.3161,-1.3612,-1.3717,-1.4066,-1.5174,-1.647,-1.6668,-1.6942,-1.7296,-1.6787,-1.5939,-1.6013,-1.633,-1.623,-1.614,-1.6758,-1.7235,-1.8062,-1.8294,-1.8135,-1.8099,-1.8383,-1.881,-1.8664,-1.8461,-1.8192,-1.738,-1.6318,-1.5678,-1.5458,-0.9774,-0.9781,-1.0185,-1.0465,-1.061,-1.0622,-1.0697,-1.0714,-1.0721,-1.0721,-1.0721,-1.0721,-1.0721,-1.0721,-1.0721,-1.0721,-1.0721,-1.0721,-1.0721,-1.0721,-1.0721,-1.0721,-1.0721,-1.0721,-1.0727,-1.0608,-1.0434,-1.0373,-1.0166,-0.9778,-0.9429,-0.9373,-0.9131,-0.8962,-0.8997,-0.8954,-0.8875,-0.8793,-0.8622,-0.8555,-0.8603,-0.8587,-0.8587,-0.8587,-0.8587,-0.8587,-0.8587,-0.8587,-0.8587,-0.8587,-0.8587,-0.8587,-0.8454,-0.7915,-0.7116,-0.6985,-0.725,-0.8312,-0.9507,-1.017,-1.1369,-1.2568,-1.2836,-1.2836,-1.2836,-1.2836,-1.2836,-1.2836,-1.2836,-1.2836,-1.2836,-1.2836,-1.2836,-1.2848,-1.286,-1.286,-1.2873,-1.3027,-1.3063,-1.312,-1.3153,-1.3141,-1.3145,-1.3246,-1.334,-1.3348,-1.3376,-1.3482,-1.3694,-1.4683,-1.5265,-1.5569,-1.5638,-1.5985,-1.6004,-1.5026,-1.5026,-1.5164,-1.4893,-1.4621,-1.523,-1.5694,-1.5092,-1.5145,-1.5158,-1.535,-1.5881,-1.643,-1.6844,-1.6863,-1.6487,-1.5695,-1.4625,-1.4409,-1.4453,-0.9865,-0.9817,-1.0173,-1.0565,-1.0644,-1.0656,-1.0721,-1.0721,-1.0721,-1.0721,-1.0721,-1.0721,-1.0721,-1.0721,-1.0721,-1.0721,-1.0721,-1.0721,-1.0721,-1.0721,-1.0721,-1.0721,-1.0588,-1.0588,-1.0462,-1.0482,-0.9999,-0.9703,-0.9647,-0.9639,-0.9593,-0.9405,-0.9289,-0.9163,-0.912,-0.9082,-0.9035,-0.8954,-0.8848,-0.8709,-0.8619,-0.8587,-0.8587,-0.8587,-0.8587,-0.8587,-0.8587,-0.8587,-0.8587,-0.8454,-0.832,-0.7917,-0.765,-0.6982,-0.6048,-0.5915,-0.5647,-0.6713,-0.8709,-0.9374,-1.0704,-1.2301,-1.2836,-1.2836,-1.2836,-1.2836,-1.2836,-1.2836,-1.2836,-1.2844,-1.2848,-1.2836,-1.2836,-1.2856,-1.2942,-1.2974,-1.3023,-1.3161,-1.3262,-1.3327,-1.3388,-1.3384,-1.3384,-1.3453,-1.3526,-1.3535,-1.3587,-1.3689,-1.375,-1.4194,-1.4506,-1.4694,-1.4583,-1.4742,-1.4604,-1.4181,-1.4324,-1.4462,-1.4462,-1.4189,-1.4047,-1.4051,-1.39,-1.39,-1.437,-1.4268,-1.4022,-1.4554,-1.5563,-1.5328,-1.4784,-1.4533,-1.4136,-1.4038,-1.41,-0.9999,-1.0049,-1.0399,-1.0644,-1.0692,-1.0673,-1.0721,-1.0721,-1.0721,-1.0721,-1.0721,-1.0721,-1.0721,-1.0721,-1.0721,-1.0721,-1.0721,-1.0721,-1.0721,-1.0721,-1.0721,-1.0588,-1.0459,-1.0326,-1.0326,-1.0469,-0.9667,-0.9267,-0.9319,-0.9447,-0.9405,-0.9294,-0.9266,-0.9283,-0.9275,-0.9217,-0.9152,-0.9087,-0.888,-0.8734,-0.8655,-0.8603,-0.8592,-0.8587,-0.8587,-0.8587,-0.8587,-0.832,-0.832,-0.8187,-0.7519,-0.7252,-0.6985,-0.6182,-0.5647,-0.5381,-0.4978,-0.5912,-0.7777,-0.8972,-1.017,-1.1769,-1.2836,-1.2836,-1.2836,-1.2836,-1.2877,-1.2913,-1.2917,-1.2934,-1.2958,-1.299,-1.3019,-1.3059,-1.31,-1.3137,-1.3197,-1.334,-1.3441,-1.349,-1.3563,-1.3664,-1.3673,-1.3689,-1.3713,-1.3725,-1.3794,-1.3884,-1.3896,-1.3892,-1.4039,-1.4181,-1.4181,-1.4181,-1.4043,-1.39,-1.39,-1.39,-1.39,-1.39,-1.39,-1.39,-1.39,-1.39,-1.39,-1.392,-1.3961,-1.4054,-1.414,-1.4285,-1.4426,-1.4268,-1.4046,-1.3957,-1.3912,-1.0341,-1.033,-1.0483,-1.0575,-1.0697,-1.0714,-1.0721,-1.0721,-1.0721,-1.0721,-1.0721,-1.0721,-1.0721,-1.0721,-1.0721,-1.0721,-1.0721,-1.0721,-1.0721,-1.0721,-1.0721,-1.0588,-1.0326,-1.0193,-1.006,-0.9794,-0.9259,-0.8993,-0.9038,-0.9109,-0.9114,-0.9272,-0.9299,-0.9304,-0.9299,-0.9275,-0.9209,-0.9114,-0.8908,-0.8785,-0.8715,-0.8652,-0.859,-0.8587,-0.8587,-0.8587,-0.8587,-0.792,-0.7517,-0.7517,-0.6851,-0.6451,-0.6317,-0.5647,-0.5247,-0.5112,-0.471,-0.5644,-0.751,-0.8706,-1.017,-1.1769,-1.2836,-1.2848,-1.2881,-1.2852,-1.2909,-1.3051,-1.3076,-1.3145,-1.3238,-1.3323,-1.3246,-1.3254,-1.3275,-1.3331,-1.3405,-1.3526,-1.362,-1.3656,-1.3717,-1.3794,-1.3823,-1.3807,-1.3807,-1.3811,-1.3819,-1.39,-1.39,-1.3896,-1.39,-1.4043,-1.39,-1.39,-1.39,-1.39,-1.39,-1.39,-1.39,-1.39,-1.39,-1.39,-1.39,-1.39,-1.39,-1.39,-1.3904,-1.3977,-1.4006,-1.3949,-1.3937,-1.3981,-1.3993,-1.3932,-1.3904,-1.0439,-1.0497,-1.0592,-1.0666,-1.0721,-1.0721,-1.0721,-1.0721,-1.0721,-1.0721,-1.0721,-1.0721,-1.0721,-1.0721,-1.0721,-1.0721,-1.0721,-1.0721,-1.0721,-1.0721,-1.0721,-1.0455,-1.0326,-0.9927,-0.9794,-0.9528,-0.9134,-0.8847,-0.8927,-0.8948,-0.9098,-0.9234,-0.9299,-0.9304,-0.9304,-0.9299,-0.9239,-0.913,-0.8976,-0.8856,-0.8747,-0.8658,-0.8587,-0.8587,-0.8051,-0.7917,-0.7784,-0.7252,-0.6985,-0.6717,-0.6185,-0.5917,-0.5647,-0.5111,-0.4844,-0.4845,-0.4441,-0.5376,-0.7109,-0.8174,-0.9905,-1.2037,-1.284,-1.2881,-1.2974,-1.2999,-1.3092,-1.3193,-1.3262,-1.3323,-1.3344,-1.3368,-1.3352,-1.3392,-1.3449,-1.3518,-1.3591,-1.3697,-1.375,-1.377,-1.3811,-1.3872,-1.3884,-1.3888,-1.3888,-1.3892,-1.3896,-1.39,-1.39,-1.39,-1.39,-1.39,-1.39,-1.39,-1.39,-1.39,-1.39,-1.39,-1.39,-1.39,-1.39,-1.39,-1.39,-1.39,-1.39,-1.39,-1.39,-1.39,-1.3904,-1.3904,-1.3904,-1.3916,-1.3908,-1.39,-1.39,-1.0517,-1.0571,-1.0673,-1.0721,-1.0721,-1.0721,-1.0721,-1.0721,-1.0721,-1.0721,-1.0721,-1.0721,-1.0721,-1.0721,-1.0721,-1.0721,-1.0721,-1.0721,-1.0721,-1.0721,-1.0588,-1.0326,-1.0057,-0.9658,-0.9389,-0.9259,-0.9012,-0.8712,-0.8943,-0.8948,-0.9095,-0.9237,-0.9304,-0.9304,-0.9304,-0.9296,-0.9261,-0.9177,-0.9065,-0.8946,-0.8829,-0.8715,-0.8611,-0.8467,-0.7917,-0.7648,-0.7247,-0.6717,-0.6183,-0.5915,-0.5515,-0.5112,-0.4844,-0.471,-0.4307,-0.4307,-0.4441,-0.4977,-0.6443,-0.8307,-1.0323,-1.2515,-1.2929,-1.3019,-1.312,-1.3181,-1.3262,-1.3421,-1.3453,-1.3465,-1.3494,-1.3567,-1.3587,-1.364,-1.3669,-1.3721,-1.3738,-1.3811,-1.3843,-1.3872,-1.39,-1.39,-1.39,-1.39,-1.39,-1.39,-1.39,-1.39,-1.39,-1.39,-1.39,-1.39,-1.39,-1.39,-1.39,-1.39,-1.39,-1.39,-1.39,-1.39,-1.39,-1.39,-1.39,-1.39,-1.39,-1.39,-1.39,-1.39,-1.39,-1.39,-1.39,-1.39,-1.39,-1.39,-1.39,-1.0578,-1.0711,-1.0717,-1.0721,-1.0721,-1.0721,-1.0721,-1.0721,-1.0721,-1.0721,-1.0721,-1.0721,-1.0721,-1.0721,-1.0721,-1.0721,-1.0721,-1.0721,-1.0721,-1.0588,-1.0455,-1.006,-0.9658,-0.9389,-0.912,-0.872,-0.8606,-0.8709,-0.8935,-0.8948,-0.9087,-0.9228,-0.9291,-0.9304,-0.9304,-0.9304,-0.9299,-0.928,-0.9171,-0.9049,-0.8785,-0.8665,-0.8558,-0.8074,-0.7517,-0.7114,-0.6849,-0.6048,-0.5513,-0.5247,-0.4844,-0.4575,-0.4441,-0.4441,-0.4307,-0.4307,-0.4307,-0.4977,-0.6447,-0.8978,-1.0799,-1.2388,-1.255,-1.2763,-1.3175,-1.3239,-1.3157,-1.3041,-1.3212,-1.3568,-1.3653,-1.3855,-1.3827,-1.3823,-1.3843,-1.3851,-1.3859,-1.3863,-1.3888,-1.39,-1.39,-1.39,-1.39,-1.39,-1.39,-1.39,-1.39,-1.39,-1.39,-1.39,-1.39,-1.39,-1.39,-1.39,-1.39,-1.39,-1.39,-1.39,-1.39,-1.39,-1.39,-1.39,-1.39,-1.39,-1.39,-1.39,-1.39,-1.39,-1.39,-1.39,-1.39,-1.39,-1.39,-1.39,-1.39,-0.9206,-0.9377,-1.0316,-1.0721,-1.0721,-1.0721,-1.0721,-1.0721,-1.0721,-1.0721,-1.0721,-1.0721,-1.0721,-1.0721,-1.0721,-1.0721,-1.0721,-1.0717,-1.0588,-1.0326,-1.019,-0.9788,-0.9389,-0.912,-0.8851,-0.872,-0.8603,-0.8663,-0.8826,-0.8908,-0.903,-0.9166,-0.9277,-0.9302,-0.9304,-0.9304,-0.9302,-0.9283,-0.9188,-0.8789,-0.8256,-0.8148,-0.7769,-0.7266,-0.6589,-0.6315,-0.6182,-0.5247,-0.4844,-0.471,-0.4307,-0.4307,-0.4307,-0.4307,-0.4307,-0.4307,-0.4309,-0.5,-0.6122,-0.7801,-0.9092,-1.0783,-1.1765,-1.183,-1.197,-1.1995,-1.2089,-1.2321,-1.2495,-1.2836,-1.3587,-1.3884,-1.3872,-1.3876,-1.3884,-1.3884,-1.3888,-1.3892,-1.39,-1.39,-1.39,-1.39,-1.39,-1.39,-1.39,-1.39,-1.39,-1.39,-1.39,-1.39,-1.39,-1.39,-1.39,-1.39,-1.39,-1.39,-1.39,-1.39,-1.39,-1.39,-1.39,-1.39,-1.39,-1.39,-1.39,-1.39,-1.39,-1.39,-1.39,-1.39,-1.39,-1.39,-1.39,-1.39,-1.39,-0.8041,-0.8446,-0.8975,-0.8972,-0.8969,-1.018,-1.0721,-1.0721,-1.0721,-1.0721,-1.0721,-1.0721,-1.0721,-1.0721,-1.0721,-1.0721,-1.0721,-1.0588,-1.0455,-1.0193,-0.9924,-0.9522,-0.925,-0.8984,-0.8851,-0.8587,-0.86,-0.8655,-0.8783,-0.8897,-0.9046,-0.919,-0.9264,-0.9005,-0.9013,-0.9013,-0.9304,-0.9144,-0.8936,-0.8434,-0.79,-0.7516,-0.7137,-0.6519,-0.5938,-0.5513,-0.5247,-0.4844,-0.4307,-0.4307,-0.4307,-0.4307,-0.4307,-0.4307,-0.4307,-0.4308,-0.4469,-0.4919,-0.5553,-0.5876,-0.7316,-0.9198,-0.9998,-1.0735,-1.0982,-1.1018,-1.12,-1.1405,-1.1439,-1.2452,-1.3464,-1.3753,-1.39,-1.39,-1.39,-1.39,-1.39,-1.39,-1.39,-1.39,-1.39,-1.39,-1.39,-1.39,-1.39,-1.39,-1.39,-1.39,-1.39,-1.39,-1.39,-1.39,-1.39,-1.39,-1.39,-1.39,-1.39,-1.39,-1.39,-1.39,-1.39,-1.39,-1.39,-1.39,-1.39,-1.39,-1.39,-1.39,-1.39,-1.39,-1.39,-1.39,-1.39,-1.39,-1.39,-0.684,-0.765,-0.6836,-0.6025,-0.5887,-0.8837,-1.0449,-1.0585,-1.0585,-1.0585,-1.0721,-1.0721,-1.0721,-1.0717,-1.0717,-1.0585,-1.0588,-1.0326,-1.019,-0.9921,-0.9519,-0.925,-0.8984,-0.8851,-0.872,-0.8587,-0.8598,-0.8638,-0.8766,-0.8894,-0.9068,-0.9098,-0.9,-0.8721,-0.8432,-0.8579,-0.8874,-0.8721,-0.8415,-0.7914,-0.7394,-0.6887,-0.6511,-0.6022,-0.5553,-0.5253,-0.4978,-0.471,-0.4441,-0.4307,-0.4307,-0.4307,-0.4307,-0.4307,-0.4307,-0.4326,-0.4369,-0.4591,-0.4811,-0.4839,-0.5735,-0.7623,-0.8162,-0.9621,-1.0227,-0.9684,-0.9695,-1.0422,-1.0721,-1.2166,-1.3321,-1.3611,-1.39,-1.39,-1.39,-1.39,-1.39,-1.39,-1.39,-1.39,-1.39,-1.39,-1.39,-1.39,-1.39,-1.39,-1.39,-1.39,-1.39,-1.39,-1.39,-1.39,-1.39,-1.39,-1.39,-1.39,-1.39,-1.39,-1.39,-1.39,-1.39,-1.39,-1.39,-1.39,-1.39,-1.39,-1.39,-1.39,-1.39,-1.39,-1.39,-1.39,-1.39,-1.39,-1.39,-0.5103,-0.5372,-0.6034,-0.6295,-0.6162,-0.7234,-0.8169,-0.9111,-0.9244,-0.9646,-1.0721,-1.0717,-1.0588,-1.0717,-1.0183,-1.0183,-1.0187,-0.9924,-0.9655,-0.9386,-0.925,-0.8984,-0.8851,-0.872,-0.8587,-0.8587,-0.8595,-0.8611,-0.8682,-0.8834,-0.8645,-0.8542,-0.8427,-0.7996,-0.7711,-0.7566,-0.7863,-0.8008,-0.7568,-0.7085,-0.6719,-0.6207,-0.5709,-0.5226,-0.4881,-0.4717,-0.4575,-0.4441,-0.4307,-0.4307,-0.4307,-0.4307,-0.4307,-0.4309,-0.4318,-0.4375,-0.4428,-0.4493,-0.4564,-0.4613,-0.5222,-0.6248,-0.6515,-0.6809,-0.7548,-0.8133,-0.7989,-0.8853,-0.9859,-1.1159,-1.2599,-1.3178,-1.3611,-1.39,-1.39,-1.39,-1.39,-1.39,-1.39,-1.39,-1.39,-1.39,-1.39,-1.39,-1.39,-1.39,-1.39,-1.39,-1.39,-1.39,-1.39,-1.39,-1.39,-1.39,-1.39,-1.39,-1.39,-1.39,-1.39,-1.39,-1.39,-1.39,-1.39,-1.39,-1.39,-1.39,-1.39,-1.39,-1.39,-1.39,-1.39,-1.39,-1.39,-1.39,-1.39,-0.3497,-0.363,-0.4431,-0.4698,-0.4698,-0.4698,-0.5635,-0.6838,-0.7505,-0.8304,-0.9108,-1.019,-1.0326,-0.9646,-0.9649,-0.9785,-0.9924,-0.9655,-0.9386,-0.925,-0.8984,-0.8853,-0.8587,-0.8587,-0.8587,-0.8587,-0.8587,-0.8592,-0.8518,-0.8415,-0.8213,-0.7632,-0.7677,-0.7127,-0.6698,-0.6553,-0.6553,-0.6555,-0.6402,-0.6087,-0.5738,-0.5376,-0.4887,-0.456,-0.4357,-0.4315,-0.4307,-0.4307,-0.4307,-0.4307,-0.4307,-0.4307,-0.4315,-0.4328,-0.4371,-0.4429,-0.4486,-0.4546,-0.4608,-0.464,-0.5236,-0.5533,-0.5244,-0.5388,-0.5675,-0.6255,-0.669,-0.7412,-0.8711,-1.0009,-1.1446,-1.2885,-1.3321,-1.39,-1.39,-1.39,-1.39,-1.39,-1.39,-1.39,-1.39,-1.39,-1.39,-1.39,-1.39,-1.39,-1.39,-1.39,-1.39,-1.39,-1.39,-1.39,-1.39,-1.39,-1.39,-1.39,-1.39,-1.39,-1.39,-1.39,-1.39,-1.39,-1.39,-1.39,-1.39,-1.39,-1.39,-1.39,-1.39,-1.39,-1.39,-1.39,-1.39,-1.39,-1.39,-0.2289,-0.2289,-0.2155,-0.2423,-0.2289,-0.2424,-0.3095,-0.4167,-0.5499,-0.6297,-0.6969,-0.9125,-0.9259,-0.8712,-0.8981,-0.9522,-0.9525,-0.9256,-0.912,-0.8984,-0.8853,-0.8587,-0.8587,-0.8587,-0.8587,-0.8587,-0.8592,-0.8472,-0.8267,-0.8008,-0.7468,-0.6851,-0.6801,-0.6551,-0.5827,-0.5682,-0.5536,-0.5391,-0.5536,-0.5525,-0.5057,-0.4699,-0.4478,-0.4458,-0.4382,-0.4307,-0.4307,-0.4307,-0.4307,-0.4307,-0.4307,-0.4307,-0.4323,-0.436,-0.4417,-0.4474,-0.4526,-0.4585,-0.463,-0.466,-0.4662,-0.481,-0.4665,-0.481,-0.51,-0.5244,-0.5678,-0.64,-0.7555,-0.9144,-1.0584,-1.2166,-1.3031,-1.3611,-1.39,-1.39,-1.39,-1.39,-1.39,-1.39,-1.39,-1.39,-1.39,-1.39,-1.39,-1.39,-1.39,-1.39,-1.39,-1.39,-1.39,-1.39,-1.39,-1.39,-1.39,-1.39,-1.39,-1.39,-1.39,-1.39,-1.39,-1.39,-1.39,-1.39,-1.39,-1.39,-1.39,-1.39,-1.39,-1.39,-1.39,-1.39,-1.39,-1.39,-1.39,-0.2155,-0.2155,-0.2155,-0.2155,-0.2155,-0.2155,-0.2423,-0.2692,-0.2959,-0.443,-0.6299,-0.7102,-0.7643,-0.791,-0.859,-0.8995,-0.9123,-0.8989,-0.872,-0.872,-0.8587,-0.8587,-0.8587,-0.8587,-0.8587,-0.8587,-0.8598,-0.8226,-0.7759,-0.7201,-0.6619,-0.5994,-0.6067,-0.567,-0.51,-0.5101,-0.4955,-0.4664,-0.4809,-0.4955,-0.4792,-0.456,-0.4478,-0.4447,-0.4382,-0.4318,-0.4309,-0.4307,-0.4307,-0.4307,-0.4307,-0.4307,-0.4309,-0.4367,-0.4424,-0.4481,-0.4544,-0.4606,-0.4645,-0.4665,-0.4665,-0.4665,-0.4665,-0.4665,-0.4665,-0.4665,-0.4955,-0.5678,-0.6688,-0.8278,-0.9865,-1.1302,-1.2599,-1.3321,-1.3757,-1.3757,-1.3757,-1.3757,-1.3757,-1.39,-1.39,-1.39,-1.3757,-1.39,-1.39,-1.39,-1.39,-1.39,-1.3757,-1.3757,-1.3757,-1.3757,-1.39,-1.39,-1.39,-1.39,-1.39,-1.39,-1.39,-1.39,-1.39,-1.39,-1.39,-1.39,-1.39,-1.39,-1.39,-1.39,-1.39,-1.39,-1.39,-1.39,-1.39,-1.39,-1.39,-0.2155,-0.2155,-0.2155,-0.2155,-0.2155,-0.2155,-0.2155,-0.2155,-0.2155,-0.3094,-0.4431,-0.4561,-0.5228,-0.6704,-0.7789,-0.8731,-0.8856,-0.872,-0.8587,-0.8587,-0.8587,-0.8587,-0.8587,-0.8581,-0.8318,-0.8187,-0.7658,-0.7291,-0.6804,-0.6338,-0.5865,-0.5243,-0.5164,-0.5073,-0.4657,-0.4665,-0.4665,-0.4665,-0.4665,-0.4665,-0.4658,-0.4578,-0.4504,-0.4465,-0.4406,-0.4343,-0.4309,-0.4307,-0.4307,-0.4307,-0.4307,-0.4307,-0.4328,-0.4392,-0.4446,-0.4499,-0.456,-0.463,-0.4654,-0.4665,-0.4665,-0.4665,-0.4665,-0.4665,-0.4665,-0.4665,-0.4665,-0.5389,-0.64,-0.7844,-0.9288,-1.0875,-1.2169,-1.3039,-1.3325,-1.3325,-1.3325,-1.3325,-1.3325,-1.3325,-1.3325,-1.3325,-1.3325,-1.3325,-1.3325,-1.3329,-1.3329,-1.3472,-1.3472,-1.3615,-1.3615,-1.3611,-1.3757,-1.39,-1.39,-1.39,-1.39,-1.39,-1.39,-1.39,-1.39,-1.39,-1.39,-1.39,-1.39,-1.39,-1.39,-1.39,-1.39,-1.39,-1.39,-1.39,-1.39,-1.39,-1.39,-0.2155,-0.2155,-0.2155,-0.2155,-0.2155,-0.2155,-0.2155,-0.2155,-0.2155,-0.2155,-0.2422,-0.2284,-0.2819,-0.4428,-0.7123,-0.8058,-0.8595,-0.8598,-0.8595,-0.8592,-0.8587,-0.8587,-0.8579,-0.8432,-0.7867,-0.7329,-0.6672,-0.6148,-0.5635,-0.5457,-0.5129,-0.4625,-0.4544,-0.4605,-0.4647,-0.4665,-0.4665,-0.4665,-0.4665,-0.4665,-0.464,-0.475,-0.4824,-0.4763,-0.4566,-0.4504,-0.4461,-0.4441,-0.4441,-0.4307,-0.4307,-0.4307,-0.4342,-0.4406,-0.4452,-0.4507,-0.4591,-0.4642,-0.4665,-0.4665,-0.4665,-0.4665,-0.4665,-0.4665,-0.4519,-0.4519,-0.4519,-0.4955,-0.6112,-0.7412,-0.8855,-1.0011,-1.1309,-1.2753,-1.2896,-1.2753,-1.2753,-1.2753,-1.2896,-1.2896,-1.2896,-1.2896,-1.2896,-1.2753,-1.2753,-1.2757,-1.2757,-1.2757,-1.29,-1.3039,-1.3182,-1.3325,-1.3468,-1.3615,-1.39,-1.39,-1.39,-1.39,-1.39,-1.39,-1.39,-1.39,-1.39,-1.39,-1.39,-1.39,-1.39,-1.39,-1.39,-1.39,-1.39,-1.39,-1.39,-1.39,-1.39,-0.2155,-0.2155,-0.2155,-0.2155,-0.2155,-0.2155,-0.2155,-0.2155,-0.2155,-0.2155,-0.202,-0.1615,-0.1614,-0.2015,-0.6738,-0.8362,-0.7935,-0.8202,-0.8475,-0.8611,-0.8576,-0.8579,-0.8283,-0.7683,-0.7217,-0.6555,-0.5919,-0.5419,-0.5053,-0.4748,-0.4562,-0.4477,-0.4538,-0.4598,-0.4651,-0.4664,-0.4665,-0.4665,-0.4665,-0.4665,-0.4649,-0.4894,-0.5392,-0.5321,-0.4979,-0.5318,-0.5398,-0.4844,-0.444,-0.4307,-0.4307,-0.4307,-0.4345,-0.441,-0.4466,-0.4511,-0.4597,-0.4649,-0.4665,-0.4665,-0.4519,-0.4373,-0.4227,-0.4081,-0.4083,-0.3938,-0.3938,-0.3937,-0.5097,-0.669,-0.7991,-0.8714,-0.9867,-1.2033,-1.29,-1.2606,-1.2459,-1.2606,-1.261,-1.261,-1.261,-1.261,-1.261,-1.261,-1.2613,-1.2613,-1.2613,-1.2613,-1.2613,-1.2753,-1.2753,-1.3039,-1.3182,-1.3615,-1.3761,-1.39,-1.39,-1.39,-1.39,-1.39,-1.39,-1.39,-1.39,-1.39,-1.39,-1.39,-1.39,-1.39,-1.39,-1.39,-1.39,-1.39,-1.39,-1.39,-1.39]},{"header":{"parameterUnit":"m.s-1","parameterCategory":1,"la1":31.0,"la2":29.5877,"lo1":-88.7671,"lo2":-86.6584,"dy":0.0162,"dx":0.0185,"nx":115,"ny":88,"refTime":"2023-06-16T00:00:00:Z","depth":0,"parameterNumber":3,"parameterNumberName":"V-component_of_WINDS"},"data":[0.0,0.0,0.0,0.0,0.0,0.0,0.0,0.0,0.0,0.0,0.0,0.0,0.0,0.0,0.0,0.0,0.0,0.0,0.0,0.0,0.0,0.0,0.0,0.0,0.0,0.0,0.0,0.0,0.0,0.0,0.0,0.0,0.0,0.0,0.0,0.0,0.0,0.0,0.0,0.0,0.0,0.0,0.0,0.0,0.0,0.0,0.0,0.0,0.0,0.0,0.0,0.0,0.0,0.0,0.0,0.0,0.0,0.0,0.0,0.0,0.0,0.0,0.0,0.0,0.0,0.0,0.0,0.0,0.0,0.0,0.0,0.0,0.0,0.0,0.0,0.0,0.0,0.0,0.0,0.0,0.0,0.0,0.0,0.0,0.0,0.0,0.0,0.0,0.0,0.0,0.0,0.0,0.0,0.0,0.0,0.0,0.0,0.0,0.0,0.0,0.0,0.0,0.0,0.0,0.0,0.0,0.0,0.0,0.0,0.0,0.0,0.0,0.0,0.0,0.0,0.0,0.0,0.0,0.0,0.0,0.0,0.0,0.0,0.0,0.0,0.0,0.0,0.0,0.0,0.0,0.0,0.0,0.0,0.0,0.0,0.0,0.0,0.0,0.0,0.0,0.0,0.0,0.0,0.0,0.0,0.0,0.0,0.0,0.0,0.0,0.0,0.0,0.0,0.0,0.0,0.0,0.0,0.0,0.0,0.0,0.0,0.0,0.0,0.0,0.0,0.0,0.0,0.0,0.0,0.0,0.0,0.0,0.0,0.0,0.0,0.0,0.0,0.0,0.0,0.0,0.0,0.0,0.0,0.0,0.0,0.0,0.0,0.0,0.0,0.0,0.0,0.0,0.0,0.0,0.0,0.0,0.0,0.0,0.0,0.0,0.0,0.0,0.0,0.0,0.0,0.0,0.0,0.0,0.0,0.0,0.0,0.0,0.0,0.0,0.0,0.0,0.0,0.0,0.0,0.0,0.0,0.0,0.0,0.0,0.0,0.0,0.0,0.0,0.0,0.0,0.0,0.0,0.0,0.0,0.0,0.0,0.0,0.0,0.0,0.0,0.0,0.0,0.0,0.0,0.0,0.0,0.0,0.0,0.0,0.0,0.0,0.0,0.0,0.0,0.0,0.0,0.0,0.0,0.0,0.0,0.0,0.0,0.0,0.0,0.0,0.0,0.0,0.0,0.0,0.0,0.0,0.0,0.0,0.0,0.0,0.0,0.0,0.0,0.0,0.0,0.0,0.0,0.0,0.0,0.0,0.0,0.0,0.0,0.0,0.0,0.0,0.0,0.0,0.0,0.0,0.0,0.0,0.0,0.0,0.0,0.0,0.0,0.0,0.0,0.0,0.0,0.0,0.0,0.0,0.0,0.0,0.0,0.0,0.0,0.0,0.0,0.0,0.0,0.0,0.0,0.0,0.0,0.0,0.0,0.0,0.0,0.0,0.0,0.0,0.0,0.0,0.0,0.0,0.0,0.0,0.0,0.0,0.0,0.0,0.0,0.0,0.0,0.0,0.0,0.0,0.0,0.0,0.0,0.0,0.0,0.0,0.0,0.0,0.0,0.0,0.0,0.0,0.0,0.0,0.0,0.0,0.0,0.0,0.0,0.0,0.0,0.0,0.0,0.0,0.0,0.0,0.0,0.0,0.0,0.0,0.0,0.0,0.0,0.0,0.0,0.0,0.0,0.0,0.0,0.0,0.0,0.0,0.0,0.0,0.0,0.0,0.0,0.0,0.0,0.0,0.0,0.0,0.0,0.0,0.0,0.0,0.0,0.0,0.0,0.0,0.0,0.0,0.0,0.0,0.0,0.0,0.0,0.0,0.0,0.0,0.0,0.0,0.0,0.0,0.0,0.0,0.0,0.0,0.0,0.0,0.0,0.0,0.0,0.0,0.0,0.0,0.0,0.0,0.0,0.0,0.0,0.0,0.0,0.0,0.0,0.0,0.0,0.0,0.0,0.0,0.0,0.0,0.0,0.0,0.0,0.0,0.0,0.0,0.0,0.0,0.0,0.0,0.0,0.0,0.0,0.0,0.0,0.0,0.0,0.0,0.0,0.0,0.0,0.0,0.0,0.0,0.0,0.0,0.0,0.0,0.0,0.0,0.0,0.0,0.0,0.0,0.0,0.0,0.0,0.0,0.0,0.0,0.0,0.0,0.0,0.0,0.0,0.0,0.0,0.0,0.0,0.0,0.0,0.0,0.0,0.0,0.0,0.0,0.0,0.0,0.0,0.0,0.0,0.0,0.0,0.0,0.0,0.0,0.0,0.0,0.0,0.0,0.0,0.0,0.0,0.0,0.0,0.0,0.0,0.0,0.0,0.0,0.0,0.0,0.0,0.0,0.0,0.0,0.0,0.0,0.0,0.0,0.0,0.0,0.0,0.0,0.0,0.0,0.0,0.0,0.0,0.0,0.0,0.0,0.0,0.0,0.0,0.0,0.0,0.0,0.0,0.0,0.0,0.0,0.0,0.0,0.0,0.0,0.0,0.0,0.0,0.0,0.0,0.0,0.0,0.0,0.0,0.0,0.0,0.0,0.0,0.0,0.0,0.0,0.0,0.0,0.0,0.0,0.0,0.0,0.0,0.0,0.0,0.0,0.0,0.0,0.0,0.0,0.0,0.0,0.0,0.0,0.0,0.0,0.0,0.0,0.0,0.0,0.0,0.0,0.0,0.0,0.0,0.0,0.0,0.0,0.0,0.0,0.0,0.0,0.0,0.0,0.0,0.0,0.0,0.0,0.0,0.0,0.0,0.0,0.0,0.0,0.0,0.0,0.0,0.0,0.0,0.0,0.0,0.0,0.0,0.0,0.0,0.0,0.0,0.0,0.0,0.0,0.0,0.0,0.0,0.0,0.0,0.0,0.0,0.0,0.0,0.0,0.0,0.0,0.0,0.0,0.0,0.0,0.0,0.0,0.0,0.0,0.0,0.0,0.0,0.0,0.0,0.0,0.0,0.0,0.0,0.0,0.0,0.0,0.0,0.0,0.0,0.0,0.0,0.0,0.0,0.0,0.0,0.0,0.0,0.0,0.0,0.0,0.0,0.0,0.0,0.0,0.0,0.0,0.0,0.0,0.0,0.0,0.0,0.0,0.0,0.0,0.0,0.0,0.0,0.0,0.0,0.0,0.0,0.0,0.0,0.0,0.0,0.0,0.0,0.0,0.0,0.0,0.0,0.0,0.0,0.0,0.0,0.0,0.0,0.0,0.0,0.0,0.0,0.0,0.0,0.0,0.0,0.0,0.0,0.0,0.0,0.0,0.0,0.0,0.0,0.0,0.0,0.0,0.0,0.0,0.0,0.0,0.0,0.0,0.0,0.0,0.0,0.0,0.0,0.0,0.0,0.0,0.0,0.0,0.0,0.0,0.0,0.0,0.0,0.0,0.0,0.0,0.0,0.0,0.0,0.0,0.0,0.0,0.0,0.0,0.0,0.0,0.0,0.0,0.0,0.0,0.0,0.0,0.0,0.0,0.0,0.0,0.0,0.0,0.0,0.0,0.0,0.0,0.0,0.0,0.0,0.0,0.0,0.0,0.0,0.0,0.0,0.0,0.0,0.0,0.0,0.0,0.0,0.0,0.0,0.0,0.0,0.0,0.0,0.0,0.0,0.0,0.0,0.0,0.0,0.0,0.0,0.0,0.0,0.0,0.0,0.0,0.0,0.0,0.0,0.0,0.0,0.0,0.0,0.0,0.0,0.0,0.0,0.0,0.0,0.0,0.0,0.0,0.0,0.0,0.0,0.0,0.0,0.0,0.0,0.0,0.0,0.0,0.0,0.0,0.0,0.0,0.0,0.0,0.0,0.0,0.0,0.0,0.0,0.0,0.0,0.0,0.0,0.0,0.0,0.0,0.0,0.0,0.0,0.0,0.0,0.0,0.0,0.0,0.0,0.0,0.0,0.0,0.0,0.0,0.0,0.0,0.0,0.0,0.0,0.0,0.0,0.0,0.0,0.0,0.0,0.0,0.0,0.0,0.0,0.0,0.0,0.0,0.0,0.0,0.0,0.0,0.0,0.0,0.0,0.0,0.0,0.0,0.0,0.0,0.0,0.0,0.0,0.0,0.0,0.0,0.0,0.0,0.0,0.0,0.0,0.0,0.0,0.0,0.0,0.0,0.0,0.0,0.0,0.0,0.0,0.0,0.0,0.0,0.0,0.0,0.0,0.0,0.0,0.0,0.0,0.0,0.0,0.0,0.0,0.0,0.0,0.0,0.0,0.0,0.0,0.0,0.0,0.0,0.0,0.0,0.0,0.0,0.0,-5.1243,0.0,0.0,0.0,0.0,0.0,0.0,0.0,0.0,0.0,0.0,0.0,0.0,0.0,0.0,0.0,0.0,0.0,0.0,0.0,0.0,0.0,0.0,0.0,0.0,0.0,0.0,0.0,0.0,0.0,0.0,0.0,0.0,0.0,0.0,0.0,0.0,0.0,0.0,0.0,0.0,0.0,0.0,0.0,0.0,0.0,0.0,0.0,0.0,0.0,0.0,0.0,0.0,0.0,0.0,0.0,0.0,0.0,0.0,0.0,0.0,0.0,0.0,0.0,0.0,0.0,0.0,0.0,0.0,0.0,0.0,0.0,0.0,0.0,0.0,0.0,0.0,0.0,0.0,0.0,0.0,0.0,0.0,0.0,0.0,0.0,0.0,0.0,0.0,0.0,0.0,0.0,0.0,0.0,0.0,0.0,0.0,0.0,0.0,0.0,0.0,0.0,0.0,0.0,0.0,0.0,0.0,0.0,0.0,0.0,0.0,-5.0054,-5.0206,-5.0206,-5.0818,-5.2122,0.0,0.0,0.0,0.0,0.0,0.0,0.0,0.0,0.0,0.0,0.0,0.0,0.0,0.0,0.0,0.0,0.0,0.0,0.0,0.0,0.0,0.0,0.0,0.0,0.0,0.0,0.0,0.0,0.0,0.0,0.0,0.0,0.0,0.0,0.0,0.0,0.0,0.0,0.0,0.0,0.0,0.0,0.0,0.0,0.0,0.0,0.0,0.0,0.0,0.0,0.0,0.0,0.0,0.0,0.0,0.0,0.0,0.0,0.0,0.0,0.0,0.0,0.0,0.0,0.0,0.0,0.0,0.0,0.0,0.0,0.0,0.0,0.0,0.0,0.0,0.0,0.0,0.0,0.0,0.0,0.0,0.0,0.0,0.0,0.0,0.0,0.0,0.0,0.0,0.0,0.0,0.0,0.0,0.0,0.0,0.0,0.0,0.0,0.0,0.0,0.0,0.0,0.0,0.0,0.0,0.0,0.0,0.0,0.0,0.0,0.0,0.0,-5.0558,-5.1384,-5.2861,0.0,0.0,0.0,0.0,0.0,0.0,0.0,0.0,0.0,0.0,0.0,0.0,0.0,0.0,0.0,0.0,0.0,0.0,0.0,0.0,0.0,0.0,0.0,0.0,0.0,0.0,0.0,0.0,0.0,0.0,0.0,0.0,0.0,0.0,0.0,0.0,0.0,0.0,0.0,0.0,0.0,0.0,0.0,0.0,0.0,0.0,0.0,0.0,0.0,0.0,0.0,0.0,0.0,0.0,0.0,0.0,0.0,0.0,0.0,0.0,0.0,0.0,0.0,0.0,0.0,0.0,0.0,0.0,0.0,0.0,0.0,0.0,0.0,0.0,0.0,0.0,0.0,0.0,0.0,0.0,0.0,0.0,0.0,0.0,0.0,0.0,0.0,0.0,0.0,0.0,0.0,0.0,0.0,0.0,0.0,0.0,0.0,0.0,0.0,0.0,0.0,0.0,0.0,0.0,0.0,0.0,0.0,0.0,0.0,0.0,-5.0645,-5.0839,-5.166,0.0,-5.3503,0.0,0.0,0.0,0.0,0.0,0.0,0.0,0.0,0.0,0.0,0.0,0.0,0.0,0.0,0.0,0.0,0.0,0.0,0.0,0.0,0.0,0.0,0.0,0.0,0.0,0.0,0.0,0.0,0.0,0.0,0.0,0.0,0.0,0.0,0.0,0.0,0.0,0.0,0.0,0.0,0.0,0.0,0.0,0.0,0.0,0.0,0.0,0.0,0.0,0.0,0.0,0.0,0.0,0.0,0.0,0.0,0.0,0.0,0.0,0.0,0.0,0.0,0.0,0.0,0.0,0.0,0.0,0.0,0.0,0.0,0.0,0.0,0.0,0.0,0.0,0.0,0.0,0.0,0.0,0.0,0.0,0.0,0.0,0.0,0.0,0.0,0.0,0.0,0.0,0.0,0.0,0.0,0.0,0.0,0.0,0.0,0.0,0.0,0.0,0.0,0.0,0.0,0.0,0.0,0.0,0.0,0.0,0.0,0.0,0.0,-5.0908,-5.0956,-5.1833,-5.2463,0.0,0.0,0.0,0.0,0.0,0.0,0.0,0.0,0.0,0.0,0.0,0.0,0.0,0.0,0.0,0.0,0.0,0.0,0.0,0.0,0.0,0.0,0.0,0.0,0.0,0.0,0.0,0.0,0.0,0.0,0.0,0.0,0.0,0.0,0.0,0.0,0.0,0.0,0.0,0.0,0.0,0.0,0.0,0.0,0.0,0.0,0.0,0.0,0.0,0.0,0.0,0.0,0.0,0.0,0.0,0.0,0.0,0.0,0.0,0.0,0.0,0.0,0.0,0.0,0.0,0.0,0.0,0.0,0.0,0.0,0.0,0.0,0.0,0.0,0.0,0.0,0.0,0.0,0.0,0.0,0.0,0.0,0.0,0.0,0.0,0.0,0.0,0.0,0.0,0.0,0.0,0.0,0.0,0.0,0.0,0.0,0.0,0.0,0.0,0.0,0.0,0.0,0.0,0.0,0.0,0.0,0.0,0.0,0.0,0.0,-5.1053,-5.1192,-5.1412,-5.2006,-5.2372,-5.2383,0.0,0.0,0.0,0.0,0.0,0.0,0.0,0.0,0.0,0.0,0.0,0.0,0.0,0.0,0.0,0.0,0.0,0.0,0.0,0.0,0.0,0.0,0.0,0.0,0.0,0.0,0.0,0.0,0.0,0.0,0.0,0.0,0.0,0.0,0.0,0.0,0.0,0.0,0.0,0.0,0.0,0.0,0.0,0.0,0.0,0.0,0.0,0.0,0.0,0.0,0.0,0.0,0.0,0.0,0.0,0.0,0.0,0.0,0.0,0.0,0.0,0.0,0.0,0.0,0.0,0.0,0.0,0.0,0.0,0.0,0.0,0.0,0.0,0.0,0.0,0.0,0.0,0.0,0.0,0.0,0.0,0.0,0.0,0.0,0.0,0.0,0.0,0.0,0.0,0.0,0.0,0.0,0.0,0.0,0.0,0.0,0.0,0.0,0.0,0.0,0.0,0.0,0.0,0.0,0.0,0.0,0.0,0.0,-5.1078,-5.1087,-5.1489,-5.2281,-5.2421,-5.2523,0.0,0.0,0.0,0.0,0.0,0.0,0.0,0.0,0.0,0.0,0.0,0.0,0.0,0.0,0.0,0.0,0.0,0.0,0.0,0.0,0.0,0.0,0.0,0.0,0.0,0.0,0.0,0.0,0.0,0.0,0.0,0.0,0.0,0.0,0.0,0.0,0.0,0.0,0.0,0.0,0.0,0.0,0.0,0.0,0.0,0.0,0.0,0.0,0.0,0.0,0.0,0.0,0.0,0.0,0.0,0.0,0.0,0.0,0.0,0.0,0.0,0.0,0.0,0.0,0.0,0.0,0.0,0.0,0.0,0.0,0.0,0.0,0.0,0.0,0.0,0.0,0.0,0.0,0.0,0.0,0.0,0.0,0.0,0.0,0.0,0.0,0.0,0.0,0.0,0.0,0.0,0.0,0.0,0.0,0.0,0.0,0.0,0.0,0.0,0.0,0.0,0.0,0.0,0.0,0.0,0.0,0.0,0.0,0.0,-5.1159,-5.1171,-5.1315,-5.1667,-5.1708,-5.1742,0.0,0.0,0.0,0.0,0.0,0.0,0.0,0.0,0.0,0.0,0.0,0.0,0.0,0.0,0.0,0.0,0.0,0.0,0.0,0.0,0.0,0.0,0.0,0.0,0.0,0.0,0.0,0.0,0.0,0.0,0.0,0.0,0.0,0.0,0.0,0.0,0.0,0.0,0.0,0.0,0.0,0.0,0.0,0.0,0.0,0.0,0.0,0.0,0.0,0.0,0.0,0.0,0.0,0.0,0.0,0.0,0.0,0.0,0.0,0.0,0.0,0.0,0.0,0.0,0.0,0.0,0.0,0.0,0.0,0.0,0.0,0.0,0.0,0.0,0.0,0.0,0.0,0.0,0.0,0.0,0.0,0.0,0.0,0.0,0.0,0.0,0.0,0.0,0.0,0.0,0.0,0.0,0.0,0.0,0.0,0.0,0.0,0.0,0.0,0.0,0.0,0.0,0.0,0.0,0.0,0.0,0.0,0.0,0.0,-5.1218,0.0,-5.1268,-5.1313,-5.1322,-5.1325,0.0,0.0,0.0,0.0,0.0,0.0,0.0,0.0,0.0,0.0,0.0,0.0,0.0,0.0,0.0,0.0,0.0,0.0,0.0,0.0,0.0,0.0,0.0,0.0,0.0,0.0,0.0,0.0,0.0,0.0,0.0,0.0,0.0,0.0,0.0,0.0,0.0,0.0,0.0,0.0,0.0,0.0,0.0,0.0,0.0,0.0,0.0,0.0,0.0,0.0,0.0,0.0,0.0,0.0,0.0,0.0,0.0,0.0,0.0,0.0,0.0,0.0,0.0,0.0,0.0,0.0,0.0,0.0,0.0,0.0,0.0,0.0,0.0,0.0,0.0,0.0,0.0,0.0,0.0,0.0,0.0,0.0,0.0,0.0,0.0,0.0,0.0,0.0,0.0,0.0,0.0,0.0,0.0,0.0,0.0,0.0,0.0,0.0,0.0,0.0,0.0,0.0,0.0,0.0,0.0,0.0,0.0,0.0,-5.1249,-5.1301,-5.1296,-5.134,-5.1386,-5.1389,-5.1386,0.0,0.0,0.0,0.0,0.0,0.0,0.0,0.0,0.0,0.0,0.0,0.0,0.0,0.0,0.0,0.0,0.0,0.0,0.0,0.0,0.0,0.0,0.0,0.0,0.0,0.0,0.0,0.0,0.0,0.0,0.0,0.0,0.0,0.0,0.0,0.0,0.0,0.0,0.0,0.0,0.0,0.0,0.0,0.0,0.0,0.0,0.0,0.0,0.0,0.0,0.0,0.0,0.0,0.0,0.0,0.0,0.0,0.0,0.0,0.0,0.0,0.0,0.0,0.0,0.0,0.0,0.0,0.0,0.0,0.0,0.0,0.0,0.0,0.0,0.0,0.0,0.0,0.0,0.0,0.0,0.0,0.0,0.0,0.0,0.0,0.0,0.0,0.0,0.0,0.0,0.0,0.0,0.0,0.0,0.0,0.0,0.0,0.0,0.0,0.0,0.0,0.0,0.0,0.0,0.0,0.0,0.0,0.0,0.0,-5.1363,-5.1362,-5.1366,-5.1402,-5.1401,-5.1386,0.0,0.0,0.0,0.0,0.0,0.0,0.0,0.0,0.0,0.0,0.0,0.0,0.0,0.0,0.0,0.0,0.0,0.0,0.0,0.0,0.0,0.0,0.0,0.0,0.0,0.0,0.0,0.0,0.0,0.0,0.0,0.0,0.0,0.0,0.0,0.0,0.0,0.0,0.0,0.0,0.0,0.0,0.0,0.0,0.0,0.0,0.0,0.0,0.0,0.0,0.0,0.0,0.0,0.0,0.0,0.0,0.0,0.0,0.0,0.0,0.0,0.0,0.0,0.0,0.0,0.0,0.0,0.0,0.0,0.0,0.0,0.0,0.0,0.0,0.0,0.0,0.0,0.0,0.0,0.0,0.0,0.0,0.0,0.0,0.0,0.0,0.0,0.0,0.0,0.0,0.0,0.0,0.0,0.0,0.0,0.0,0.0,0.0,0.0,0.0,0.0,0.0,0.0,0.0,0.0,0.0,0.0,0.0,0.0,-5.1401,-5.1369,-5.1362,-5.1391,-5.1375,-5.1369,-5.1394,0.0,0.0,0.0,0.0,0.0,0.0,0.0,0.0,0.0,0.0,0.0,0.0,0.0,0.0,0.0,0.0,0.0,0.0,0.0,0.0,0.0,0.0,0.0,0.0,0.0,0.0,0.0,0.0,0.0,0.0,0.0,0.0,0.0,0.0,0.0,0.0,0.0,0.0,0.0,0.0,0.0,0.0,0.0,0.0,0.0,0.0,0.0,0.0,0.0,0.0,0.0,0.0,0.0,0.0,0.0,0.0,0.0,0.0,0.0,0.0,0.0,0.0,0.0,0.0,0.0,0.0,0.0,0.0,0.0,0.0,0.0,0.0,0.0,0.0,0.0,0.0,0.0,0.0,0.0,0.0,0.0,0.0,0.0,0.0,0.0,0.0,0.0,0.0,0.0,0.0,0.0,0.0,0.0,0.0,0.0,0.0,0.0,0.0,0.0,0.0,0.0,0.0,0.0,0.0,0.0,0.0,0.0,0.0,-5.1388,-5.1335,-5.1335,-5.1388,-5.1336,-5.1336,0.0,0.0,0.0,0.0,0.0,0.0,0.0,0.0,0.0,0.0,0.0,0.0,0.0,0.0,0.0,0.0,0.0,0.0,0.0,0.0,0.0,0.0,0.0,0.0,0.0,0.0,0.0,0.0,0.0,0.0,0.0,0.0,0.0,0.0,0.0,0.0,0.0,0.0,0.0,0.0,0.0,0.0,0.0,0.0,0.0,0.0,0.0,0.0,0.0,0.0,0.0,0.0,0.0,0.0,0.0,0.0,0.0,0.0,0.0,0.0,0.0,0.0,0.0,0.0,0.0,0.0,0.0,0.0,0.0,0.0,0.0,0.0,0.0,0.0,0.0,0.0,0.0,0.0,0.0,0.0,0.0,0.0,0.0,0.0,0.0,0.0,0.0,0.0,0.0,0.0,0.0,0.0,0.0,0.0,0.0,0.0,0.0,0.0,0.0,0.0,0.0,0.0,0.0,0.0,0.0,0.0,0.0,0.0,0.0,-5.1267,-5.1292,-5.1296,-5.1336,-5.1303,-5.1308,0.0,0.0,0.0,0.0,0.0,0.0,0.0,0.0,0.0,0.0,0.0,0.0,0.0,0.0,0.0,0.0,0.0,0.0,0.0,0.0,0.0,0.0,0.0,0.0,0.0,0.0,0.0,0.0,0.0,0.0,0.0,0.0,0.0,0.0,0.0,0.0,0.0,0.0,0.0,0.0,0.0,0.0,0.0,0.0,0.0,0.0,0.0,0.0,0.0,0.0,0.0,0.0,0.0,0.0,0.0,0.0,0.0,0.0,0.0,0.0,0.0,0.0,0.0,0.0,0.0,0.0,0.0,0.0,0.0,0.0,0.0,0.0,0.0,0.0,0.0,0.0,0.0,0.0,0.0,0.0,0.0,0.0,0.0,0.0,0.0,0.0,0.0,0.0,0.0,0.0,0.0,0.0,0.0,0.0,0.0,0.0,0.0,0.0,0.0,0.0,0.0,0.0,0.0,0.0,0.0,0.0,0.0,0.0,-5.1234,-5.1211,-5.1201,-5.123,-5.1209,-5.1265,-5.13,0.0,0.0,0.0,0.0,0.0,0.0,0.0,0.0,0.0,0.0,0.0,0.0,0.0,0.0,0.0,0.0,0.0,0.0,0.0,0.0,0.0,0.0,0.0,0.0,0.0,0.0,0.0,0.0,0.0,0.0,0.0,0.0,0.0,0.0,0.0,0.0,0.0,0.0,0.0,0.0,0.0,0.0,0.0,0.0,0.0,0.0,0.0,0.0,0.0,0.0,0.0,0.0,0.0,0.0,0.0,0.0,0.0,0.0,0.0,0.0,0.0,0.0,0.0,0.0,0.0,0.0,0.0,0.0,0.0,0.0,0.0,0.0,0.0,0.0,0.0,0.0,0.0,0.0,0.0,0.0,0.0,0.0,0.0,0.0,0.0,0.0,0.0,0.0,0.0,0.0,0.0,0.0,0.0,0.0,0.0,0.0,0.0,0.0,0.0,0.0,0.0,0.0,0.0,0.0,0.0,0.0,0.0,0.0,-5.1189,-5.119,-5.1113,-5.1095,-5.1093,-5.122,-5.1284,0.0,0.0,0.0,0.0,0.0,0.0,0.0,0.0,0.0,0.0,0.0,0.0,0.0,0.0,0.0,0.0,0.0,0.0,0.0,0.0,0.0,0.0,0.0,0.0,0.0,0.0,0.0,0.0,0.0,0.0,0.0,0.0,0.0,0.0,0.0,0.0,0.0,0.0,0.0,0.0,0.0,0.0,0.0,0.0,0.0,0.0,0.0,0.0,0.0,0.0,0.0,0.0,0.0,0.0,0.0,0.0,0.0,0.0,0.0,0.0,0.0,0.0,0.0,0.0,0.0,0.0,0.0,0.0,0.0,0.0,0.0,0.0,0.0,0.0,0.0,0.0,0.0,0.0,0.0,0.0,0.0,0.0,0.0,0.0,0.0,0.0,0.0,0.0,0.0,0.0,0.0,0.0,0.0,0.0,0.0,0.0,0.0,0.0,0.0,0.0,0.0,0.0,0.0,0.0,0.0,0.0,0.0,0.0,-5.1097,-5.1024,-5.1088,-5.1069,-5.1017,-5.1105,-5.1139,0.0,0.0,0.0,0.0,0.0,0.0,0.0,0.0,0.0,0.0,0.0,0.0,0.0,0.0,0.0,0.0,0.0,0.0,0.0,0.0,0.0,0.0,0.0,0.0,0.0,0.0,0.0,0.0,0.0,0.0,0.0,0.0,0.0,0.0,0.0,0.0,0.0,0.0,0.0,0.0,0.0,0.0,0.0,0.0,0.0,0.0,0.0,0.0,-5.1063,0.0,0.0,0.0,0.0,0.0,0.0,0.0,0.0,0.0,0.0,0.0,0.0,0.0,0.0,0.0,0.0,0.0,0.0,0.0,0.0,0.0,0.0,0.0,0.0,0.0,0.0,0.0,0.0,0.0,0.0,0.0,0.0,0.0,0.0,0.0,0.0,0.0,0.0,0.0,0.0,0.0,0.0,0.0,0.0,0.0,0.0,0.0,0.0,0.0,0.0,0.0,0.0,0.0,0.0,0.0,0.0,0.0,0.0,0.0,-5.1024,-5.1004,-5.1004,-5.099,-5.0966,-5.099,-5.1043,0.0,0.0,0.0,0.0,0.0,0.0,0.0,0.0,0.0,0.0,0.0,0.0,0.0,0.0,0.0,0.0,0.0,0.0,0.0,0.0,0.0,0.0,0.0,0.0,0.0,0.0,0.0,0.0,0.0,0.0,0.0,0.0,0.0,0.0,0.0,0.0,0.0,0.0,0.0,0.0,0.0,0.0,0.0,0.0,0.0,0.0,0.0,0.0,0.0,0.0,0.0,0.0,0.0,0.0,0.0,0.0,0.0,0.0,0.0,0.0,0.0,0.0,0.0,0.0,0.0,0.0,0.0,0.0,0.0,0.0,0.0,0.0,0.0,0.0,0.0,0.0,0.0,0.0,0.0,0.0,0.0,0.0,0.0,0.0,0.0,0.0,0.0,0.0,0.0,0.0,0.0,0.0,0.0,0.0,0.0,0.0,0.0,0.0,0.0,0.0,0.0,0.0,0.0,0.0,0.0,0.0,0.0,-5.1024,-5.1004,-5.0976,-5.0937,-5.0909,-5.0906,-5.0909,-5.0932,-5.1043,0.0,0.0,0.0,0.0,0.0,0.0,0.0,0.0,0.0,0.0,0.0,0.0,0.0,0.0,0.0,0.0,0.0,0.0,0.0,0.0,0.0,0.0,0.0,0.0,0.0,0.0,0.0,0.0,0.0,0.0,0.0,0.0,0.0,0.0,0.0,0.0,0.0,0.0,-5.1276,-5.1186,0.0,0.0,0.0,0.0,0.0,0.0,0.0,0.0,-5.0815,0.0,0.0,0.0,0.0,0.0,0.0,0.0,0.0,0.0,0.0,0.0,0.0,0.0,0.0,0.0,0.0,0.0,0.0,0.0,0.0,0.0,0.0,0.0,0.0,0.0,0.0,0.0,0.0,0.0,0.0,0.0,0.0,0.0,0.0,0.0,0.0,0.0,0.0,0.0,0.0,0.0,0.0,0.0,0.0,0.0,0.0,0.0,0.0,0.0,0.0,0.0,0.0,0.0,0.0,0.0,0.0,-5.1017,-5.0966,-5.0902,-5.0921,-5.0913,-5.0913,-5.089,-5.0913,-5.0844,-5.0771,0.0,0.0,0.0,0.0,0.0,0.0,0.0,0.0,0.0,0.0,0.0,0.0,0.0,0.0,0.0,0.0,0.0,0.0,0.0,0.0,0.0,0.0,0.0,0.0,0.0,0.0,0.0,0.0,0.0,0.0,0.0,0.0,0.0,0.0,0.0,0.0,0.0,0.0,0.0,-5.1101,-5.1061,0.0,0.0,0.0,0.0,0.0,0.0,0.0,0.0,-5.0256,0.0,0.0,0.0,0.0,0.0,0.0,0.0,0.0,0.0,0.0,0.0,0.0,0.0,0.0,0.0,0.0,0.0,0.0,0.0,0.0,0.0,0.0,0.0,0.0,0.0,0.0,0.0,0.0,0.0,0.0,0.0,0.0,0.0,0.0,0.0,0.0,0.0,0.0,0.0,0.0,0.0,0.0,0.0,0.0,0.0,0.0,0.0,0.0,0.0,0.0,0.0,0.0,0.0,0.0,0.0,-5.0861,-5.0877,-5.0897,-5.0916,-5.0863,-5.0844,-5.0841,-5.0844,-5.0757,0.0,0.0,0.0,0.0,0.0,0.0,0.0,0.0,0.0,0.0,0.0,0.0,0.0,0.0,0.0,0.0,0.0,0.0,0.0,0.0,0.0,0.0,0.0,0.0,0.0,0.0,0.0,0.0,0.0,0.0,0.0,0.0,0.0,0.0,0.0,0.0,0.0,0.0,0.0,0.0,-5.0948,-5.0798,-5.0572,0.0,0.0,0.0,0.0,0.0,0.0,-4.9924,-4.9952,0.0,0.0,0.0,0.0,0.0,0.0,0.0,0.0,0.0,0.0,0.0,0.0,0.0,0.0,0.0,0.0,0.0,0.0,0.0,0.0,0.0,0.0,0.0,0.0,0.0,0.0,0.0,0.0,0.0,0.0,0.0,0.0,0.0,0.0,0.0,0.0,0.0,0.0,0.0,0.0,0.0,0.0,0.0,0.0,0.0,0.0,0.0,0.0,0.0,0.0,0.0,0.0,0.0,0.0,0.0,-5.0683,-5.0831,-5.0883,-5.0868,-5.0812,-5.0793,-5.0793,-5.0793,-5.0663,0.0,0.0,0.0,0.0,0.0,0.0,0.0,0.0,0.0,0.0,0.0,0.0,0.0,0.0,0.0,0.0,0.0,0.0,0.0,0.0,0.0,0.0,0.0,0.0,0.0,0.0,0.0,0.0,0.0,0.0,0.0,0.0,0.0,0.0,0.0,0.0,0.0,0.0,0.0,0.0,0.0,-5.0366,-5.0111,-5.0059,0.0,0.0,0.0,0.0,-4.973,-4.9661,0.0,0.0,0.0,0.0,0.0,0.0,0.0,0.0,0.0,0.0,0.0,0.0,0.0,0.0,0.0,0.0,0.0,0.0,0.0,0.0,0.0,0.0,0.0,0.0,0.0,0.0,0.0,0.0,0.0,0.0,0.0,0.0,0.0,0.0,0.0,0.0,0.0,0.0,0.0,0.0,0.0,0.0,0.0,0.0,0.0,0.0,0.0,0.0,0.0,0.0,0.0,0.0,0.0,0.0,0.0,0.0,-5.0625,-5.0738,-5.0812,-5.0815,-5.0739,-5.0738,-5.0793,-5.0757,-5.0645,0.0,0.0,0.0,0.0,0.0,0.0,0.0,0.0,0.0,0.0,0.0,0.0,0.0,0.0,0.0,0.0,0.0,0.0,0.0,0.0,0.0,0.0,0.0,0.0,0.0,0.0,0.0,0.0,0.0,0.0,0.0,0.0,0.0,0.0,0.0,0.0,0.0,0.0,0.0,0.0,0.0,-4.9625,-4.9581,-4.9581,-4.9574,0.0,0.0,-4.9768,-5.0436,-5.0258,0.0,0.0,0.0,0.0,0.0,0.0,0.0,0.0,0.0,0.0,0.0,0.0,0.0,0.0,0.0,0.0,0.0,0.0,0.0,0.0,0.0,0.0,0.0,0.0,0.0,0.0,0.0,0.0,0.0,0.0,0.0,0.0,0.0,0.0,0.0,0.0,0.0,0.0,0.0,0.0,0.0,0.0,0.0,0.0,0.0,0.0,0.0,0.0,0.0,0.0,0.0,0.0,0.0,0.0,0.0,-5.0567,-5.0486,-5.0664,-5.0758,-5.074,-5.0721,-5.0721,-5.0759,-5.0721,-5.0586,0.0,0.0,0.0,0.0,0.0,0.0,0.0,0.0,0.0,0.0,0.0,0.0,0.0,0.0,0.0,0.0,0.0,0.0,0.0,0.0,0.0,0.0,0.0,0.0,0.0,0.0,0.0,0.0,0.0,0.0,0.0,0.0,0.0,0.0,0.0,0.0,0.0,0.0,0.0,0.0,0.0,0.0,-4.9295,-4.9296,0.0,0.0,0.0,-4.9719,-5.0021,0.0,0.0,0.0,0.0,0.0,0.0,0.0,0.0,0.0,0.0,0.0,0.0,0.0,0.0,0.0,0.0,0.0,0.0,0.0,0.0,0.0,0.0,0.0,0.0,0.0,0.0,0.0,0.0,0.0,0.0,0.0,0.0,0.0,0.0,0.0,0.0,0.0,0.0,0.0,0.0,0.0,0.0,0.0,0.0,0.0,0.0,0.0,0.0,0.0,0.0,0.0,0.0,0.0,0.0,0.0,0.0,0.0,-5.0206,-5.0383,-5.0483,-5.0476,-5.0542,-5.0565,-5.0565,-5.0663,0.0,0.0,0.0,0.0,0.0,0.0,0.0,0.0,0.0,0.0,0.0,0.0,0.0,0.0,0.0,0.0,0.0,0.0,0.0,0.0,0.0,0.0,0.0,0.0,0.0,0.0,0.0,-5.0902,0.0,0.0,0.0,0.0,0.0,0.0,0.0,0.0,0.0,0.0,0.0,0.0,0.0,0.0,-4.9121,-4.8917,-4.9064,-4.9115,0.0,0.0,-4.9823,-4.998,-5.0511,-5.1188,0.0,0.0,0.0,0.0,0.0,0.0,0.0,0.0,0.0,0.0,0.0,0.0,0.0,0.0,0.0,0.0,0.0,0.0,0.0,0.0,0.0,0.0,0.0,0.0,0.0,0.0,0.0,0.0,0.0,0.0,0.0,0.0,0.0,0.0,0.0,0.0,0.0,0.0,0.0,0.0,0.0,0.0,0.0,0.0,0.0,0.0,0.0,0.0,0.0,0.0,0.0,0.0,0.0,0.0,-4.9664,-4.966,-4.98,-4.9879,-4.9853,-5.0108,-5.0249,-5.0249,-5.0525,-5.0702,0.0,0.0,0.0,0.0,0.0,0.0,0.0,0.0,0.0,0.0,0.0,0.0,0.0,0.0,0.0,0.0,0.0,0.0,0.0,0.0,0.0,0.0,0.0,0.0,0.0,0.0,0.0,0.0,0.0,0.0,0.0,0.0,0.0,0.0,0.0,0.0,0.0,0.0,0.0,0.0,0.0,-4.8364,-4.8364,-4.8989,-4.9483,0.0,-4.9792,-5.0242,-5.0985,-5.113,-5.1439,-5.2236,0.0,0.0,0.0,0.0,0.0,0.0,0.0,0.0,0.0,0.0,0.0,0.0,0.0,0.0,0.0,0.0,0.0,0.0,0.0,0.0,0.0,0.0,0.0,0.0,0.0,0.0,0.0,0.0,0.0,0.0,0.0,0.0,0.0,0.0,0.0,0.0,0.0,0.0,0.0,0.0,0.0,0.0,0.0,0.0,0.0,0.0,0.0,0.0,0.0,0.0,0.0,0.0,0.0,-4.9589,-4.9589,-4.973,-4.9814,-4.9788,-4.9903,-5.0038,-5.0206,-5.0336,-5.0483,0.0,0.0,0.0,0.0,0.0,0.0,0.0,0.0,0.0,0.0,0.0,0.0,0.0,0.0,0.0,0.0,0.0,0.0,0.0,0.0,0.0,0.0,0.0,0.0,0.0,0.0,0.0,0.0,-5.0627,-5.0302,-5.0302,0.0,0.0,0.0,0.0,0.0,0.0,0.0,0.0,0.0,0.0,-4.9095,-4.9093,-4.9515,0.0,0.0,-5.0054,-5.0307,-5.048,-5.1078,-5.149,-5.171,-5.1831,0.0,0.0,0.0,0.0,0.0,0.0,0.0,0.0,0.0,0.0,0.0,0.0,0.0,0.0,0.0,0.0,0.0,0.0,0.0,0.0,0.0,0.0,0.0,0.0,0.0,0.0,0.0,0.0,0.0,0.0,0.0,0.0,0.0,0.0,0.0,0.0,0.0,0.0,0.0,0.0,0.0,0.0,0.0,0.0,0.0,0.0,0.0,0.0,0.0,0.0,0.0,0.0,-4.9408,-4.9408,-4.9598,-4.9655,-4.955,-4.9784,-4.9968,-5.0087,-5.0249,-5.0442,0.0,0.0,0.0,0.0,0.0,0.0,0.0,0.0,0.0,0.0,0.0,0.0,0.0,0.0,0.0,0.0,0.0,0.0,0.0,0.0,0.0,0.0,0.0,0.0,0.0,0.0,0.0,0.0,-5.1089,-5.0539,-5.0545,0.0,0.0,0.0,0.0,0.0,0.0,0.0,0.0,0.0,0.0,-4.9738,-4.9715,-4.9952,-5.0099,-5.0056,-5.0254,-5.0394,-5.0204,-5.0733,-5.1157,-5.1017,0.0,0.0,0.0,0.0,0.0,0.0,0.0,0.0,0.0,0.0,0.0,0.0,0.0,0.0,0.0,0.0,0.0,0.0,0.0,0.0,0.0,0.0,0.0,0.0,0.0,0.0,0.0,-5.3635,0.0,0.0,-5.3491,0.0,0.0,0.0,0.0,0.0,0.0,0.0,0.0,0.0,0.0,0.0,0.0,0.0,0.0,0.0,0.0,0.0,0.0,0.0,0.0,0.0,0.0,-4.8925,-4.8925,-4.9239,-4.9239,-4.8959,-4.9757,-5.0043,-4.9838,-5.0377,-5.0683,-5.0683,0.0,0.0,0.0,0.0,0.0,0.0,0.0,0.0,0.0,0.0,0.0,0.0,0.0,0.0,0.0,0.0,0.0,0.0,0.0,0.0,0.0,0.0,0.0,0.0,0.0,0.0,-5.2824,-5.1756,-5.1093,0.0,0.0,0.0,0.0,0.0,0.0,0.0,0.0,0.0,-5.06,-5.0296,-5.0017,-5.0017,-5.0257,-5.0289,-5.0104,-5.0277,-5.0407,-5.0297,-5.0314,-5.0349,0.0,0.0,0.0,0.0,0.0,0.0,0.0,0.0,0.0,0.0,0.0,0.0,0.0,0.0,0.0,0.0,0.0,0.0,0.0,0.0,0.0,0.0,0.0,0.0,0.0,0.0,0.0,-5.3127,-5.3174,0.0,0.0,0.0,0.0,0.0,0.0,0.0,0.0,0.0,0.0,0.0,-5.2893,-5.2101,0.0,0.0,0.0,0.0,0.0,0.0,0.0,0.0,0.0,0.0,0.0,0.0,-4.889,-4.8909,-4.8993,-4.9027,-4.889,-4.9408,-4.9693,-4.9803,-5.0178,-5.0483,-5.0683,0.0,0.0,0.0,0.0,0.0,0.0,0.0,0.0,0.0,0.0,0.0,0.0,0.0,0.0,0.0,0.0,0.0,0.0,0.0,0.0,0.0,0.0,0.0,0.0,0.0,-5.3741,0.0,0.0,0.0,0.0,0.0,0.0,0.0,0.0,0.0,0.0,-5.0092,-5.0508,-5.0765,-5.0689,-5.0606,-5.0588,-5.0421,-5.0346,0.0,0.0,0.0,0.0,0.0,0.0,0.0,0.0,0.0,0.0,0.0,0.0,0.0,-5.1579,-5.2108,-5.2108,-5.2012,-5.1866,-5.1848,0.0,0.0,0.0,0.0,0.0,0.0,0.0,0.0,0.0,0.0,0.0,0.0,0.0,0.0,-5.3612,-5.3609,-5.3676,0.0,0.0,0.0,0.0,0.0,0.0,0.0,0.0,-5.3517,-5.3488,-5.3551,-5.2839,-5.2454,0.0,-5.1721,-5.1237,0.0,0.0,0.0,0.0,0.0,0.0,0.0,0.0,-4.889,-4.8909,-4.9027,-4.9027,-4.8943,-4.9315,-4.9627,-4.9784,-5.0178,-5.0483,-5.0683,-5.0683,-5.0544,0.0,0.0,0.0,0.0,0.0,0.0,0.0,0.0,0.0,0.0,0.0,0.0,0.0,0.0,0.0,0.0,0.0,0.0,0.0,0.0,0.0,0.0,0.0,-5.4256,0.0,0.0,0.0,0.0,0.0,0.0,0.0,0.0,0.0,-5.049,-5.0675,-5.0952,-5.1225,-5.0937,-5.0677,-5.0677,0.0,0.0,0.0,0.0,0.0,0.0,0.0,-4.929,-4.9185,-4.9246,-4.9367,-4.9411,-4.9774,-5.008,-5.0155,0.0,0.0,-5.1494,-5.1474,-5.1314,-5.1314,-5.2112,-5.2466,-5.1421,-5.2214,-5.2571,0.0,0.0,0.0,0.0,0.0,0.0,0.0,0.0,-5.4496,-5.483,0.0,-5.483,0.0,0.0,0.0,0.0,-5.4857,-5.4838,0.0,0.0,-5.4339,-5.4096,-5.4081,-5.3567,-5.3301,-5.3282,-5.2847,-5.2226,-5.1448,-5.0692,0.0,0.0,0.0,0.0,0.0,0.0,-4.889,-4.889,-4.9193,-4.9225,-4.8925,-4.948,-4.9803,-4.983,-5.0396,-5.0683,-5.0683,-5.0683,-5.0544,-5.0225,-5.0087,0.0,0.0,0.0,0.0,0.0,0.0,0.0,0.0,0.0,0.0,0.0,0.0,0.0,0.0,0.0,0.0,0.0,0.0,0.0,0.0,-5.5377,0.0,0.0,0.0,0.0,0.0,0.0,0.0,0.0,0.0,-5.1888,-5.1995,-5.1373,-5.1228,-5.1986,0.0,0.0,0.0,0.0,-4.9411,-4.9229,-4.9168,-4.9168,-4.9001,-4.9018,-4.9018,-4.9001,0.0,0.0,-4.9168,-4.9229,-4.9282,-4.9451,-4.9529,-4.9923,-5.1263,-5.1106,-5.0766,-5.0749,-5.0657,-5.0477,-5.0515,-5.0875,-5.1105,-5.0598,0.0,0.0,0.0,0.0,-5.331,-5.3871,-5.4105,-5.4382,-5.447,-5.4474,-5.4646,0.0,0.0,0.0,0.0,0.0,0.0,-5.4591,-5.4697,-5.4522,-5.4496,-5.459,-5.3807,-5.3434,-5.3415,-5.2691,-5.1942,-5.1144,-5.0924,-5.0391,-4.9548,0.0,0.0,0.0,0.0,-4.889,-4.889,-4.8993,-4.8993,-4.889,-4.9283,-4.9712,-5.0087,-5.0249,-5.0462,-5.0683,-5.0683,-5.0544,-5.0225,-5.0159,0.0,0.0,0.0,0.0,0.0,0.0,0.0,0.0,0.0,0.0,0.0,0.0,0.0,0.0,0.0,0.0,0.0,0.0,0.0,-5.5403,-5.514,-5.5009,0.0,0.0,0.0,0.0,0.0,0.0,0.0,0.0,0.0,-5.2712,-5.2091,-5.1802,0.0,0.0,-5.0107,-5.009,-4.9538,-4.9124,-4.9063,-4.9063,0.0,-4.9001,-4.9018,-4.9018,-4.9018,-4.9018,-4.9001,-4.9063,-4.9124,-4.9229,-4.9307,-4.9428,-4.9624,-4.9983,-5.0,-4.9901,-4.9866,-4.9808,-4.9791,-4.9791,-4.9948,-5.0022,-5.0299,-5.0285,-5.16,-5.2436,-5.2975,-5.3513,-5.387,-5.4089,-5.4089,-5.4118,-5.41,-5.4221,-5.4164,-5.3999,-5.4111,0.0,0.0,0.0,-5.4198,-5.43,-5.4434,-5.4514,-5.4554,-5.4197,-5.4029,-5.3962,-5.335,-5.2689,-5.1973,-5.1775,-5.1055,-4.9872,0.0,-4.9027,-4.889,-4.889,-4.889,-4.889,-4.889,-4.889,-4.889,-4.9239,-4.9612,-5.0038,-5.0159,-5.0358,-5.0683,-5.0683,-5.0604,-5.0402,-5.0597,-5.1128,0.0,0.0,0.0,0.0,0.0,0.0,0.0,0.0,0.0,0.0,0.0,-5.4607,-5.5056,0.0,0.0,0.0,-5.5294,-5.5377,-5.5313,-5.514,0.0,0.0,0.0,0.0,0.0,0.0,0.0,-5.2955,-5.2893,-5.285,-5.2893,-5.2315,-5.1782,-5.1661,-5.0462,-4.9622,-4.9622,0.0,-4.9018,-4.9018,-4.9018,-4.9018,-4.9018,-4.9018,-4.9018,-4.9018,-4.9018,-4.9018,-4.9001,-4.9063,-4.9141,-4.9131,-4.9236,-4.9416,-4.9678,-4.9718,-4.9794,-4.9871,-4.9871,-4.9957,-5.0247,-5.0315,-5.0254,-5.0043,-5.0945,-5.2655,-5.3465,-5.37,-5.3716,-5.3754,-5.3813,-5.3813,-5.3813,-5.3813,-5.3813,-5.3813,-5.3813,-5.3813,0.0,-5.3813,-5.3813,-5.3813,-5.3813,-5.4125,-5.4246,-5.4281,-5.4591,-5.4716,-5.4716,-5.4416,-5.3964,-5.3388,-5.2837,-5.195,-5.0665,-4.984,-4.9281,-4.8909,-4.889,-4.889,-4.889,-4.889,-4.889,-4.8909,-4.9203,-4.9501,-4.9749,-5.0038,-5.0317,-5.0643,-5.0741,-5.0798,-5.0818,-5.1341,-5.2097,-5.3072,0.0,0.0,0.0,0.0,0.0,0.0,0.0,0.0,0.0,0.0,0.0,0.0,0.0,0.0,-5.5183,-5.5313,0.0,-5.5229,-5.5267,0.0,0.0,0.0,-5.3831,-5.3254,-5.2945,-5.2761,-5.2635,0.0,0.0,-5.2761,-5.2042,-5.1381,-5.0911,-4.9873,-4.9063,-4.9001,-4.9001,-4.9018,-4.9018,-4.9018,-4.9018,-4.9018,-4.9018,-4.9018,-4.9018,-4.9018,-4.9018,-4.9018,-4.9018,-4.9001,-4.9165,-4.9086,-4.9328,-5.0032,-5.0223,-5.0328,-5.068,-5.0567,-5.0674,-5.1201,-5.1354,-5.1337,-4.9748,-5.0606,-5.1818,-5.282,-5.3542,-5.3697,-5.3774,-5.3813,-5.3813,-5.3813,-5.3813,-5.3813,-5.3813,-5.3813,-5.3813,-5.3813,-5.3813,-5.3813,-5.3813,-5.3813,-5.387,-5.3926,-5.3944,-5.4,-5.4017,-5.4017,-5.3963,-5.3535,-5.2844,-5.2679,-5.2122,-5.119,-5.0368,-4.9573,-4.8927,-4.889,-4.889,-4.889,-4.889,-4.889,-4.889,-4.8964,-4.9202,-4.9469,-4.9749,-5.0038,-5.0313,-5.1179,-5.1606,-5.1645,-5.2392,-5.324,-5.4169,-5.3967,0.0,0.0,0.0,0.0,0.0,0.0,0.0,0.0,0.0,-5.499,-5.496,0.0,-5.5094,0.0,-5.5286,-5.5339,-5.5203,-5.499,0.0,0.0,-5.3915,-5.347,-5.3361,-5.2917,-5.2654,-5.2761,-5.2654,-5.259,-5.2654,-5.1647,-5.0858,-5.0734,-5.0124,-4.9496,-4.9124,-4.9018,-4.9018,-4.9018,-4.9018,-4.9018,-4.9018,-4.9018,-4.9018,-4.9018,-4.9018,-4.9018,-4.9018,-4.9018,-4.9182,-4.9712,-4.9808,-5.0135,-5.0815,-5.0916,-5.1166,-5.1671,-5.1417,-5.1061,-5.1265,-5.1427,-5.1427,-4.9704,-5.0503,-5.1587,-5.2481,-5.3175,-5.3363,-5.3542,-5.36,-5.3717,-5.3813,-5.3813,-5.3813,-5.3813,-5.3813,-5.3813,-5.3813,-5.3813,-5.3813,-5.3813,-5.3813,-5.3813,-5.3813,-5.3813,-5.3813,-5.3813,-5.3813,-5.3813,-5.3552,-5.3142,-5.3125,-5.2735,-5.1936,-5.1454,-5.0636,-4.9466,-4.9076,-4.889,-4.889,-4.889,-4.889,-4.889,-4.889,-4.9061,-4.9384,-4.9655,-5.0088,-5.0779,-5.1502,-5.2007,-5.2267,-5.3111,-5.3807,-5.4336,-5.4456,-5.4877,0.0,0.0,0.0,0.0,0.0,0.0,0.0,0.0,0.0,0.0,0.0,-5.5028,-5.5028,-5.5159,-5.5214,-5.5121,-5.4806,-5.4572,-5.4484,-5.3812,-5.3364,-5.329,-5.289,-5.2608,-5.2645,-5.2599,-5.2536,-5.2536,-5.1964,-5.1294,-5.0805,-5.0442,-4.9971,-4.9168,-4.9018,-4.9018,-4.9018,-4.9018,-4.9018,-4.9018,-4.9018,-4.9018,-4.9035,-4.9272,-4.9492,-4.9492,-4.9763,-5.0113,-5.0515,-5.0612,-5.0798,-5.1526,-5.1693,-5.1944,-5.2553,-5.252,-5.2266,-5.2232,-5.2298,-5.238,-4.9543,-5.0469,-5.1553,-5.2232,-5.2554,-5.2907,-5.3198,-5.34,-5.3697,-5.3813,-5.3813,-5.3813,-5.3813,-5.3813,-5.3813,-5.3813,-5.3813,-5.3813,-5.3813,-5.3813,-5.3813,-5.3813,-5.3813,-5.3813,-5.3813,-5.3813,-5.3813,-5.3813,-5.3813,-5.3813,-5.346,-5.2772,-5.2642,-5.1862,-5.045,-4.9503,-4.902,-4.889,-4.889,-4.889,-4.889,-4.889,-4.9083,-4.9502,-4.9807,-5.0487,-5.1553,-5.202,-5.2444,-5.293,-5.3771,-5.4254,-5.4326,-5.5001,-5.5474,0.0,-5.5705,0.0,0.0,0.0,0.0,0.0,0.0,0.0,0.0,-5.4901,-5.4901,-5.4931,-5.5028,-5.5066,-5.5,-5.4746,-5.4514,-5.4396,-5.3832,-5.335,-5.3135,-5.2799,-5.2581,-5.248,-5.2498,-5.2498,-5.248,-5.2434,-5.1933,-5.0911,-5.0589,-5.0124,-4.9273,-4.9018,-4.9018,-4.9018,-4.9018,-4.9018,-4.9035,-4.9103,-4.9187,-4.9221,-4.9763,-5.0219,-5.0253,-5.0744,-5.1163,-5.1327,-5.1325,-5.1592,-5.2287,-5.2437,-5.2689,-5.3315,-5.3399,-5.3399,-5.3382,-5.3365,-5.3551,-4.8789,-5.0107,-5.0768,-5.1292,-5.1688,-5.2499,-5.3175,-5.3736,-5.3774,-5.3813,-5.3813,-5.3813,-5.3813,-5.3813,-5.3813,-5.3813,-5.3813,-5.3813,-5.3813,-5.3813,-5.3813,-5.3813,-5.3813,-5.3813,-5.3813,-5.3813,-5.3813,-5.3813,-5.3813,-5.3813,-5.372,-5.3571,-5.2921,-5.2438,-5.2067,0.0,0.0,0.0,-4.889,-4.889,-4.889,-4.889,-4.9259,-5.0017,-5.0587,0.0,-5.2132,-5.333,-5.4047,-5.4177,-5.4927,0.0,0.0,0.0,0.0,0.0,0.0,0.0,0.0,0.0,0.0,0.0,-5.4901,-5.4901,-5.4901,-5.4941,-5.499,-5.4971,-5.5057,-5.5066,-5.4981,-5.4952,-5.4603,-5.3941,-5.3716,-5.3385,-5.2754,-5.2562,-5.2526,-5.248,-5.2498,-5.2498,-5.248,-5.2096,-5.1533,-5.0858,-5.0349,-4.9756,-4.9124,-4.9035,-4.9018,-4.9018,-4.9069,-4.9035,-4.9018,-4.9509,-4.9898,-4.9982,-5.0524,-5.0963,-5.1014,-5.1133,-5.1485,-5.1932,-5.2092,-5.235,-5.3095,-5.3298,-5.3281,-5.3467,-5.3518,-5.3518,-5.3518,-5.3618,-5.3815,-4.8683,-5.023,-5.0655,-5.1088,0.0,-5.2239,-5.2813,-5.33,-5.3481,-5.3462,-5.33,-5.3318,-5.34,-5.3542,-5.3569,-5.3664,-5.3813,-5.3813,-5.3813,-5.3813,-5.3813,-5.3813,-5.3813,-5.3813,-5.3813,-5.3813,-5.3813,-5.3813,-5.3813,-5.3813,-5.3813,-5.3813,-5.3404,-5.2995,-5.2568,-5.0952,-4.9707,-4.8909,-4.889,-4.889,-4.8909,-4.9299,-4.9707,-5.017,-5.1148,0.0,0.0,0.0,0.0,0.0,0.0,0.0,0.0,-5.5285,0.0,-5.5885,-5.571,-5.5519,-5.5364,-5.5339,-5.5229,-5.4931,-5.4901,-5.4901,-5.4901,-5.4931,-5.4941,-5.496,-5.4971,-5.4971,-5.4941,-5.4754,-5.442,-5.3791,-5.3542,-5.3162,-5.2599,-5.2498,-5.2498,-5.2498,-5.2498,-5.2498,-5.2498,-5.2275,-5.1835,-5.1278,-5.1299,-5.0997,-5.0112,-4.9406,-4.9103,-4.9458,-4.9543,-4.9678,-5.0033,-5.0355,-5.0642,-5.0744,-5.1268,-5.1691,-5.1742,-5.208,-5.2435,-5.2855,-5.2907,-5.3061,-5.3382,-5.3518,-5.3518,-5.3518,-5.3518,-5.3771,-5.4258,-5.4039,-5.3766,-4.9028,-5.0511,-5.0855,-5.1351,-5.1874,-5.2264,-5.2545,-5.2824,-5.3109,0.0,0.0,-5.2868,-5.3023,-5.33,-5.338,-5.3533,-5.3813,-5.3813,-5.3813,-5.3813,-5.3813,-5.3813,-5.3813,-5.3813,-5.3813,-5.3813,-5.3813,-5.3813,-5.3813,-5.3813,-5.3813,-5.3813,-5.3813,-5.3423,-5.2568,-5.1249,-5.0079,-4.915,-4.8964,-4.889,-4.8909,-4.9559,-4.9968,-5.0116,-5.1374,-5.2475,-5.3357,-5.4092,-5.4389,-5.4215,-5.4939,-5.5125,-5.4583,-5.5201,-5.5729,-5.5975,-5.6012,-5.5866,-5.5527,-5.5523,-5.5314,-5.4912,-5.4901,-5.4901,-5.4901,-5.4901,-5.4977,-5.511,-5.5148,-5.5185,-5.5318,-5.4966,-5.4589,-5.4148,-5.3773,-5.3401,-5.3025,-5.2915,-5.3005,-5.2933,-5.3005,-5.2933,-5.2987,-5.3005,-5.269,-5.2287,-5.2585,-5.2644,-5.1535,-5.0281,-4.9712,-5.0198,-5.027,-5.057,-5.1142,-5.1383,-5.1451,-5.163,-5.2143,-5.2486,-5.2604,-5.3111,-5.3617,-5.3647,-5.3766,-5.398,-5.4049,-5.4282,-5.4137,-5.4273,-5.4307,-5.4658,-5.5559,-5.5142,-5.4733,-4.9872,-5.0823,-5.1665,-5.204,-5.219,-5.2859,-5.3023,-5.2806,-5.285,-5.285,-5.2806,-5.3097,-5.3248,-5.33,-5.3602,-5.3775,-5.3813,-5.3813,-5.3813,-5.3813,-5.3813,-5.3813,-5.3813,-5.3813,-5.3813,-5.3813,-5.3813,-5.3813,-5.3813,-5.3813,-5.3813,-5.3813,-5.3813,-5.3423,-5.2642,-5.2364,-5.1491,-4.9968,-4.9262,-4.889,-4.8909,-4.902,-4.941,-5.0114,-5.0915,-5.1651,-5.2466,-5.3805,-5.4493,-5.4475,-5.5264,-5.5729,-5.575,-5.5827,-5.5942,-5.5995,-5.6012,-5.5866,-5.5508,-5.5523,-5.5333,-5.4941,-5.4901,-5.4901,-5.4901,-5.4901,-5.5204,-5.5925,-5.6,-5.6304,-5.6879,-5.6587,-5.6088,-5.5747,-5.5373,-5.4966,-5.452,-5.4472,-5.4454,-5.4436,-5.4562,-5.4508,-5.4418,-5.4454,-5.4188,-5.3806,-5.3705,-5.3567,-5.2897,-5.1723,-5.1024,-5.0977,-5.1061,-5.132,-5.2032,-5.2128,-5.2469,-5.2946,-5.3215,-5.343,-5.3413,-5.3943,-5.4333,-5.4316,-5.4844,-5.5441,-5.6094,-5.6382,-5.6515,-5.6825,-5.7044,-5.7367,-5.7568,-5.7515,-5.7659,-5.0681,-5.1585,-5.2047,-5.2372,-5.2541,-5.2895,-5.2937,-5.2806,-5.2806,-5.2654,-5.2554,-5.287,-5.3134,-5.33,-5.3473,-5.3645,-5.3813,-5.3813,-5.3813,-5.3813,-5.3813,-5.3813,-5.3813,-5.3813,-5.3813,-5.3813,-5.3813,-5.3813,-5.3813,-5.3813,-5.3813,-5.3813,-5.3813,-5.3608,-5.3237,-5.3011,-5.2501,-5.1734,-5.0296,-4.9458,-4.9197,-5.0034,-5.0731,-5.1318,-5.2627,-5.3548,-5.3903,-5.4764,-5.5016,-5.4555,-5.5422,-5.575,-5.5397,-5.5764,-5.5996,-5.6012,-5.6012,-5.5866,-5.5508,-5.5288,-5.5303,-5.5595,-5.5602,-5.5792,-5.6228,-5.5849,-5.5943,-5.6758,-5.6853,-5.6986,-5.7346,-5.6983,-5.6537,-5.6137,-5.5742,-5.5332,-5.4985,-5.4907,-5.4907,-5.4907,-5.4907,-5.4907,-5.4907,-5.4907,-5.484,-5.4507,-5.4574,-5.4599,-5.4758,-5.4093,-5.3297,-5.2942,-5.2804,-5.3125,-5.3756,-5.394,-5.4104,-5.4443,-5.4495,-5.4551,-5.454,-5.5043,-5.5549,-5.5732,-5.6294,-5.6935,-5.749,-5.7557,-5.7765,-5.7901,-5.8155,-5.8337,-5.8984,-5.9809,-6.0141,-5.1506,-5.2299,-5.2544,-5.2754,-5.2978,-5.295,-5.2937,-5.2937,-5.298,-5.2813,-5.2508,-5.2768,-5.3071,-5.3318,-5.3399,-5.3644,-5.4035,-5.4073,-5.4184,-5.4351,-5.437,-5.437,-5.437,-5.437,-5.4258,-5.4091,-5.4073,-5.398,-5.3831,-5.3813,-5.3813,-5.3794,-5.3851,-5.3907,-5.3926,-5.3662,-5.3427,-5.3118,-5.1668,-5.06,-5.0108,-5.1287,-5.2043,-5.2409,-5.3849,-5.4765,-5.479,-5.5278,-5.5229,-5.4727,-5.5498,-5.5727,-5.5142,-5.5664,-5.6012,-5.6012,-5.6012,-5.5847,-5.5527,-5.5121,-5.528,-5.6133,-5.6209,-5.6607,-5.7497,-5.7118,-5.7005,-5.7573,-5.7706,-5.7763,-5.7959,-5.7604,-5.7136,-5.6813,-5.6319,-5.6045,-5.5655,-5.5511,-5.5414,-5.5414,-5.5414,-5.545,-5.5432,-5.5432,-5.5486,-5.5478,-5.5482,-5.5843,-5.632,-5.6062,-5.5561,-5.5049,-5.4635,-5.4723,-5.5414,-5.5408,-5.5478,-5.5736,-5.5783,-5.5823,-5.5981,-5.6575,-5.7058,-5.7322,-5.7868,-5.8488,-5.8795,-5.8979,-5.9161,-5.9394,-5.9576,-5.9721,-6.0666,-6.1604,-6.1943,-5.2445,-5.2736,-5.329,-5.3637,-5.3641,-5.3381,-5.3258,-5.33,-5.3561,-5.3521,-5.3212,-5.324,-5.3291,-5.3318,-5.3602,-5.4184,-5.4853,-5.489,-5.5299,-5.5949,-5.6079,-5.606,-5.5986,-5.6023,-5.5652,-5.4983,-5.4909,-5.4537,-5.3887,-5.3813,-5.3813,-5.3832,-5.4089,-5.4246,-5.4277,-5.456,-5.4343,-5.3583,-5.3395,-5.2883,-5.2096,-5.2191,-5.2295,-5.2406,-5.2818,-5.3062,-5.336,-5.4168,-5.4708,-5.4743,-5.5535,-5.5959,-5.5879,-5.5973,-5.6012,-5.6012,-5.6012,-5.5866,-5.5508,-5.5121,-5.5299,-5.6095,-5.6285,-5.6948,-5.8388,-5.8502,-5.8464,-5.8559,-5.8559,-5.8843,-5.9544,-5.9168,-5.8784,-5.8634,-5.8011,-5.7657,-5.7454,-5.7249,-5.6989,-5.6971,-5.6808,-5.6989,-5.6808,-5.679,-5.6862,-5.6736,-5.6707,-5.6783,-5.6957,-5.6927,-5.6845,-5.665,-5.6059,-5.5667,-5.6035,-5.5751,-5.6109,-5.6982,-5.6972,-5.7011,-5.7453,-5.8121,-5.8693,-5.886,-5.9348,-6.0064,-6.0708,-6.1218,-6.1368,-6.1456,-6.1761,-6.2223,-6.2508,-6.2558,-6.2343,-5.323,-5.3285,-5.3616,-5.3774,-5.3774,-5.3621,-5.36,-5.36,-5.3736,-5.3736,-5.3619,-5.361,-5.3592,-5.3637,-5.4235,-5.4721,-5.5039,-5.5559,-5.5949,-5.6302,-5.632,-5.632,-5.632,-5.632,-5.6097,-5.58,-5.5763,-5.5336,-5.4594,-5.4223,-5.4071,-5.4106,-5.443,-5.4623,-5.4666,-5.4971,-5.4955,-5.4615,-5.479,-5.4737,-5.4326,-5.3702,-5.3454,-5.3702,-5.4254,-5.4647,-5.4687,-5.5172,-5.544,-5.5477,-5.5824,-5.6014,-5.6012,-5.6012,-5.6012,-5.5995,-5.5827,-5.5643,-5.5523,-5.5616,-5.6019,-5.6834,-5.7384,-5.818,-5.926,-5.9412,-5.9393,-5.9393,-5.9393,-5.9563,-5.9796,-5.947,-5.9215,-5.9084,-5.8424,-5.7905,-5.7905,-5.7516,-5.7188,-5.7188,-5.7188,-5.7188,-5.7188,-5.7188,-5.7188,-5.7188,-5.7188,-5.7188,-5.7188,-5.7188,-5.7239,-5.722,-5.6775,-5.6635,-5.6776,-5.7065,-5.7424,-5.7944,-5.843,-5.8717,-5.8952,-5.9709,-6.0302,-6.03,-6.0835,-6.1474,-6.2068,-6.226,-6.2456,-6.265,-6.2718,-6.2695,-6.2199,-6.2089,-6.1893,-5.3714,-5.3753,-5.3774,-5.3813,-5.3813,-5.3813,-5.3813,-5.3813,-5.3813,-5.3813,-5.3831,-5.4055,-5.411,-5.4221,-5.4775,-5.522,-5.5744,-5.6339,-5.6766,-5.6933,-5.6952,-5.6952,-5.6952,-5.6952,-5.684,-5.6655,-5.6617,-5.6211,-5.551,-5.4926,-5.4668,-5.4764,-5.4901,-5.4962,-5.5026,-5.5331,-5.5489,-5.5461,-5.5724,-5.5827,-5.569,-5.5047,-5.472,-5.4959,-5.5557,-5.5924,-5.5943,-5.598,-5.5998,-5.5998,-5.5995,-5.6012,-5.6012,-5.6012,-5.6012,-5.5975,-5.5747,-5.5646,-5.5811,-5.6091,-5.6668,-5.7649,-5.8369,-5.9014,-5.9715,-5.9904,-5.9904,-5.9866,-5.9904,-5.9866,-5.9853,-5.9594,-5.9416,-5.9344,-5.8691,-5.8227,-5.8113,-5.769,-5.7338,-5.7239,-5.7188,-5.7188,-5.7188,-5.7188,-5.7188,-5.7188,-5.7188,-5.7188,-5.7188,-5.7188,-5.7239,-5.737,-5.727,-5.7257,-5.7293,-5.7481,-5.8127,-5.8646,-5.9009,-5.9369,-5.9899,-6.0555,-6.1135,-6.0796,-6.1788,-6.2365,-6.2553,-6.2732,-6.2548,-6.2456,-6.231,-6.2016,-6.1374,-6.1282,-6.0915,-5.3716,-5.3774,-5.3813,-5.3813,-5.3813,-5.3813,-5.3813,-5.3813,-5.3813,-5.3813,-5.3961,-5.4595,-5.4949,-5.502,-5.5164,-5.5887,-5.723,-5.7398,-5.7825,-5.8401,-5.8494,-5.8568,-5.8605,-5.8605,-5.8178,-5.749,-5.7435,-5.7188,-5.6682,-5.5892,-5.5612,-5.5887,-5.5527,-5.5306,-5.5356,-5.5726,-5.5924,-5.5865,-5.5924,-5.5943,-5.5904,-5.5866,-5.5846,-5.5865,-5.598,-5.5998,-5.5995,-5.5995,-5.6012,-5.5995,-5.6012,-5.6012,-5.6012,-5.6012,-5.6012,-5.5995,-5.5885,-5.6049,-5.6482,-5.6542,-5.7092,-5.8337,-5.8691,-5.9051,-5.9791,-5.9904,-5.9904,-5.9904,-5.9904,-5.9904,-5.9904,-5.9853,-5.9801,-5.9801,-5.9416,-5.893,-5.8586,-5.8068,-5.769,-5.7338,-5.7188,-5.7188,-5.7188,-5.7188,-5.7188,-5.7188,-5.7188,-5.7188,-5.7239,-5.7188,-5.7289,-5.7406,-5.7388,-5.7388,-5.7406,-5.7701,-5.7942,-5.8442,-5.9028,-5.9224,-5.9711,-6.0236,-6.0688,-6.1035,-6.1327,-6.1798,-6.2517,-6.2603,-6.2218,-6.1832,-6.1208,-6.0768,-6.0529,-6.0474,-6.0107,-5.3793,-5.3813,-5.3813,-5.3813,-5.3813,-5.3813,-5.3813,-5.3813,-5.3813,-5.411,-5.4556,-5.4893,-5.5618,-5.6599,-5.6611,-5.6926,-5.7528,-5.8029,-5.8438,-5.8698,-5.8698,-5.8698,-5.8698,-5.8698,-5.8586,-5.8326,-5.8252,-5.8008,-5.7561,-5.715,-5.6759,-5.6404,-5.6424,-5.6239,-5.5822,-5.5885,-5.5999,-5.598,-5.5998,-5.5979,-5.6018,-5.5979,-5.5996,-5.5996,-5.5996,-5.6014,-5.6012,-5.6012,-5.6012,-5.6012,-5.6012,-5.6012,-5.6012,-5.6012,-5.6012,-5.6033,-5.6368,-5.6629,-5.6789,-5.7542,-5.8206,-5.8628,-5.9184,-5.9544,-5.9809,-5.9904,-5.9904,-5.9904,-5.9904,-5.9904,-5.9904,-5.9904,-5.9904,-5.9853,-5.9505,-5.9046,-5.8609,-5.8201,-5.7719,-5.7338,-5.7188,-5.7188,-5.7188,-5.7188,-5.7188,-5.7188,-5.7188,-5.7239,-5.7307,-5.7356,-5.7388,-5.7601,-5.7601,-5.7553,-5.7649,-5.8063,-5.8451,-5.8841,-5.9268,-5.9694,-6.0097,-6.0073,-6.0414,-6.0506,-6.0682,-6.0896,-6.1502,-6.141,-6.1172,-6.1006,-6.0364,-5.9905,-5.9722,-5.9667,-5.9245,-5.3813,-5.3813,-5.3813,-5.3813,-5.3813,-5.3813,-5.3813,-5.3813,-5.3813,-5.4258,-5.4946,-5.5263,-5.6211,-5.7416,-5.7784,-5.7914,-5.7936,-5.8456,-5.8698,-5.8698,-5.8698,-5.8698,-5.8698,-5.8698,-5.8781,-5.8847,-5.9005,-5.8933,-5.8736,-5.8387,-5.7966,-5.7569,-5.7552,-5.7293,-5.6811,-5.681,-5.6847,-5.6844,-5.6861,-5.6844,-5.6844,-5.6824,-5.6844,-5.6844,-5.6844,-5.6534,-5.6051,-5.6012,-5.6012,-5.6012,-5.6012,-5.6012,-5.6012,-5.6283,-5.6418,-5.6478,-5.7062,-5.7453,-5.7575,-5.8421,-5.9005,-5.9083,-5.9544,-5.9904,-5.9904,-5.9904,-5.9904,-5.9904,-5.9904,-5.9904,-5.9904,-5.9904,-5.9904,-5.9885,-5.9628,-5.9252,-5.887,-5.8545,-5.8068,-5.7594,-5.7289,-5.7239,-5.7188,-5.7188,-5.7188,-5.7188,-5.7188,-5.7257,-5.7356,-5.7406,-5.7504,-5.7745,-5.7715,-5.7745,-5.7792,-5.8055,-5.816,-5.8531,-5.8713,-5.9358,-5.9766,-5.9777,-5.985,-5.996,-6.007,-6.0162,-6.0181,-6.0126,-6.007,-6.0034,-5.9575,-5.9043,-5.8914,-5.8822,-5.8565,-5.3813,-5.3813,-5.3813,-5.3813,-5.3813,-5.3813,-5.3813,-5.3813,-5.385,-5.4388,-5.5206,-5.593,-5.6785,-5.7602,-5.8308,-5.8642,-5.8624,-5.8661,-5.8698,-5.8698,-5.8698,-5.8698,-5.8698,-5.8739,-5.8926,-5.9215,-5.9605,-5.995,-6.0056,-5.945,-5.921,-5.9306,-5.874,-5.8375,-5.8414,-5.8316,-5.8449,-5.837,-5.8331,-5.8428,-5.8566,-5.8391,-5.8352,-5.841,-5.8391,-5.7695,-5.6225,-5.6167,-5.6244,-5.6205,-5.6186,-5.607,-5.6341,-5.6902,-5.7327,-5.7425,-5.7949,-5.855,-5.8993,-5.9014,-5.9348,-5.9646,-5.9866,-5.9904,-5.9904,-5.9904,-5.9904,-5.9904,-5.9904,-5.9904,-5.9904,-5.9904,-5.9904,-5.9904,-5.9834,-5.9647,-5.9289,-5.9159,-5.8852,-5.8023,-5.7546,-5.7239,-5.7188,-5.7188,-5.7188,-5.7188,-5.7239,-5.7307,-5.7455,-5.7455,-5.7553,-5.7745,-5.781,-5.7857,-5.7932,-5.7997,-5.7922,-5.793,-5.804,-5.838,-5.8574,-5.8657,-5.8914,-5.9061,-5.9189,-5.93,-5.9483,-5.9428,-5.9245,-5.9098,-5.8602,-5.8382,-5.8364,-5.8345,-5.8235,-5.3813,-5.3813,-5.3813,-5.3813,-5.3813,-5.3813,-5.3813,-5.3868,-5.4351,-5.5094,-5.593,-5.675,-5.7568,-5.8215,-5.8624,-5.8698,-5.8698,-5.8698,-5.8698,-5.8698,-5.8698,-5.8698,-5.8721,-5.8947,-5.9271,-5.9605,-5.9981,-6.0208,-6.0264,-6.024,-6.0084,-5.9639,-5.9414,-5.9031,-5.8587,-5.8586,-5.8604,-5.8586,-5.8604,-5.8586,-5.8605,-5.8605,-5.8623,-5.8584,-5.8584,-5.8294,-5.783,-5.7791,-5.7791,-5.7753,-5.7791,-5.7791,-5.783,-5.8023,-5.8197,-5.8294,-5.8954,-5.9277,-5.9248,-5.9683,-5.9903,-5.9956,-5.9904,-5.9904,-5.9904,-5.9904,-5.9904,-5.9904,-5.9904,-5.9904,-5.9904,-5.9904,-5.9885,-5.9904,-5.9904,-5.9715,-5.9325,-5.9027,-5.8632,-5.8157,-5.784,-5.7671,-5.737,-5.7289,-5.7289,-5.7338,-5.7338,-5.7406,-5.7601,-5.7649,-5.7745,-5.7904,-5.795,-5.795,-5.7978,-5.7978,-5.7932,-5.7886,-5.7886,-5.7886,-5.7932,-5.8015,-5.8217,-5.8327,-5.8437,-5.8565,-5.8731,-5.8731,-5.8602,-5.8455,-5.8235,-5.8088,-5.8015,-5.7978,-5.7978,-5.3813,-5.3813,-5.3813,-5.3813,-5.3813,-5.3813,-5.3813,-5.3924,-5.4667,-5.5503,-5.632,-5.7144,-5.7981,-5.8568,-5.8698,-5.8698,-5.8698,-5.8698,-5.8781,-5.8825,-5.8739,-5.8762,-5.8926,-5.9378,-5.9706,-5.9988,-6.0313,-6.0475,-6.052,-6.0671,-6.0599,-6.0181,-6.0149,-5.9978,-5.9495,-5.9514,-5.9532,-5.9533,-5.9552,-5.9533,-5.9533,-5.9533,-5.9533,-5.9532,-5.9532,-5.9532,-5.9513,-5.9513,-5.9223,-5.8739,-5.8584,-5.8584,-5.8604,-5.8855,-5.9068,-5.9242,-5.9727,-6.0066,-5.9805,-6.0097,-6.0256,-5.9963,-5.9904,-5.9904,-5.9904,-5.9904,-5.9904,-5.9904,-5.9904,-5.9918,-5.995,-5.995,-5.995,-5.9963,-5.9918,-5.9782,-5.9467,-5.9214,-5.895,-5.8673,-5.8447,-5.8102,-5.7794,-5.7642,-5.7498,-5.7534,-5.7486,-5.7534,-5.7745,-5.7792,-5.7904,-5.795,-5.7978,-5.7978,-5.7978,-5.7978,-5.7978,-5.7978,-5.7978,-5.7978,-5.7978,-5.7978,-5.8088,-5.8107,-5.818,-5.8198,-5.8345,-5.8272,-5.8143,-5.7997,-5.8125,-5.7997,-5.7997,-5.7978,-5.7978,-5.3813,-5.3813,-5.3813,-5.3813,-5.3813,-5.3813,-5.3887,-5.4035,-5.4779,-5.5652,-5.645,-5.7348,-5.8036,-5.8586,-5.8698,-5.8698,-5.8698,-5.8762,-5.8926,-5.9064,-5.9005,-5.9044,-5.9378,-5.9931,-6.0198,-6.0361,-6.061,-6.0757,-6.0734,-6.0846,-6.0914,-6.088,-6.0865,-6.0983,-6.0809,-6.1021,-6.0905,-6.0847,-6.0944,-6.0925,-6.0925,-6.0983,-6.0983,-6.0944,-6.0925,-6.0886,-6.0847,-6.0809,-6.0248,-5.901,-5.8952,-5.899,-5.8952,-5.9532,-5.9957,-5.9996,-6.0517,-6.0596,-6.0476,-6.0319,-6.0169,-5.995,-5.9904,-5.9904,-5.9904,-5.9904,-5.9904,-5.9904,-5.9918,-5.995,-5.9963,-5.9994,-6.0026,-6.0087,-5.9994,-5.9912,-5.9969,-5.9706,-5.9484,-5.9359,-5.9103,-5.8697,-5.8277,-5.8208,-5.7978,-5.7784,-5.766,-5.7679,-5.7792,-5.7857,-5.7904,-5.7932,-5.7978,-5.7978,-5.7978,-5.7978,-5.7978,-5.7978,-5.7997,-5.8033,-5.8015,-5.8015,-5.7978,-5.7978,-5.8217,-5.8143,-5.8217,-5.84,-5.851,-5.8694,-5.8584,-5.8198,-5.8272,-5.8529,-5.8565,-5.4055,-5.3813,-5.3813,-5.3813,-5.3813,-5.3813,-5.4166,-5.476,-5.5596,-5.6413,-5.7212,-5.8011,-5.8438,-5.8698,-5.8698,-5.8698,-5.8762,-5.8966,-5.9065,-5.9196,-5.9432,-5.9673,-5.9962,-6.0189,-6.0441,-6.0635,-6.0734,-6.08,-6.0781,-6.0869,-6.0933,-6.1017,-6.1021,-6.1022,-6.1099,-6.1099,-6.1099,-6.1099,-6.1099,-6.1099,-6.1099,-6.1099,-6.1099,-6.1099,-6.1099,-6.1099,-6.1099,-6.1099,-6.0983,-6.0538,-6.0441,-6.046,-6.0383,-6.0615,-6.0712,-6.0751,-6.0848,-6.0858,-6.0584,-6.043,-6.0256,-5.995,-5.9885,-5.9904,-5.9904,-5.9904,-5.9904,-5.9937,-5.995,-5.9963,-5.9994,-6.0057,-6.0087,-6.0068,-6.0087,-6.008,-6.0093,-6.0072,-5.9994,-5.9711,-5.9499,-5.9213,-5.8835,-5.8531,-5.8252,-5.8157,-5.7969,-5.7792,-5.7904,-5.795,-5.7932,-5.7932,-5.7978,-5.7978,-5.7978,-5.7978,-5.7978,-5.7978,-5.8033,-5.8125,-5.8107,-5.8088,-5.8033,-5.7978,-5.8749,-5.8914,-5.9153,-5.9391,-5.9465,-5.941,-5.9483,-5.9373,-5.963,-5.985,-5.9758,-5.4391,-5.4212,-5.4212,-5.4142,-5.4073,-5.4391,-5.4708,-5.5187,-5.6302,-5.7045,-5.7621,-5.8345,-5.8698,-5.8698,-5.8698,-5.8803,-5.8926,-5.9121,-5.9378,-5.972,-6.0072,-6.0237,-6.0321,-6.0422,-6.0616,-6.0757,-6.08,-6.08,-6.08,-6.0869,-6.0933,-6.0997,-6.1021,-6.1022,-6.1099,-6.1099,-6.1099,-6.1099,-6.1099,-6.1099,-6.1099,-6.1099,-6.1099,-6.1099,-6.1099,-6.1099,-6.1099,-6.1099,-6.1099,-6.1079,-6.1079,-6.1099,-6.1099,-6.1099,-6.1099,-6.1099,-6.1022,-6.0836,-6.054,-6.043,-6.0227,-5.9963,-5.9918,-5.9918,-5.9937,-5.995,-5.9982,-5.995,-5.9994,-6.0057,-6.0137,-6.0197,-6.0226,-6.0256,-6.0226,-6.0227,-6.0198,-6.0275,-6.0226,-6.0038,-5.9956,-5.9772,-5.9413,-5.9028,-5.8775,-5.8526,-5.8289,-5.8123,-5.8024,-5.8024,-5.7978,-5.7978,-5.7997,-5.8015,-5.807,-5.8088,-5.8584,-5.8584,-5.8914,-5.8841,-5.8859,-5.8786,-5.8694,-5.8877,-5.9391,-5.9777,-5.9979,-6.0107,-6.0052,-6.0107,-6.0382,-6.0474,-6.0529,-6.0827,-6.079,-5.4837,-5.4814,-5.4809,-5.464,-5.4472,-5.5175,-5.5449,-5.5603,-5.6908,-5.7691,-5.7989,-5.8545,-5.8887,-5.8803,-5.8945,-5.8986,-5.9289,-5.9378,-5.9785,-6.0218,-6.0546,-6.0597,-6.0468,-6.0641,-6.0757,-6.08,-6.08,-6.08,-6.0823,-6.0869,-6.0933,-6.0997,-6.1001,-6.1061,-6.108,-6.1099,-6.1099,-6.1099,-6.1099,-6.1099,-6.1099,-6.1099,-6.1099,-6.1099,-6.1099,-6.1099,-6.1099,-6.1099,-6.1099,-6.1099,-6.1099,-6.1099,-6.1099,-6.1099,-6.1099,-6.1061,-6.0941,-6.0746,-6.0508,-6.0321,-6.0159,-5.9963,-5.9963,-5.9982,-5.9982,-6.0026,-6.0057,-6.0026,-6.0087,-6.0167,-6.0275,-6.0361,-6.0361,-6.0361,-6.037,-6.0351,-6.0332,-6.0351,-6.0389,-6.0389,-6.0389,-6.0207,-5.9988,-5.9739,-5.9518,-5.9027,-5.8691,-5.8351,-5.8186,-5.807,-5.8024,-5.7978,-5.8015,-5.807,-5.8143,-5.8217,-5.8914,-5.9428,-6.0034,-6.0236,-6.0327,-6.0217,-5.9971,-6.0008,-6.0217,-6.0438,-6.0573,-6.0628,-6.0786,-6.0933,-6.13,-6.1062,-6.0841,-6.1429,-6.1605,-5.5037,-5.4812,-5.4804,-5.4759,-5.4838,-5.5553,-5.6242,-5.6875,-5.7838,-5.8653,-5.9197,-5.948,-5.9521,-5.9521,-5.9486,-5.9624,-5.9706,-5.9931,-6.0321,-6.0622,-6.0734,-6.0757,-6.069,-6.0777,-6.08,-6.08,-6.08,-6.08,-6.0823,-6.0911,-6.0976,-6.0997,-6.1021,-6.106,-6.1099,-6.1099,-6.1099,-6.1099,-6.1099,-6.1099,-6.1099,-6.1099,-6.1099,-6.1099,-6.1099,-6.1099,-6.1099,-6.1099,-6.1099,-6.1099,-6.1099,-6.1099,-6.1099,-6.1099,-6.1099,-6.1041,-6.0901,-6.0704,-6.0489,-6.0293,-6.014,-5.9994,-5.9994,-6.0026,-6.0038,-6.0087,-6.0099,-6.0068,-6.0167,-6.0275,-6.0361,-6.0389,-6.0389,-6.0389,-6.0389,-6.0389,-6.0389,-6.0389,-6.0389,-6.0389,-6.0389,-6.0361,-6.0256,-5.9969,-5.9725,-5.9467,-5.9122,-5.8669,-5.8412,-5.8231,-5.8252,-5.8307,-5.8253,-5.8419,-5.8979,-5.9163,-5.9798,-6.0404,-6.0992,-6.163,-6.1704,-6.152,-6.1238,-6.1036,-6.0945,-6.119,-6.1704,-6.1893,-6.2199,-6.2218,-6.2144,-6.1992,-6.1978,-6.2316,-6.2474,-5.5365,-5.5241,-5.5224,-5.5362,-5.5708,-5.6453,-5.7213,-5.7927,-5.8729,-5.9336,-5.9715,-5.9791,-5.9791,-5.9791,-5.9791,-5.9855,-6.0072,-6.0395,-6.0616,-6.0757,-6.08,-6.08,-6.08,-6.08,-6.08,-6.08,-6.08,-6.08,-6.0823,-6.0933,-6.1017,-6.0997,-6.106,-6.108,-6.1099,-6.1099,-6.1099,-6.1099,-6.1099,-6.1099,-6.1099,-6.1099,-6.1099,-6.1099,-6.1099,-6.1099,-6.1099,-6.1099,-6.1099,-6.1099,-6.1099,-6.1099,-6.1099,-6.1099,-6.1099,-6.1061,-6.0795,-6.0633,-6.0463,-6.0265,-6.0068,-6.0026,-6.0076,-6.0087,-6.0148,-6.0178,-6.0226,-6.0226,-6.0275,-6.038,-6.0389,-6.0389,-6.0389,-6.0389,-6.0389,-6.0389,-6.0389,-6.0389,-6.0389,-6.0389,-6.0389,-6.0389,-6.0285,-6.0129,-5.9956,-5.9725,-5.9605,-5.9196,-5.8831,-5.8702,-5.8782,-5.8799,-5.8704,-5.8961,-5.9677,-6.0286,-6.0895,-6.1476,-6.2021,-6.2708,-6.3149,-6.2836,-6.2469,-6.2506,-6.2653,-6.2818,-6.3259,-6.3411,-6.3209,-6.2787,-6.2653,-6.288,-6.3055,-6.3094,-6.3245,-5.5684,-5.5703,-5.5838,-5.6165,-5.6675,-5.7558,-5.8205,-5.8737,-5.957,-5.9965,-5.995,-5.995,-6.0042,-5.9981,-6.0011,-6.015,-6.0395,-6.0616,-6.0781,-6.0781,-6.08,-6.08,-6.08,-6.08,-6.08,-6.08,-6.08,-6.08,-6.0823,-6.0933,-6.1017,-6.1018,-6.106,-6.1099,-6.1099,-6.1099,-6.1099,-6.1099,-6.1099,-6.1099,-6.1099,-6.1099,-6.1099,-6.1099,-6.1099,-6.1099,-6.1099,-6.1099,-6.1099,-6.1099,-6.1099,-6.1099,-6.1099,-6.1099,-6.1099,-6.108,-6.075,-6.0584,-6.0482,-6.0256,-6.0026,-6.0045,-6.0205,-6.0264,-6.0226,-6.0285,-6.0332,-6.0352,-6.038,-6.0389,-6.0389,-6.0389,-6.0389,-6.0389,-6.0389,-6.0389,-6.0389,-6.0389,-6.0389,-6.0389,-6.0389,-6.0389,-6.0389,-6.0313,-6.0129,-6.0007,-5.9912,-5.982,-5.9512,-5.9267,-5.9413,-5.969,-5.9693,-6.0196,-6.0926,-6.1693,-6.2276,-6.2639,-6.3121,-6.3715,-6.4395,-6.4446,-6.4242,-6.4499,-6.4687,-6.4577,-6.4425,-6.4457,-6.4088,-6.3382,-6.3553,-6.4179,-6.4175,-6.3891,-6.3958,-5.5684,-5.5761,-5.6492,-5.6835,-5.714,-5.8519,-5.9202,-5.9451,-6.0227,-6.0622,-6.0597,-6.0597,-6.0572,-6.0616,-6.0616,-6.0666,-6.069,-6.0757,-6.08,-6.08,-6.08,-6.08,-6.08,-6.08,-6.08,-6.08,-6.08,-6.08,-6.0923,-6.0933,-6.1306,-6.1115,-6.1215,-6.1273,-6.1311,-6.1118,-6.1234,-6.1234,-6.1157,-6.1099,-6.1099,-6.1099,-6.1099,-6.1099,-6.1099,-6.1099,-6.1099,-6.1099,-6.1099,-6.1099,-6.1099,-6.1099,-6.1099,-6.1099,-6.1099,-6.1041,-6.0776,-6.0613,-6.054,-6.0293,-6.0178,-6.0235,-6.0313,-6.0323,-6.0332,-6.0389,-6.0389,-6.0389,-6.0389,-6.0389,-6.0389,-6.0389,-6.0389,-6.0389,-6.0389,-6.0389,-6.0389,-6.0389,-6.0389,-6.0389,-6.0389,-6.0408,-6.0408,-6.0523,-6.0571,-6.0548,-6.057,-6.0716,-6.0762,-6.0398,-6.0166,-6.0487,-6.0809,-6.1531,-6.232,-6.311,-6.3746,-6.4,-6.4411,-6.4748,-6.5372,-6.5964,-6.615,-6.5745,-6.5496,-6.523,-6.5238,-6.5367,-6.5308,-6.4902,-6.5233,-6.5595,-6.5159,-6.4678,-6.4496,-5.5684,-5.5799,-5.6626,-5.7277,-5.7851,-5.8969,-5.9762,-6.0185,-6.0608,-6.08,-6.08,-6.08,-6.08,-6.08,-6.08,-6.08,-6.08,-6.08,-6.08,-6.08,-6.08,-6.08,-6.08,-6.08,-6.08,-6.08,-6.0843,-6.1135,-6.1562,-6.2111,-6.2155,-6.2372,-6.2414,-6.2453,-6.2317,-6.2027,-6.1814,-6.1718,-6.1369,-6.1118,-6.1099,-6.1099,-6.1099,-6.1099,-6.1099,-6.1099,-6.1099,-6.1099,-6.1099,-6.1099,-6.1099,-6.1099,-6.1117,-6.1154,-6.1152,-6.1097,-6.0904,-6.0715,-6.0666,-6.0444,-6.034,-6.0294,-6.0323,-6.038,-6.0389,-6.0389,-6.0389,-6.0389,-6.0389,-6.0389,-6.0389,-6.0389,-6.0389,-6.0389,-6.0389,-6.0389,-6.0389,-6.0389,-6.0446,-6.0485,-6.0523,-6.0542,-6.0485,-6.0656,-6.0943,-6.1096,-6.1217,-6.1519,-6.1856,-6.159,-6.12,-6.1818,-6.2245,-6.2701,-6.337,-6.3936,-6.4464,-6.4802,-6.5122,-6.5461,-6.5645,-6.5908,-6.6153,-6.6086,-6.5924,-6.5654,-6.5979,-6.6086,-6.6231,-6.6238,-6.5961,-6.5755,-6.5633,-6.5464,-6.5216,-5.5799,-5.6051,-5.6896,-5.7739,-5.8619,-5.9412,-6.0146,-6.0704,-6.0781,-6.08,-6.08,-6.08,-6.08,-6.08,-6.08,-6.08,-6.08,-6.08,-6.08,-6.08,-6.08,-6.08,-6.08,-6.08,-6.08,-6.0839,-6.1216,-6.1508,-6.2047,-6.2635,-6.322,-6.3339,-6.3593,-6.369,-6.342,-6.2897,-6.2685,-6.2201,-6.1795,-6.135,-6.1137,-6.1099,-6.1099,-6.1099,-6.1099,-6.1099,-6.1099,-6.1099,-6.1099,-6.1099,-6.1099,-6.1099,-6.1117,-6.1169,-6.12,-6.1181,-6.1076,-6.0905,-6.0759,-6.0642,-6.0501,-6.0361,-6.038,-6.0389,-6.0389,-6.0389,-6.0389,-6.0389,-6.0389,-6.0389,-6.0389,-6.0389,-6.0389,-6.0389,-6.0389,-6.0408,-6.0465,-6.0561,-6.079,-6.0809,-6.0752,-6.0867,-6.1019,-6.1421,-6.1822,-6.1917,-6.204,-6.2517,-6.2799,-6.2601,-6.2556,-6.3311,-6.3784,-6.3993,-6.433,-6.4525,-6.4829,-6.4891,-6.5097,-6.5341,-6.5387,-6.5464,-6.5687,-6.5967,-6.595,-6.5819,-6.6287,-6.6695,-6.6736,-6.6569,-6.6158,-6.6012,-6.6061,-6.5935,-6.5646,-5.6148,-5.692,-5.7761,-5.8604,-5.9412,-6.0242,-6.0666,-6.0762,-6.08,-6.08,-6.08,-6.08,-6.08,-6.08,-6.08,-6.08,-6.08,-6.08,-6.08,-6.08,-6.08,-6.08,-6.08,-6.08,-6.0839,-6.0939,-6.1524,-6.1989,-6.242,-6.262,-6.3088,-6.3669,-6.3961,-6.3768,-6.4019,-6.371,-6.3149,-6.2569,-6.2336,-6.1852,-6.1215,-6.1099,-6.1099,-6.1099,-6.1099,-6.1099,-6.1099,-6.1099,-6.1099,-6.1099,-6.1099,-6.1099,-6.1117,-6.115,-6.1268,-6.1302,-6.1252,-6.1077,-6.0883,-6.0776,-6.0603,-6.0425,-6.0389,-6.0389,-6.0389,-6.0389,-6.0389,-6.0389,-6.0389,-6.0389,-6.0389,-6.0389,-6.0389,-6.0446,-6.0504,-6.0504,-6.0561,-6.1287,-6.1459,-6.1726,-6.1879,-6.1822,-6.1841,-6.2319,-6.2758,-6.2796,-6.293,-6.3427,-6.3741,-6.36,-6.3584,-6.4234,-6.4518,-6.4715,-6.4791,-6.5085,-6.5085,-6.5033,-6.5155,-6.5277,-6.5318,-6.5369,-6.537,-6.5599,-6.5656,-6.5832,-6.6148,-6.6516,-6.6936,-6.7012,-6.6744,-6.6654,-6.6656,-6.6364,-6.5874,-5.6667,-5.7131,-5.8437,-5.9162,-5.9604,-6.0435,-6.08,-6.08,-6.08,-6.08,-6.08,-6.08,-6.08,-6.08,-6.08,-6.08,-6.08,-6.08,-6.08,-6.08,-6.08,-6.08,-6.0823,-6.0823,-6.0885,-6.1,-6.1398,-6.2138,-6.268,-6.355,-6.4189,-6.4868,-6.5063,-6.5199,-6.4889,-6.4619,-6.429,-6.371,-6.2955,-6.1969,-6.1331,-6.1099,-6.1099,-6.1099,-6.1099,-6.1099,-6.1099,-6.1099,-6.1099,-6.1117,-6.1136,-6.1169,-6.1203,-6.1283,-6.1402,-6.1434,-6.146,-6.1294,-6.1002,-6.0904,-6.0704,-6.046,-6.0389,-6.0389,-6.0389,-6.0389,-6.0389,-6.0389,-6.0389,-6.0427,-6.0446,-6.0389,-6.0389,-6.0485,-6.0886,-6.1039,-6.1268,-6.1917,-6.2395,-6.2701,-6.2987,-6.2968,-6.2968,-6.3293,-6.3637,-6.3675,-6.3923,-6.4401,-6.4688,-6.4692,-6.4762,-6.494,-6.5105,-6.515,-6.5201,-6.5314,-6.5283,-6.5232,-6.5232,-6.5352,-6.5383,-6.5402,-6.5394,-6.5394,-6.5493,-6.5715,-6.5967,-6.6332,-6.6745,-6.7059,-6.7381,-6.6936,-6.6502,-6.6044,-6.5631,-5.7437,-5.7726,-5.8973,-5.9604,-5.9873,-6.0531,-6.08,-6.08,-6.08,-6.08,-6.08,-6.08,-6.08,-6.08,-6.08,-6.08,-6.08,-6.08,-6.08,-6.08,-6.08,-6.0823,-6.0866,-6.0888,-6.0888,-6.0923,-6.1036,-6.2007,-6.3302,-6.4171,-6.4868,-6.6127,-6.5934,-6.605,-6.5992,-6.5586,-6.5122,-6.4657,-6.3187,-6.2143,-6.1582,-6.1215,-6.1137,-6.1099,-6.1099,-6.1099,-6.1099,-6.1136,-6.1136,-6.1154,-6.1239,-6.1271,-6.1302,-6.1389,-6.146,-6.1503,-6.1537,-6.1396,-6.1128,-6.0945,-6.0776,-6.0546,-6.0389,-6.0389,-6.0389,-6.0389,-6.058,-6.0752,-6.0771,-6.0848,-6.0962,-6.1115,-6.1249,-6.144,-6.1631,-6.1803,-6.2089,-6.2758,-6.3236,-6.3465,-6.3809,-6.4286,-6.4325,-6.4401,-6.4516,-6.4573,-6.4898,-6.5318,-6.5375,-6.5356,-6.5345,-6.5314,-6.5314,-6.5314,-6.5364,-6.5394,-6.5394,-6.5394,-6.5394,-6.5394,-6.5394,-6.5394,-6.5394,-6.5394,-6.5394,-6.549,-6.5681,-6.612,-6.6522,-6.6491,-6.644,-6.6414,-6.6082,-6.5662,-6.5452,-5.8646,-5.9342,-5.9454,-5.9973,-6.0666,-6.0762,-6.08,-6.08,-6.08,-6.08,-6.08,-6.08,-6.08,-6.08,-6.08,-6.08,-6.08,-6.08,-6.08,-6.08,-6.08,-6.0823,-6.0888,-6.0911,-6.0933,-6.0976,-6.104,-6.2027,-6.3303,-6.3806,-6.4851,-6.5973,-6.6166,-6.6205,-6.6166,-6.5992,-6.5528,-6.4851,-6.3381,-6.2511,-6.2008,-6.1563,-6.1118,-6.1099,-6.1099,-6.1099,-6.1099,-6.1189,-6.122,-6.122,-6.1318,-6.1381,-6.1394,-6.146,-6.1515,-6.1526,-6.1558,-6.1421,-6.1162,-6.0983,-6.0776,-6.0546,-6.0389,-6.0446,-6.0599,-6.0465,-6.0733,-6.1402,-6.1516,-6.1841,-6.228,-6.2682,-6.2319,-6.2357,-6.2452,-6.272,-6.3064,-6.3637,-6.4076,-6.4248,-6.4535,-6.4898,-6.5031,-6.4955,-6.4955,-6.4974,-6.5012,-6.5394,-6.5394,-6.5375,-6.5394,-6.5364,-6.5394,-6.5394,-6.5394,-6.5394,-6.5394,-6.5394,-6.5394,-6.5394,-6.5394,-6.5394,-6.5394,-6.5394,-6.5394,-6.5394,-6.5413,-6.5757,-6.5891,-6.5624,-6.5566,-6.5776,-6.5834,-6.5547,-6.5413,-5.9204,-5.9531,-6.0069,-6.0492,-6.08,-6.08,-6.08,-6.08,-6.08,-6.08,-6.08,-6.08,-6.08,-6.08,-6.08,-6.08,-6.08,-6.08,-6.08,-6.08,-6.08,-6.0846,-6.0888,-6.0955,-6.0976,-6.1018,-6.1118,-6.1969,-6.3516,-6.3671,-6.4735,-6.5702,-6.6166,-6.6205,-6.6205,-6.6166,-6.574,-6.4967,-6.3864,-6.3013,-6.224,-6.1601,-6.1099,-6.1099,-6.1152,-6.1169,-6.1186,-6.1271,-6.1302,-6.1332,-6.1428,-6.1454,-6.146,-6.1507,-6.1548,-6.1567,-6.1578,-6.1445,-6.1209,-6.1057,-6.082,-6.0514,-6.0408,-6.0599,-6.1039,-6.1153,-6.1593,-6.207,-6.2395,-6.2682,-6.2777,-6.2892,-6.2815,-6.3006,-6.3274,-6.3599,-6.3942,-6.4439,-6.4688,-6.4783,-6.4974,-6.5261,-6.5318,-6.5337,-6.5337,-6.5356,-6.5375,-6.5394,-6.5394,-6.5394,-6.5394,-6.5394,-6.5394,-6.5394,-6.5394,-6.5394,-6.5394,-6.5394,-6.5394,-6.5394,-6.5394,-6.5394,-6.5394,-6.5394,-6.5394,-6.5394,-6.5394,-6.5394,-6.5413,-6.5413,-6.5413,-6.5471,-6.5433,-6.5394,-6.5394,-5.9646,-5.9954,-6.0531,-6.08,-6.08,-6.08,-6.08,-6.08,-6.08,-6.08,-6.08,-6.08,-6.08,-6.08,-6.08,-6.08,-6.08,-6.08,-6.08,-6.08,-6.0823,-6.0888,-6.0914,-6.0978,-6.1,-6.104,-6.1215,-6.1988,-6.3632,-6.3671,-6.4715,-6.5721,-6.6205,-6.6205,-6.6205,-6.6147,-6.5895,-6.5296,-6.4503,-6.3652,-6.282,-6.2008,-6.1273,-6.1214,-6.1169,-6.1184,-6.1233,-6.1332,-6.1408,-6.1434,-6.1491,-6.1526,-6.1548,-6.1558,-6.1588,-6.1588,-6.1578,-6.1518,-6.1303,-6.1039,-6.0869,-6.0835,-6.0828,-6.1249,-6.1726,-6.2013,-6.2395,-6.314,-6.3293,-6.335,-6.3484,-6.3828,-6.3923,-6.4172,-6.4305,-6.4554,-6.463,-6.4974,-6.5127,-6.5261,-6.5394,-6.5394,-6.5394,-6.5394,-6.5394,-6.5394,-6.5394,-6.5394,-6.5394,-6.5394,-6.5394,-6.5394,-6.5394,-6.5394,-6.5394,-6.5394,-6.5394,-6.5394,-6.5394,-6.5394,-6.5394,-6.5394,-6.5394,-6.5394,-6.5394,-6.5394,-6.5394,-6.5394,-6.5394,-6.5394,-6.5394,-6.5394,-6.5394,-6.5394,-6.5394,-5.9992,-6.0742,-6.0781,-6.08,-6.08,-6.08,-6.08,-6.08,-6.08,-6.08,-6.08,-6.08,-6.08,-6.08,-6.08,-6.08,-6.08,-6.08,-6.08,-6.0823,-6.0846,-6.0933,-6.0978,-6.1,-6.1021,-6.108,-6.1234,-6.1969,-6.3574,-6.3671,-6.4657,-6.5663,-6.6108,-6.6205,-6.6205,-6.6205,-6.6166,-6.6031,-6.5257,-6.4387,-6.3516,-6.2646,-6.1872,-6.1326,-6.122,-6.1248,-6.1298,-6.1402,-6.1472,-6.1515,-6.1548,-6.1568,-6.1578,-6.1578,-6.1588,-6.1588,-6.1588,-6.1518,-6.1342,-6.0983,-6.1243,-6.1579,-6.1685,-6.204,-6.2653,-6.2959,-6.3255,-6.4097,-6.4221,-6.4526,-6.4928,-6.5184,-6.505,-6.5031,-6.5127,-6.5165,-6.5203,-6.5222,-6.5337,-6.5394,-6.5394,-6.5394,-6.5394,-6.5394,-6.5394,-6.5394,-6.5394,-6.5394,-6.5394,-6.5394,-6.5394,-6.5394,-6.5394,-6.5394,-6.5394,-6.5394,-6.5394,-6.5394,-6.5394,-6.5394,-6.5394,-6.5394,-6.5394,-6.5394,-6.5394,-6.5394,-6.5394,-6.5394,-6.5394,-6.5394,-6.5394,-6.5394,-6.5394,-6.5394,-6.5394,-6.0692,-6.0923,-6.0831,-6.08,-6.08,-6.08,-6.08,-6.08,-6.08,-6.08,-6.08,-6.08,-6.08,-6.08,-6.08,-6.08,-6.08,-6.0781,-6.0823,-6.0888,-6.0891,-6.0938,-6.1,-6.1021,-6.1041,-6.108,-6.1215,-6.164,-6.2801,-6.3381,-6.4251,-6.5218,-6.6011,-6.6185,-6.6205,-6.6205,-6.6185,-6.605,-6.5373,-6.458,-6.3784,-6.2951,-6.2153,-6.1388,-6.1405,-6.1375,-6.1389,-6.1515,-6.1548,-6.1558,-6.1588,-6.1588,-6.1588,-6.1588,-6.1588,-6.1588,-6.1627,-6.181,-6.216,-6.2405,-6.2704,-6.2752,-6.2714,-6.306,-6.3809,-6.3943,-6.4442,-6.4895,-6.5041,-6.5273,-6.5321,-6.5318,-6.5261,-6.528,-6.5318,-6.5318,-6.5337,-6.5356,-6.5394,-6.5394,-6.5394,-6.5394,-6.5394,-6.5394,-6.5394,-6.5394,-6.5394,-6.5394,-6.5394,-6.5394,-6.5394,-6.5394,-6.5394,-6.5394,-6.5394,-6.5394,-6.5394,-6.5394,-6.5394,-6.5394,-6.5394,-6.5394,-6.5394,-6.5394,-6.5394,-6.5394,-6.5394,-6.5394,-6.5394,-6.5394,-6.5394,-6.5394,-6.5394,-6.5394,-6.5394,-6.1074,-6.1059,-6.0964,-6.0945,-6.0925,-6.0834,-6.08,-6.08,-6.08,-6.08,-6.08,-6.08,-6.08,-6.08,-6.08,-6.08,-6.08,-6.0823,-6.0846,-6.0911,-6.0935,-6.098,-6.0982,-6.1022,-6.1041,-6.1099,-6.1195,-6.1582,-6.2491,-6.3304,-6.4367,-6.5392,-6.5915,-6.6167,-6.6225,-6.6225,-6.6205,-6.6109,-6.5664,-6.5159,-6.4341,-6.3502,-6.2641,-6.2022,-6.1668,-6.1472,-6.1515,-6.1548,-6.1588,-6.1588,-6.1588,-6.1588,-6.1588,-6.1588,-6.1588,-6.1607,-6.1968,-6.2502,-6.3468,-6.3949,-6.4213,-6.4425,-6.4029,-6.4147,-6.4759,-6.4971,-6.5177,-6.5518,-6.5711,-6.5586,-6.5446,-6.5405,-6.5394,-6.5394,-6.5394,-6.5394,-6.5394,-6.5394,-6.5394,-6.5394,-6.5394,-6.5394,-6.5394,-6.5394,-6.5394,-6.5394,-6.5394,-6.5394,-6.5394,-6.5394,-6.5394,-6.5394,-6.5394,-6.5394,-6.5394,-6.5394,-6.5394,-6.5394,-6.5394,-6.5394,-6.5394,-6.5394,-6.5394,-6.5394,-6.5394,-6.5394,-6.5394,-6.5394,-6.5394,-6.5394,-6.5394,-6.5394,-6.5394,-6.5394,-6.5394,-6.1221,-6.1203,-6.1182,-6.1169,-6.1143,-6.0945,-6.0808,-6.0804,-6.0804,-6.0804,-6.08,-6.08,-6.08,-6.0781,-6.0781,-6.0804,-6.0823,-6.0888,-6.0891,-6.0916,-6.096,-6.0982,-6.1022,-6.1041,-6.108,-6.1099,-6.1176,-6.1466,-6.2375,-6.3284,-6.4522,-6.578,-6.6129,-6.6245,-6.6282,-6.6283,-6.6284,-6.6245,-6.6146,-6.5638,-6.4893,-6.4182,-6.3279,-6.2543,-6.1919,-6.1593,-6.1537,-6.1558,-6.1578,-6.1588,-6.1588,-6.1588,-6.1588,-6.1588,-6.1588,-6.1861,-6.2484,-6.3663,-6.4743,-6.5113,-6.555,-6.5633,-6.5293,-6.535,-6.5495,-6.5775,-6.5853,-6.5801,-6.5832,-6.564,-6.5475,-6.5435,-6.5394,-6.5394,-6.5394,-6.5394,-6.5394,-6.5394,-6.5394,-6.5394,-6.5394,-6.5394,-6.5394,-6.5394,-6.5394,-6.5394,-6.5394,-6.5394,-6.5394,-6.5394,-6.5394,-6.5394,-6.5394,-6.5394,-6.5394,-6.5394,-6.5394,-6.5394,-6.5394,-6.5394,-6.5394,-6.5394,-6.5394,-6.5394,-6.5394,-6.5394,-6.5394,-6.5394,-6.5394,-6.5394,-6.5394,-6.5394,-6.5394,-6.5394,-6.5394,-6.1409,-6.1406,-6.1266,-6.1181,-6.1194,-6.1116,-6.1018,-6.0963,-6.0943,-6.0901,-6.08,-6.0781,-6.0823,-6.0781,-6.0853,-6.0853,-6.0872,-6.0935,-6.0959,-6.0981,-6.0982,-6.1022,-6.1041,-6.108,-6.1099,-6.1099,-6.1157,-6.1273,-6.1776,-6.2859,-6.458,-6.5992,-6.6243,-6.6316,-6.6389,-6.6406,-6.6431,-6.6413,-6.6426,-6.6027,-6.53,-6.4467,-6.3651,-6.2889,-6.2015,-6.1656,-6.1568,-6.1578,-6.1588,-6.1588,-6.1588,-6.1588,-6.1588,-6.1627,-6.1744,-6.2562,-6.3322,-6.4257,-6.527,-6.5972,-6.6357,-6.6406,-6.6145,-6.6174,-6.6251,-6.6241,-6.6258,-6.6129,-6.5966,-6.5799,-6.5578,-6.5504,-6.5435,-6.5394,-6.5394,-6.5394,-6.5394,-6.5394,-6.5394,-6.5394,-6.5394,-6.5394,-6.5394,-6.5394,-6.5394,-6.5394,-6.5394,-6.5394,-6.5394,-6.5394,-6.5394,-6.5394,-6.5394,-6.5394,-6.5394,-6.5394,-6.5394,-6.5394,-6.5394,-6.5394,-6.5394,-6.5394,-6.5394,-6.5394,-6.5394,-6.5394,-6.5394,-6.5394,-6.5394,-6.5394,-6.5394,-6.5394,-6.5394,-6.5394,-6.5394,-6.158,-6.1553,-6.1442,-6.1402,-6.1402,-6.1402,-6.1324,-6.1201,-6.1123,-6.1019,-6.0944,-6.0891,-6.0888,-6.0901,-6.092,-6.0918,-6.0935,-6.0959,-6.0981,-6.0982,-6.1022,-6.1061,-6.1099,-6.1099,-6.1099,-6.1099,-6.1099,-6.1137,-6.1582,-6.2857,-6.4558,-6.571,-6.6098,-6.6415,-6.6519,-6.6533,-6.6533,-6.6553,-6.6489,-6.6244,-6.5589,-6.4699,-6.3876,-6.3234,-6.2309,-6.1705,-6.1588,-6.1588,-6.1588,-6.1588,-6.1588,-6.1588,-6.1705,-6.1899,-6.2503,-6.3341,-6.416,-6.5017,-6.5894,-6.6361,-6.6532,-6.6587,-6.663,-6.6599,-6.6536,-6.6484,-6.6441,-6.6345,-6.6167,-6.5983,-6.5749,-6.5522,-6.5475,-6.5394,-6.5394,-6.5394,-6.5394,-6.5394,-6.5394,-6.5394,-6.5394,-6.5394,-6.5394,-6.5394,-6.5394,-6.5394,-6.5394,-6.5394,-6.5394,-6.5394,-6.5394,-6.5394,-6.5394,-6.5394,-6.5394,-6.5394,-6.5394,-6.5394,-6.5394,-6.5394,-6.5394,-6.5394,-6.5394,-6.5394,-6.5394,-6.5394,-6.5394,-6.5394,-6.5394,-6.5394,-6.5394,-6.5394,-6.5394,-6.5394,-6.5394,-6.1696,-6.1696,-6.1701,-6.1671,-6.1696,-6.1691,-6.1621,-6.1519,-6.1316,-6.12,-6.1167,-6.106,-6.104,-6.1022,-6.1002,-6.098,-6.0999,-6.1021,-6.1021,-6.1022,-6.1061,-6.1099,-6.1099,-6.1099,-6.1099,-6.1099,-6.1137,-6.1253,-6.1754,-6.295,-6.4294,-6.5188,-6.6096,-6.6514,-6.6601,-6.6613,-6.6626,-6.6638,-6.6626,-6.6489,-6.6096,-6.5163,-6.4043,-6.375,-6.2659,-6.1588,-6.1588,-6.1588,-6.1588,-6.1588,-6.1588,-6.1588,-6.1822,-6.2348,-6.3166,-6.3984,-6.4725,-6.5562,-6.6205,-6.6634,-6.6673,-6.6702,-6.6712,-6.6702,-6.6661,-6.663,-6.6575,-6.647,-6.6309,-6.6109,-6.5894,-6.564,-6.5513,-6.5435,-6.5394,-6.5394,-6.5394,-6.5394,-6.5394,-6.5394,-6.5394,-6.5394,-6.5394,-6.5394,-6.5394,-6.5394,-6.5394,-6.5394,-6.5394,-6.5394,-6.5394,-6.5394,-6.5394,-6.5394,-6.5394,-6.5394,-6.5394,-6.5394,-6.5394,-6.5394,-6.5394,-6.5394,-6.5394,-6.5394,-6.5394,-6.5394,-6.5394,-6.5394,-6.5394,-6.5394,-6.5394,-6.5394,-6.5394,-6.5394,-6.5394,-6.1701,-6.1701,-6.1701,-6.1701,-6.1701,-6.1701,-6.1671,-6.166,-6.1609,-6.1422,-6.122,-6.1151,-6.1145,-6.1111,-6.1118,-6.1099,-6.1041,-6.106,-6.108,-6.108,-6.1099,-6.1099,-6.1099,-6.1099,-6.1099,-6.1099,-6.1176,-6.1444,-6.2075,-6.3204,-6.4328,-6.5233,-6.603,-6.6477,-6.6661,-6.668,-6.6671,-6.6692,-6.6682,-6.6671,-6.6448,-6.5212,-6.4043,-6.3595,-6.2659,-6.1744,-6.1627,-6.1588,-6.1588,-6.1588,-6.1588,-6.1588,-6.1627,-6.2445,-6.3263,-6.4082,-6.4978,-6.5874,-6.642,-6.6712,-6.6712,-6.6712,-6.6712,-6.6712,-6.6712,-6.6712,-6.6671,-6.6575,-6.6422,-6.6223,-6.6005,-6.5774,-6.5578,-6.5475,-6.5425,-6.5425,-6.5425,-6.5425,-6.5425,-6.5394,-6.5394,-6.5394,-6.5425,-6.5394,-6.5394,-6.5394,-6.5394,-6.5394,-6.5425,-6.5425,-6.5425,-6.5425,-6.5394,-6.5394,-6.5394,-6.5394,-6.5394,-6.5394,-6.5394,-6.5394,-6.5394,-6.5394,-6.5394,-6.5394,-6.5394,-6.5394,-6.5394,-6.5394,-6.5394,-6.5394,-6.5394,-6.5394,-6.5394,-6.5394,-6.5394,-6.1701,-6.1701,-6.1701,-6.1701,-6.1701,-6.1701,-6.1701,-6.1701,-6.1701,-6.1602,-6.1442,-6.1374,-6.1301,-6.1216,-6.1225,-6.1157,-6.108,-6.108,-6.1099,-6.1099,-6.1099,-6.1099,-6.1099,-6.106,-6.1116,-6.1154,-6.1261,-6.1601,-6.2128,-6.2943,-6.3833,-6.4808,-6.5617,-6.631,-6.6595,-6.6712,-6.6712,-6.6712,-6.6712,-6.6712,-6.6615,-6.5465,-6.4413,-6.3848,-6.301,-6.2114,-6.1627,-6.1588,-6.1588,-6.1588,-6.1588,-6.1588,-6.1899,-6.2815,-6.3575,-6.4335,-6.5212,-6.6205,-6.6556,-6.6712,-6.6712,-6.6712,-6.6712,-6.6712,-6.6712,-6.6712,-6.6712,-6.6618,-6.647,-6.6276,-6.6089,-6.5866,-6.5659,-6.5552,-6.5494,-6.5494,-6.5494,-6.5494,-6.5494,-6.5494,-6.5494,-6.5494,-6.5494,-6.5494,-6.5494,-6.5513,-6.5513,-6.5484,-6.5484,-6.5454,-6.5454,-6.5435,-6.5425,-6.5394,-6.5394,-6.5394,-6.5394,-6.5394,-6.5394,-6.5394,-6.5394,-6.5394,-6.5394,-6.5394,-6.5394,-6.5394,-6.5394,-6.5394,-6.5394,-6.5394,-6.5394,-6.5394,-6.5394,-6.5394,-6.5394,-6.1701,-6.1701,-6.1701,-6.1701,-6.1701,-6.1701,-6.1701,-6.1701,-6.1701,-6.1701,-6.1652,-6.1559,-6.1478,-6.1403,-6.1326,-6.121,-6.1157,-6.1176,-6.1157,-6.1137,-6.1099,-6.1099,-6.1041,-6.0962,-6.0782,-6.079,-6.0925,-6.1058,-6.1324,-6.2379,-6.3406,-6.413,-6.4978,-6.5855,-6.6459,-6.6712,-6.6712,-6.6712,-6.6712,-6.6712,-6.6361,-6.5864,-6.4919,-6.41,-6.3312,-6.2455,-6.1851,-6.1578,-6.1578,-6.1588,-6.1588,-6.1588,-6.2094,-6.301,-6.3672,-6.4452,-6.566,-6.6381,-6.6712,-6.6712,-6.6712,-6.6712,-6.6712,-6.6712,-6.6722,-6.6722,-6.6722,-6.6671,-6.6517,-6.6345,-6.6148,-6.6003,-6.5813,-6.5608,-6.558,-6.5608,-6.5608,-6.5608,-6.558,-6.558,-6.558,-6.558,-6.558,-6.5608,-6.5608,-6.5627,-6.5627,-6.5627,-6.5599,-6.5552,-6.5523,-6.5494,-6.5465,-6.5454,-6.5394,-6.5394,-6.5394,-6.5394,-6.5394,-6.5394,-6.5394,-6.5394,-6.5394,-6.5394,-6.5394,-6.5394,-6.5394,-6.5394,-6.5394,-6.5394,-6.5394,-6.5394,-6.5394,-6.5394,-6.5394,-6.1701,-6.1701,-6.1701,-6.1701,-6.1701,-6.1701,-6.1701,-6.1701,-6.1701,-6.1701,-6.1705,-6.1678,-6.1619,-6.1549,-6.1527,-6.1445,-6.1305,-6.127,-6.1272,-6.1273,-6.1021,-6.1041,-6.0865,-6.0392,-5.9859,-5.9857,-6.01,-6.0421,-6.0806,-6.2065,-6.3254,-6.4023,-6.49,-6.5757,-6.6517,-6.6692,-6.6712,-6.6712,-6.6712,-6.6712,-6.6478,-6.5853,-6.4893,-6.4037,-6.3261,-6.2352,-6.1698,-6.1548,-6.1559,-6.1588,-6.1588,-6.1588,-6.2133,-6.3069,-6.3867,-6.451,-6.5738,-6.6478,-6.6712,-6.6712,-6.6722,-6.6712,-6.6722,-6.6731,-6.675,-6.6778,-6.6778,-6.6759,-6.6622,-6.6441,-6.6278,-6.6187,-6.6024,-6.5724,-6.5599,-6.5616,-6.5624,-6.5616,-6.5635,-6.5635,-6.5635,-6.5635,-6.5635,-6.5635,-6.5655,-6.5655,-6.5655,-6.5655,-6.5655,-6.5608,-6.5608,-6.5552,-6.5523,-6.5454,-6.5444,-6.5394,-6.5394,-6.5394,-6.5394,-6.5394,-6.5394,-6.5394,-6.5394,-6.5394,-6.5394,-6.5394,-6.5394,-6.5394,-6.5394,-6.5394,-6.5394,-6.5394,-6.5394,-6.5394,-6.5394]}]]